[[{"header":{"parameterUnit":"m.s-1","parameterCategory":1,"la1":30.6,"la2":29.2853,"lo1":-89.7004,"lo2":-87.6739,"dx":0.0162,"dy":0.0183,"nx":112,"ny":82,"refTime":"2022-12-28T18:00:00:Z","depth":0,"parameterNumber":2,"parameterNumberName":"U-component_of_WINDS"},"data":[0.0,0.0,0.0,0.0,0.0,0.0,0.0,0.0,0.0,0.0,0.0,0.0,0.0,0.0,0.0,0.0,0.0,0.0,0.0,0.0,0.0,0.0,0.0,0.0,0.0,0.0,0.0,0.0,0.0,0.0,0.0,0.0,0.0,0.0,0.0,0.0,0.0,0.0,0.0,0.0,0.0,0.0,0.0,0.0,0.0,0.0,0.0,0.0,0.0,0.0,0.0,0.0,0.0,0.0,0.0,0.0,0.0,0.0,0.0,0.0,0.0,0.0,0.0,0.0,0.0,0.0,0.0,0.0,0.0,0.0,0.0,0.0,0.0,0.0,0.0,0.0,0.0,0.0,0.0,0.0,0.0,0.0,0.0,0.0,0.0,0.0,0.0,0.0,0.0,0.0,-0.9599,-1.0857,-1.2187,-1.3008,-1.3212,-1.4911,-1.6434,-1.7642,0.0,0.0,0.0,0.0,0.0,0.0,0.0,0.0,0.0,0.0,0.0,0.0,0.0,0.0,0.0,0.0,0.0,0.0,0.0,0.0,0.0,0.0,0.0,0.0,0.0,0.0,0.0,0.0,0.0,0.0,0.0,0.0,0.0,0.0,0.0,0.0,0.0,0.0,0.0,0.0,0.0,0.0,0.0,0.0,0.0,0.0,0.0,0.0,0.0,0.0,0.0,0.0,0.0,0.0,0.0,0.0,0.0,0.0,0.0,0.0,0.0,0.0,0.0,0.0,0.0,0.0,0.0,0.0,0.0,0.0,0.0,0.0,0.0,0.0,0.0,0.0,0.0,0.0,0.0,0.0,0.0,0.0,0.0,0.0,0.0,0.0,0.0,0.0,0.0,0.0,0.0,0.0,0.0,0.0,0.0,0.0,0.0,0.0,0.0,0.0,0.0,0.0,0.0,0.0,-1.0153,-1.0538,-1.2169,-1.3375,-1.3654,-1.5157,-1.6684,-1.8099,0.0,0.0,0.0,0.0,0.0,0.0,0.0,0.0,0.0,0.0,0.0,0.0,0.0,0.0,0.0,0.0,0.0,0.0,0.0,0.0,0.0,0.0,0.0,0.0,0.0,0.0,0.0,0.0,0.0,0.0,0.0,0.0,0.0,0.0,0.0,0.0,0.0,0.0,0.0,0.0,0.0,0.0,0.0,0.0,0.0,0.0,0.0,0.0,0.0,0.0,0.0,0.0,0.0,0.0,0.0,0.0,0.0,0.0,0.0,0.0,0.0,0.0,0.0,0.0,0.0,0.0,0.0,0.0,0.0,0.0,0.0,0.0,0.0,0.0,0.0,0.0,0.0,0.0,0.0,0.0,0.0,0.0,0.0,0.0,0.0,0.0,0.0,0.0,0.0,0.0,0.0,0.0,0.0,0.0,0.0,0.0,0.0,0.0,0.0,0.0,0.0,0.0,0.0,-0.8639,-0.9258,-1.0493,-1.1475,-1.2127,-1.2368,-1.297,-1.4316,-1.6721,-1.6454,0.0,0.0,0.0,0.0,0.0,0.0,0.0,0.0,0.0,0.0,0.0,0.0,0.0,0.0,0.0,0.0,0.0,0.0,0.0,0.0,0.0,0.0,0.0,0.0,0.0,0.0,0.0,0.0,0.0,0.0,0.0,0.0,0.0,0.0,0.0,0.0,0.0,0.0,0.0,0.0,0.0,0.0,0.0,0.0,0.0,0.0,0.0,0.0,0.0,0.0,0.0,0.0,0.0,0.0,0.0,0.0,0.0,0.0,0.0,0.0,0.0,0.0,0.0,0.0,0.0,0.0,0.0,0.0,0.0,0.0,0.0,0.0,0.0,0.0,0.0,0.0,0.0,0.0,0.0,0.0,0.0,0.0,0.0,0.0,0.0,0.0,0.0,0.0,0.0,0.0,0.0,0.0,0.0,0.0,0.0,0.0,0.0,0.0,0.0,0.0,0.0,0.0,-0.7984,-0.8066,-1.0492,-1.0941,-1.1111,-1.126,-1.1138,-1.2375,-1.5567,-1.5326,0.0,0.0,0.0,0.0,0.0,0.0,0.0,0.0,0.0,0.0,0.0,0.0,0.0,0.0,0.0,0.0,0.0,0.0,0.0,0.0,0.0,0.0,0.0,0.0,0.0,0.0,0.0,0.0,0.0,0.0,0.0,0.0,0.0,0.0,0.0,0.0,0.0,0.0,0.0,0.0,0.0,0.0,0.0,0.0,0.0,0.0,0.0,0.0,0.0,0.0,0.0,0.0,0.0,0.0,0.0,0.0,0.0,0.0,0.0,0.0,0.0,0.0,0.0,0.0,0.0,0.0,0.0,0.0,0.0,0.0,0.0,0.0,0.0,0.0,0.0,0.0,0.0,0.0,0.0,0.0,0.0,0.0,0.0,0.0,0.0,0.0,0.0,0.0,0.0,0.0,0.0,0.0,0.0,0.0,0.0,0.0,0.0,0.0,0.0,0.0,0.0,0.0,-0.6989,-0.7055,-1.0489,-1.1192,-1.1423,-1.1572,-1.145,-1.2666,-1.5717,-1.549,0.0,0.0,0.0,0.0,0.0,0.0,0.0,0.0,0.0,0.0,0.0,0.0,0.0,0.0,0.0,0.0,0.0,0.0,0.0,0.0,0.0,0.0,0.0,0.0,0.0,0.0,0.0,0.0,0.0,0.0,0.0,0.0,0.0,0.0,0.0,0.0,0.0,0.0,0.0,0.0,0.0,0.0,0.0,0.0,0.0,0.0,0.0,0.0,0.0,0.0,0.0,0.0,0.0,0.0,0.0,0.0,0.0,0.0,0.0,0.0,0.0,0.0,0.0,0.0,0.0,0.0,0.0,0.0,0.0,0.0,0.0,0.0,0.0,0.0,0.0,0.0,0.0,0.0,0.0,0.0,0.0,0.0,0.0,0.0,0.0,0.0,0.0,0.0,0.0,0.0,0.0,0.0,0.0,0.0,0.0,0.0,0.0,0.0,0.0,0.0,0.0,0.0,-0.6995,-0.7113,0.0,-1.1355,-1.1558,-1.1613,-1.1477,-1.2288,-1.429,0.0,0.0,0.0,0.0,0.0,0.0,0.0,0.0,0.0,0.0,0.0,0.0,0.0,0.0,0.0,0.0,0.0,0.0,0.0,0.0,0.0,0.0,0.0,0.0,0.0,0.0,0.0,0.0,0.0,0.0,0.0,0.0,0.0,0.0,0.0,0.0,0.0,0.0,0.0,0.0,0.0,0.0,0.0,0.0,0.0,0.0,0.0,0.0,0.0,0.0,0.0,0.0,0.0,0.0,0.0,0.0,0.0,0.0,0.0,0.0,0.0,0.0,0.0,0.0,0.0,0.0,0.0,0.0,0.0,0.0,0.0,0.0,0.0,0.0,0.0,0.0,0.0,0.0,0.0,0.0,0.0,0.0,0.0,0.0,0.0,0.0,0.0,0.0,0.0,0.0,0.0,0.0,0.0,0.0,0.0,0.0,0.0,0.0,0.0,0.0,0.0,0.0,-0.792,-0.6827,-0.7182,0.0,-1.1436,-1.1619,-1.1619,-1.1525,-1.2054,-1.3353,0.0,0.0,0.0,0.0,0.0,0.0,0.0,0.0,0.0,0.0,0.0,0.0,0.0,0.0,0.0,0.0,0.0,0.0,0.0,0.0,0.0,0.0,0.0,0.0,0.0,0.0,0.0,0.0,0.0,0.0,0.0,0.0,0.0,0.0,0.0,0.0,0.0,0.0,0.0,0.0,0.0,0.0,0.0,0.0,0.0,0.0,0.0,0.0,0.0,0.0,0.0,0.0,0.0,0.0,0.0,0.0,0.0,0.0,0.0,0.0,0.0,0.0,0.0,0.0,0.0,0.0,0.0,0.0,0.0,0.0,0.0,0.0,0.0,0.0,0.0,0.0,0.0,0.0,0.0,0.0,0.0,0.0,0.0,0.0,0.0,0.0,0.0,0.0,0.0,0.0,0.0,0.0,0.0,0.0,0.0,0.0,0.0,0.0,0.0,0.0,0.0,0.0,-0.679,-0.6315,-0.7214,-1.08,-1.1436,-1.1619,-1.1619,-1.1619,-1.205,0.0,0.0,0.0,0.0,0.0,0.0,0.0,0.0,0.0,0.0,0.0,0.0,0.0,0.0,0.0,0.0,0.0,0.0,0.0,0.0,0.0,0.0,0.0,0.0,0.0,0.0,0.0,0.0,0.0,0.0,0.0,0.0,0.0,0.0,0.0,0.0,0.0,0.0,0.0,0.0,0.0,0.0,0.0,0.0,0.0,0.0,0.0,0.0,0.0,0.0,0.0,0.0,0.0,0.0,0.0,0.0,0.0,0.0,0.0,0.0,0.0,0.0,0.0,0.0,0.0,0.0,0.0,0.0,0.0,0.0,0.0,0.0,0.0,0.0,0.0,0.0,0.0,0.0,0.0,0.0,0.0,0.0,0.0,0.0,0.0,0.0,0.0,0.0,0.0,0.0,0.0,0.0,0.0,0.0,0.0,0.0,0.0,0.0,0.0,0.0,0.0,0.0,0.0,-0.7016,-0.6421,-0.7241,-1.0938,-1.1504,-1.1619,-1.1619,-1.1619,-1.1524,-1.1315,0.0,0.0,0.0,0.0,0.0,0.0,0.0,0.0,0.0,0.0,0.0,0.0,0.0,0.0,0.0,0.0,0.0,0.0,0.0,0.0,0.0,0.0,0.0,0.0,0.0,0.0,0.0,0.0,0.0,0.0,0.0,0.0,0.0,0.0,0.0,0.0,0.0,0.0,0.0,0.0,0.0,0.0,0.0,0.0,0.0,0.0,0.0,0.0,0.0,0.0,0.0,0.0,0.0,0.0,0.0,0.0,0.0,0.0,0.0,0.0,0.0,0.0,0.0,0.0,0.0,0.0,0.0,0.0,0.0,0.0,0.0,0.0,0.0,0.0,0.0,0.0,0.0,0.0,0.0,0.0,0.0,0.0,0.0,0.0,0.0,0.0,0.0,0.0,0.0,0.0,0.0,0.0,0.0,0.0,0.0,0.0,0.0,0.0,0.0,0.0,0.0,0.0,-0.7263,-0.7172,-0.8104,-1.1087,-1.1531,-1.1619,-1.1619,-1.1619,-1.1348,-1.0711,0.0,0.0,0.0,0.0,0.0,0.0,0.0,0.0,0.0,0.0,0.0,0.0,0.0,0.0,0.0,0.0,0.0,0.0,0.0,0.0,0.0,0.0,0.0,0.0,0.0,0.0,0.0,0.0,0.0,0.0,0.0,0.0,0.0,0.0,0.0,0.0,0.0,0.0,0.0,0.0,0.0,0.0,0.0,0.0,0.0,0.0,0.0,0.0,0.0,0.0,0.0,0.0,0.0,0.0,0.0,0.0,0.0,0.0,0.0,0.0,0.0,0.0,0.0,0.0,0.0,0.0,0.0,0.0,0.0,0.0,0.0,0.0,0.0,0.0,0.0,0.0,0.0,0.0,0.0,0.0,0.0,0.0,0.0,0.0,0.0,0.0,0.0,0.0,0.0,0.0,0.0,0.0,0.0,0.0,0.0,0.0,0.0,0.0,0.0,0.0,0.0,0.0,-0.7535,-0.8257,-0.9394,-1.1197,-1.1545,-1.164,-1.164,-1.1653,-1.147,-1.0948,0.0,0.0,0.0,0.0,0.0,0.0,0.0,0.0,0.0,0.0,0.0,0.0,0.0,0.0,0.0,0.0,0.0,0.0,0.0,0.0,0.0,0.0,0.0,0.0,0.0,0.0,0.0,0.0,0.0,0.0,0.0,0.0,0.0,0.0,0.0,0.0,0.0,0.0,0.0,0.0,0.0,0.0,0.0,0.0,0.0,0.0,0.0,0.0,0.0,0.0,0.0,0.0,0.0,0.0,0.0,0.0,0.0,0.0,0.0,0.0,-2.3436,0.0,0.0,0.0,0.0,0.0,0.0,0.0,0.0,0.0,0.0,0.0,0.0,0.0,0.0,0.0,0.0,0.0,0.0,0.0,0.0,0.0,0.0,0.0,0.0,0.0,0.0,0.0,0.0,0.0,0.0,0.0,0.0,0.0,0.0,0.0,0.0,0.0,0.0,0.0,0.0,0.0,-0.7818,-0.8352,-0.9428,-1.1337,-1.1701,-1.1782,-1.1782,-1.1898,-1.1775,-1.1328,-1.1267,0.0,0.0,0.0,0.0,0.0,0.0,0.0,0.0,0.0,0.0,0.0,0.0,0.0,0.0,0.0,0.0,0.0,0.0,0.0,0.0,0.0,0.0,0.0,0.0,0.0,0.0,0.0,0.0,0.0,0.0,0.0,0.0,0.0,0.0,0.0,0.0,0.0,0.0,0.0,0.0,0.0,0.0,0.0,0.0,0.0,0.0,0.0,0.0,0.0,0.0,0.0,0.0,0.0,0.0,0.0,0.0,0.0,0.0,0.0,0.0,-2.2111,0.0,0.0,0.0,0.0,0.0,0.0,0.0,0.0,0.0,0.0,0.0,0.0,0.0,0.0,0.0,0.0,0.0,0.0,0.0,0.0,0.0,0.0,0.0,0.0,0.0,0.0,0.0,0.0,0.0,0.0,0.0,0.0,0.0,0.0,0.0,0.0,0.0,0.0,0.0,0.0,-0.8922,-0.9624,-1.0537,-1.1556,-1.1789,-1.1864,-1.1938,-1.2013,-1.1965,-1.1728,-1.1579,0.0,0.0,0.0,0.0,0.0,0.0,0.0,0.0,0.0,0.0,0.0,0.0,0.0,0.0,0.0,0.0,0.0,0.0,0.0,0.0,0.0,0.0,0.0,0.0,0.0,0.0,0.0,0.0,0.0,0.0,0.0,0.0,0.0,0.0,0.0,0.0,0.0,0.0,0.0,0.0,0.0,0.0,0.0,0.0,0.0,0.0,0.0,0.0,0.0,0.0,0.0,0.0,0.0,-2.3049,-2.2433,-2.1269,-2.1187,-2.1032,-2.0731,-2.0269,-2.0496,-2.1246,-2.0673,0.0,0.0,0.0,0.0,0.0,0.0,0.0,0.0,0.0,0.0,0.0,0.0,0.0,0.0,0.0,0.0,0.0,0.0,0.0,0.0,0.0,0.0,0.0,0.0,-0.9958,-0.9943,-0.9259,0.0,0.0,0.0,0.0,0.0,0.0,0.0,0.0,0.0,0.0,0.0,-0.9677,-1.0776,-1.1701,-1.1816,-1.1877,-1.1959,-1.2094,-1.2128,-1.2142,-1.2142,-1.1911,-1.1681,0.0,0.0,0.0,0.0,0.0,0.0,0.0,0.0,0.0,0.0,0.0,0.0,0.0,0.0,0.0,0.0,0.0,0.0,0.0,0.0,0.0,0.0,0.0,0.0,0.0,0.0,0.0,0.0,0.0,0.0,0.0,0.0,-2.7944,-2.5971,0.0,0.0,0.0,0.0,0.0,0.0,0.0,0.0,0.0,0.0,0.0,0.0,0.0,-2.2999,-2.2057,-2.2098,-2.212,-2.2184,-2.2184,-2.2067,-2.1805,-2.0236,-1.9483,-1.9369,-1.7369,0.0,-1.8629,-1.8506,0.0,0.0,0.0,0.0,0.0,0.0,0.0,0.0,0.0,0.0,0.0,0.0,0.0,0.0,0.0,0.0,0.0,0.0,0.0,0.0,0.0,0.0,-1.0799,-1.09,-1.088,-1.0732,0.0,-0.9937,-0.9354,-0.9571,-0.953,0.0,0.0,0.0,0.0,0.0,0.0,0.0,-0.8395,-1.0324,-1.1809,-1.183,-1.2067,-1.2237,-1.2257,-1.2372,-1.244,-1.244,-1.2406,-1.2203,-1.1789,-1.1619,0.0,0.0,0.0,0.0,0.0,0.0,0.0,0.0,0.0,0.0,0.0,0.0,0.0,0.0,0.0,0.0,0.0,0.0,0.0,0.0,0.0,0.0,0.0,0.0,0.0,0.0,0.0,0.0,0.0,-2.732,-2.6683,-2.6209,-2.6059,-2.545,0.0,0.0,0.0,0.0,0.0,0.0,0.0,0.0,0.0,-2.2012,-2.2384,-2.2373,-2.2031,-2.2271,-2.2418,-2.2472,-2.1446,-2.0959,-2.0891,-1.8959,-1.8067,-1.7988,-1.7059,-1.635,-1.5975,-1.6577,-1.6208,-1.5312,0.0,0.0,0.0,0.0,-1.4807,-1.4807,-1.4898,-1.4848,0.0,-1.3458,0.0,0.0,0.0,0.0,0.0,0.0,0.0,0.0,0.0,0.0,-1.0961,-1.1341,-1.0511,-0.9689,-0.9689,-0.8491,-0.7908,0.0,-1.0148,-0.9704,-0.8419,0.0,0.0,0.0,0.0,-0.8646,-0.8105,-1.0238,-1.1864,-1.1952,-1.2155,-1.2325,-1.2406,-1.2467,-1.2501,-1.2501,-1.2501,-1.2413,-1.2216,-1.1904,-1.1504,0.0,0.0,0.0,0.0,0.0,0.0,0.0,0.0,0.0,0.0,0.0,0.0,0.0,0.0,0.0,0.0,0.0,0.0,0.0,0.0,0.0,0.0,0.0,0.0,0.0,0.0,0.0,0.0,-2.6007,-2.514,-2.5432,-2.4765,-2.3926,0.0,0.0,0.0,0.0,0.0,0.0,-2.0717,-2.0895,-2.1243,-2.1764,-2.2138,-2.2472,-2.2766,-2.2979,-2.2879,-2.2311,-2.0892,-2.0005,-1.9377,-1.7409,-1.6532,-1.6474,-1.599,-1.4921,-1.3644,-1.4955,-1.5024,-1.4376,-1.4517,-1.4435,-1.4215,-1.4007,-1.3934,-1.4007,-1.4171,-1.4272,-1.4025,-1.2603,-1.2087,-1.1695,-1.0127,0.0,0.0,0.0,0.0,-1.0253,-1.0724,-1.0948,-1.1013,-1.0876,-0.9723,-0.8559,-0.8049,-0.6805,-0.6484,0.0,-0.9291,-0.8744,-0.7094,0.0,0.0,0.0,0.0,-0.7113,-0.6721,-0.8801,-1.0334,-1.0508,-1.0644,-1.0992,-1.1631,-1.1721,-1.1953,-1.2501,-1.2501,-1.2501,-1.2501,-1.2182,-1.1864,-1.1572,0.0,0.0,0.0,0.0,0.0,0.0,0.0,0.0,0.0,0.0,0.0,0.0,0.0,0.0,0.0,0.0,0.0,0.0,0.0,0.0,0.0,0.0,0.0,0.0,0.0,0.0,0.0,0.0,0.0,-2.2367,-2.3451,0.0,0.0,0.0,0.0,-2.0382,-2.059,-2.0765,-2.0668,-2.147,-2.2058,-2.2365,-2.2953,-2.3407,-2.3701,-2.3714,-2.2762,-2.0791,-2.0719,-1.9576,-1.7561,-1.5705,-1.4745,-1.4432,-1.2674,-1.1828,-1.1879,-1.3582,-1.312,-1.1413,-1.1413,-1.1406,-1.1386,-1.1165,-1.111,-1.1096,-1.0951,-1.0969,-1.0902,-1.0822,-1.0623,-1.039,-1.0306,-1.0141,0.0,0.0,-1.0466,-1.0758,-1.1063,-1.1253,-1.0979,-0.9253,-0.8776,-0.8194,-0.6315,-0.575,-0.5716,0.0,-0.6069,-0.5852,-0.5345,0.0,-0.4589,-0.2634,-0.3969,-0.4761,-0.3362,-0.5016,-0.6284,-0.6288,-0.6512,-0.7419,-0.9371,-0.9532,-1.0391,-1.2347,-1.2501,-1.2501,-1.2501,-1.2481,-1.2332,-1.2033,-1.1742,0.0,0.0,0.0,0.0,0.0,0.0,0.0,0.0,0.0,0.0,0.0,0.0,0.0,0.0,0.0,0.0,0.0,0.0,0.0,0.0,0.0,0.0,0.0,0.0,0.0,0.0,0.0,0.0,-2.2481,-2.2185,0.0,-2.0154,-2.0821,-2.1204,-2.0788,-2.1069,-2.1547,-2.2124,-2.2565,-2.2979,-2.3287,-2.219,-2.1687,-2.1785,-2.0538,-1.9514,-1.8789,-1.754,-1.6552,-1.5757,-1.3877,-1.2971,-1.2912,-1.2088,-1.1755,-1.1742,-1.2302,-1.2137,-1.145,-1.1348,-1.1307,-1.1294,-1.1138,-1.1029,-1.0873,-1.082,-1.0806,-1.0717,-1.0717,-1.0649,-1.0561,-1.0561,-0.9667,-0.8714,-0.8824,-0.8143,-0.7442,-0.7581,-0.7724,-0.7935,-0.8549,-0.7761,-0.6677,-0.5953,-0.4777,-0.3542,-0.2327,-0.4042,-0.5254,-0.3925,-0.3665,-0.3007,-0.1054,-0.2448,-0.3477,-0.2939,-0.4728,-0.5989,-0.5989,-0.621,-0.7111,-0.9216,-0.9376,-1.0308,-1.2347,-1.2501,-1.2501,-1.2501,-1.2501,-1.2413,-1.221,-1.2196,-1.185,0.0,0.0,0.0,0.0,0.0,0.0,0.0,0.0,0.0,0.0,0.0,0.0,0.0,0.0,0.0,0.0,0.0,0.0,0.0,0.0,0.0,0.0,0.0,0.0,0.0,0.0,-2.1435,-2.1942,-2.1224,-2.0601,-2.0401,-2.0655,-2.0989,-2.1376,-2.1683,-2.2191,-2.2979,-2.3313,-2.3607,-2.3915,-2.192,-2.093,-2.1012,-1.9022,-1.762,-1.6953,-1.569,-1.4695,-1.3976,-1.2728,-1.2108,-1.2054,-1.1952,-1.1911,-1.1904,-1.1809,-1.1735,-1.1674,-1.1525,-1.147,-1.145,-1.1294,-1.1179,-1.1084,-1.0914,-1.0779,-1.0717,-1.0717,-1.0717,-1.0717,-1.0717,-0.9437,-0.803,-0.803,-0.683,-0.5583,-0.5583,-0.5696,-0.6098,-0.7399,-0.6749,-0.5591,-0.4939,-0.4358,-0.3127,-0.051,-0.2024,-0.3359,-0.2119,-0.1886,-0.1474,-0.0217,-0.1115,-0.1901,-0.1901,-0.3149,-0.3944,-0.3944,-0.4128,-0.5318,-0.8128,-0.8329,-0.9485,-1.234,-1.2461,-1.2454,-1.2501,-1.2406,-1.2332,-1.2291,-1.2332,-1.2013,-1.1314,0.0,0.0,0.0,0.0,0.0,0.0,0.0,0.0,0.0,0.0,0.0,0.0,0.0,0.0,0.0,0.0,0.0,0.0,0.0,0.0,0.0,0.0,0.0,-2.232,-2.0928,-2.004,-2.0601,-2.0695,-2.0708,-2.0708,-2.0899,-2.1312,-2.1898,-2.2138,-2.2508,-2.3104,-2.3492,-2.3771,-2.3978,-2.2056,-2.1121,-2.144,-1.9403,-1.7436,-1.5387,-1.5387,-1.432,-1.2298,-1.2298,-1.2216,-1.2074,-1.2149,-1.2142,-1.2142,-1.206,-1.1972,-1.1823,-1.1681,-1.1619,-1.1599,-1.145,-1.1396,-1.1341,-1.0981,-1.0779,-1.0717,-1.0717,-1.0717,-1.0717,-1.0651,-0.9371,-0.7897,-0.7831,-0.6694,-0.5444,-0.5444,-0.5554,-0.5736,-0.5808,-0.5881,-0.5373,-0.3488,-0.4504,-0.4651,-0.0802,-0.0073,0.0,0.0,0.0,0.0,0.0,0.0,0.0,0.0,0.0,0.0,0.0,-0.0078,-0.1802,-0.5939,-0.6183,-0.794,-1.2256,-1.2379,-1.2366,-1.2501,-1.2237,-1.2162,-1.2311,-1.2155,-1.1932,-1.1647,0.0,0.0,0.0,0.0,0.0,0.0,0.0,0.0,0.0,0.0,0.0,0.0,0.0,0.0,0.0,0.0,0.0,0.0,0.0,0.0,0.0,0.0,-2.0557,-2.0561,-2.0516,-2.0494,-2.0655,-2.1119,-2.1373,-2.1373,-2.0383,-1.9899,-2.0364,-1.9448,-1.902,-1.9501,-1.9837,-2.0065,-2.0131,-1.818,-1.7076,-1.7208,-1.5157,-1.3868,-1.3337,-1.3337,-1.3014,-1.244,-1.244,-1.242,-1.2372,-1.2271,-1.223,-1.2216,-1.2108,-1.204,-1.1986,-1.183,-1.1708,-1.1613,-1.1572,-1.1416,-1.1199,-1.1009,-1.0779,-1.0717,-1.0717,-1.0717,-1.0452,-0.9172,-0.7498,-0.583,-0.4559,-0.2875,-0.154,-0.154,-0.2638,-0.4068,-0.5446,-0.6894,-0.7761,-0.7255,-0.6387,-0.5084,-0.2619,-0.0947,0.0,0.0,0.0,0.0,0.0,0.0,0.0,0.0,0.0,0.0,0.0,-0.1239,-0.3247,-0.6095,-0.7531,-0.9484,-1.2333,-1.2569,-1.2623,-1.2664,-1.2698,-1.2732,-1.2773,-1.2515,-1.2338,0.0,0.0,0.0,0.0,0.0,0.0,0.0,0.0,0.0,0.0,0.0,0.0,0.0,0.0,0.0,0.0,0.0,0.0,0.0,0.0,0.0,0.0,-2.0805,-2.0361,-2.0187,-2.0468,-2.0722,-2.0842,-2.1269,-2.1614,-2.1614,-2.017,-1.9527,-1.9971,-1.8521,-1.7832,-1.8275,-1.8501,-1.8572,-1.8572,-1.6599,-1.5463,-1.5463,-1.3491,-1.2501,-1.2501,-1.2501,-1.2501,-1.2501,-1.2501,-1.2501,-1.2494,-1.2413,-1.2379,-1.2372,-1.2284,-1.221,0.0,0.0,0.0,0.0,0.0,-1.1463,-1.124,-1.109,-1.0941,-1.0739,-1.0744,-1.0717,-1.0386,-0.8568,-0.733,-0.6084,-0.3451,-0.2004,-0.106,-0.0212,-0.0861,-0.2401,-0.5156,-0.6025,-0.6528,-0.7327,-0.6604,-0.5011,-0.2256,-0.1456,0.0,-0.0146,0.0,0.0,0.0,0.0,0.0,0.0,0.0,0.0,0.0,-0.1784,-0.3874,-0.6112,-0.8116,0.0,0.0,0.0,-1.2705,-1.2637,-1.2847,0.0,0.0,0.0,0.0,0.0,0.0,0.0,0.0,-1.2372,-1.2603,0.0,0.0,0.0,0.0,0.0,0.0,0.0,0.0,0.0,0.0,0.0,0.0,0.0,0.0,0.0,0.0,-2.0535,-2.0722,-2.0722,-2.0748,-2.0869,-2.1122,-2.143,-2.1681,-2.1708,-2.0191,-1.9392,-1.9954,-1.8187,-1.7314,-1.7871,0.0,0.0,0.0,0.0,-1.5157,-1.5157,-1.3414,-1.2501,-1.2501,-1.2501,-1.2501,-1.2501,-1.2501,-1.2501,-1.2501,-1.2501,-1.2501,-1.2501,-1.2501,-1.2259,-1.1947,-1.1575,-1.1457,-1.1444,-1.1306,-1.1161,-1.1087,-1.1163,0.0,0.0,-1.0545,-1.0425,-1.0073,-0.8051,-0.7511,-0.6906,-0.3356,-0.2447,-0.2211,-0.0429,-0.0144,-0.1166,-0.4649,-0.4358,-0.3705,-0.5446,-0.5663,-0.4431,-0.1021,-0.1529,-0.2037,-0.0292,0.0,0.0,0.0,0.0,0.0,0.0,0.0,0.0,0.0,0.0,0.0,-0.5786,-0.7804,-0.9885,-1.1865,-1.2226,-1.2437,-1.2657,-1.2915,-1.2996,-1.2861,-1.0975,-1.1234,-1.3478,-1.1349,-1.1343,-1.3437,-1.2888,-1.2915,0.0,0.0,0.0,0.0,0.0,0.0,0.0,0.0,0.0,0.0,0.0,0.0,0.0,0.0,0.0,-2.065,-2.0828,-2.1029,-2.1029,-2.1229,-2.1467,-2.1521,-2.1724,-2.1991,-2.2231,-1.9554,-1.7979,-1.8187,-1.5191,-1.3445,-1.363,-1.3645,-1.3645,-1.3645,-1.3259,-1.3112,-1.3112,-1.2656,-1.2501,-1.2501,0.0,0.0,-1.2501,-1.2501,-1.2501,-1.2501,-1.2501,-1.2501,-1.2501,-1.2501,-1.1401,-0.9796,-0.9557,-0.9465,-0.9449,-0.9329,-0.9204,-0.9312,-1.0856,-1.1246,-1.0904,-0.9285,-0.8796,-0.8105,-0.4771,-0.3759,0.0,-0.1167,-0.056,-0.05,-0.0072,-0.1154,-0.2545,-0.3272,-0.4358,-0.5373,-0.5736,-0.4576,-0.327,-0.2472,-0.1384,-0.0437,-0.0073,0.0,0.0,0.0,0.0,0.0,0.0,0.0,0.0,0.0,-0.1778,-0.3177,-0.3675,-0.5501,-0.6948,-0.7485,-0.9437,-1.144,-1.3489,-1.3641,-1.3654,-1.3627,-1.3167,-1.3265,-1.3939,-1.3298,-1.3239,-1.3749,-1.3519,-1.3471,0.0,0.0,0.0,0.0,0.0,0.0,0.0,0.0,0.0,0.0,0.0,-2.1357,0.0,0.0,-2.0895,-2.0895,-2.1136,-2.1336,-2.1336,-2.1577,-2.1775,-2.1641,-2.1937,-2.2258,-2.2405,-1.9424,-1.755,-1.7589,-1.4306,-1.2325,-1.2393,-1.2461,-1.2501,-1.2501,-1.2501,-1.2501,-1.2501,-1.2501,-1.2501,-1.2501,-1.2501,-1.2501,-1.2501,-1.2501,-1.2501,-1.2501,-1.2501,-1.2501,-1.2501,-1.2501,-1.1207,-0.9188,-0.8065,-0.7512,-0.7465,-0.8367,-0.8063,-0.7393,-0.9269,-0.9279,-0.8233,-0.72,-0.6875,-0.6344,-0.357,-0.3372,-0.3596,-0.0763,-0.0704,-0.1216,-0.0288,-0.0726,-0.1675,-0.2691,-0.2909,-0.3199,-0.4141,-0.2836,-0.1456,-0.1456,-0.0656,0.0,0.0,0.0,0.0,0.0,0.0,0.0,0.0,0.0,0.0,0.0,-0.1796,-0.3053,-0.313,-0.5003,-0.6315,-0.6465,-0.8666,-1.0503,-1.1706,-1.2875,-1.3505,-1.3505,-1.239,-1.2495,-1.3851,-1.2421,-1.239,-1.3729,-1.3505,-1.3485,0.0,0.0,0.0,0.0,0.0,0.0,0.0,0.0,-2.2941,-2.2374,-2.1435,-2.0762,-2.0762,-2.0949,-2.1122,-2.1189,-2.1403,-2.1641,-2.1695,-2.1884,-2.1977,-2.175,-2.2138,-2.2445,-2.2498,-1.9447,-1.75,-1.75,-1.425,-1.2291,-1.2291,-1.2427,-1.2501,-1.2501,-1.2501,-1.2501,-1.2501,-1.2501,-1.2501,-1.2501,-1.2501,-1.2501,-1.2501,-1.2501,-1.2501,-1.2501,-1.2501,-1.2501,-1.2501,-1.203,-1.0701,-0.8576,-0.6485,-0.5265,-0.4917,-0.6872,-0.6589,-0.5509,-0.7308,-0.6927,-0.556,-0.5066,-0.4905,-0.4544,-0.2764,-0.3257,-0.3913,-0.0844,-0.1132,-0.1996,-0.0434,0.0,-0.0362,-0.1957,-0.1161,-0.0436,-0.1964,-0.1093,0.0,0.0,0.0,0.0,0.0,0.0,0.0,0.0,0.0,0.0,0.0,0.0,0.0,0.0,-0.1503,-0.2533,-0.2508,-0.42,-0.5451,-0.6068,-0.8025,-0.9421,-0.985,-1.2081,-1.3214,-1.3214,-1.1411,-1.1521,-1.3587,-1.1411,-1.1405,-1.3532,-1.3288,-1.3322,-2.6793,-2.6549,0.0,-2.6208,-2.6441,-2.6244,0.0,0.0,-2.3354,-2.1622,-2.1155,-2.1069,-2.1069,-2.1082,-2.1189,-2.1521,-2.1601,-2.1708,-2.1897,-2.2191,-2.2352,-2.2325,-2.2378,-2.2525,-2.2792,-1.963,-1.75,-1.75,-1.425,-1.2291,-1.2291,-1.2427,-1.2501,-1.2501,-1.2501,-1.2501,-1.2501,-1.2501,-1.2501,-1.2501,-1.2501,-1.2501,-1.2501,-1.2501,-1.2501,-1.2501,-1.2501,-1.2501,-1.2347,-1.0546,-0.8517,-0.6403,-0.4319,-0.2303,-0.0917,-0.2804,-0.3419,-0.3488,-0.5436,-0.5942,-0.5496,-0.3712,-0.3199,-0.2839,-0.0912,-0.042,-0.0562,-0.0142,-0.0142,-0.0282,-0.0071,0.0,-0.0071,-0.0286,-0.0143,-0.0072,-0.0291,-0.0146,0.0,0.0,0.0,0.0,0.0,0.0,0.0,0.0,0.0,0.0,0.0,0.0,0.0,0.0,-0.0236,-0.0314,-0.0314,-0.0561,-0.1622,-0.3811,-0.5887,-0.8008,-1.0169,-1.2274,-1.3376,-1.3376,-1.3141,-1.3155,-1.3424,-1.3141,-1.3075,-1.322,-1.3186,-1.3261,-2.5579,0.0,0.0,0.0,-2.4057,-2.4036,-2.3083,-2.2958,-2.2748,-2.1649,-2.1363,-2.1309,-2.1149,-2.1109,-2.1149,0.0,-2.1577,-2.1844,-2.1964,-2.2392,-2.2672,-2.2672,-2.2672,-2.2726,-2.2914,-1.9517,-1.7319,-1.7319,-1.4098,-1.2155,-1.2155,-1.2379,-1.2501,-1.2501,-1.2501,-1.2501,-1.2501,-1.2501,-1.2501,-1.2501,-1.2501,-1.2501,-1.2501,-1.2501,-1.2501,-1.2501,-1.2501,-1.1798,-1.0624,-0.9765,-0.7472,-0.4333,-0.344,-0.1828,-0.0228,-0.2152,-0.2217,-0.1487,-0.3463,-0.3382,-0.2277,-0.1451,-0.1228,-0.108,-0.0212,0.0,0.0,0.0,0.0,0.0,0.0,0.0,0.0,0.0,0.0,0.0,0.0,0.0,0.0,0.0,0.0,0.0,0.0,0.0,0.0,0.0,0.0,0.0,0.0,0.0,0.0,0.0,0.0,0.0,0.0,0.0,-0.0956,-0.3178,-0.5263,-0.7449,-0.9657,-1.1745,-1.2874,-1.2874,-1.2874,-1.2922,-1.301,-1.2922,-1.2935,-1.3051,-1.2956,-1.2996,-2.345,0.0,0.0,-2.1355,-2.1574,-2.1839,-2.2032,-2.2271,-2.2271,-2.1842,-2.211,-2.2236,-2.1454,-2.1719,-2.1911,-2.1413,-2.1777,-2.2111,-2.2111,-2.2539,-2.2928,-2.2928,-2.2928,-2.2928,-2.2928,-1.9426,-1.7178,-1.7178,-1.4059,-1.2135,-1.2135,-1.2338,-1.2501,-1.2501,-1.2501,-1.2501,-1.2501,-1.2501,-1.2501,-1.2501,-1.2501,-1.2501,-1.2501,-1.2501,-1.2501,-1.2501,-1.2501,-1.1327,-0.9376,-0.9376,-0.6906,-0.3074,-0.3112,-0.1818,-0.0152,-0.1568,-0.1197,-0.0227,-0.1646,-0.1194,0.0,0.0,0.0,0.0,0.0,0.0,0.0,0.0,0.0,0.0,0.0,0.0,0.0,0.0,0.0,0.0,0.0,0.0,0.0,0.0,0.0,0.0,0.0,0.0,0.0,0.0,0.0,0.0,0.0,0.0,0.0,0.0,0.0,0.0,0.0,0.0,-0.0863,-0.2974,-0.5084,-0.7267,-0.9299,-1.1405,-1.2501,-1.2501,-1.2501,-1.2556,-1.2664,-1.2556,-1.2617,-1.2834,-1.2718,-1.3061,0.0,0.0,-1.9652,-1.9652,-1.992,-2.0533,-2.2054,-2.2405,-2.2338,-2.2031,-2.3312,-2.4013,-2.2279,-2.3363,-2.3933,-2.2279,-2.2205,-2.2405,-2.2405,-2.2672,-2.2928,-2.2928,-2.2928,-2.2928,0.0,-1.9426,-1.7178,-1.7178,-1.4059,-1.2135,-1.2135,-1.2338,-1.2501,-1.2501,-1.2501,-1.2501,-1.2501,-1.2501,-1.2501,-1.2501,-1.2501,-1.2501,-1.2501,-1.2501,-1.2501,-1.2501,-1.2501,-1.1327,-0.9376,-0.9376,-0.6906,-0.3074,-0.3112,-0.1827,0.0,-0.0075,-0.0075,0.0,-0.0076,-0.0076,0.0,0.0,0.0,0.0,0.0,0.0,0.0,0.0,0.0,0.0,0.0,0.0,0.0,0.0,0.0,0.0,0.0,0.0,0.0,0.0,0.0,0.0,0.0,0.0,0.0,0.0,0.0,0.0,0.0,0.0,0.0,0.0,0.0,0.0,0.0,0.0,-0.0863,-0.2974,-0.5084,-0.7267,-0.9299,-1.1405,-1.2501,-1.2501,-1.2501,-1.2501,-1.2508,-1.2501,-1.2508,-1.2515,-1.2508,-1.3664,0.0,0.0,-2.127,-2.171,-2.1876,-2.2065,-2.2589,-2.2712,-2.2957,-2.3894,-2.4709,-2.5368,-2.551,-2.5294,-2.4725,-2.365,-2.2711,-2.2124,-2.2124,-2.2378,-2.2645,-2.2846,-2.2928,0.0,0.0,0.0,0.0,-1.9147,-1.5812,-1.3846,-1.3956,-1.2925,-1.2406,-1.2501,-1.2501,-1.2501,-1.2501,-1.2501,-1.2501,-1.2501,-1.2501,-1.2501,-1.2501,-1.2501,-1.2501,-1.2424,-1.1011,-1.0075,-0.9211,-0.6354,-0.4376,-0.296,-0.1577,-0.06,0.0,0.0,0.0,0.0,0.0,0.0,0.0,0.0,0.0,0.0,0.0,0.0,0.0,0.0,0.0,0.0,0.0,0.0,0.0,0.0,0.0,0.0,0.0,0.0,0.0,0.0,0.0,0.0,0.0,0.0,0.0,0.0,0.0,0.0,0.0,0.0,0.0,0.0,0.0,0.0,0.0,0.0,-0.149,-0.5006,-0.5864,-0.7816,-1.1327,-1.2108,-1.2501,-1.2501,-1.2501,-1.319,-1.4475,-1.4475,-1.5242,-1.6523,-1.6523,-1.694,0.0,-2.1025,-2.1155,-2.1616,-2.1808,-2.2091,-2.2722,-2.2928,-2.3338,-2.4915,-2.5968,-2.6764,-2.7505,-2.6842,-2.5835,-2.4815,-2.3342,-2.2298,-2.2298,-2.2552,-2.2779,-2.2928,-2.2928,-2.2928,0.0,0.0,0.0,-1.9147,-1.632,-1.4407,-1.3788,-1.2839,-1.2332,-1.242,-1.2474,-1.2501,-1.2501,-1.2501,-1.2501,-1.2501,-1.2501,-1.2501,-1.2501,-1.2501,-1.2501,-1.2424,-1.1095,-0.9661,-0.8147,-0.6162,-0.4036,-0.1952,-0.1341,-0.0669,0.0,0.0,0.0,0.0,0.0,0.0,0.0,0.0,0.0,0.0,0.0,0.0,0.0,0.0,0.0,0.0,0.0,0.0,0.0,0.0,0.0,0.0,0.0,0.0,0.0,0.0,0.0,0.0,0.0,0.0,0.0,0.0,0.0,0.0,0.0,0.0,0.0,0.0,0.0,0.0,0.0,-0.062,-0.2476,-0.5945,-0.6868,-0.8794,-1.2192,-1.24,-1.2427,-1.2427,-1.3161,-1.4176,-1.5463,-1.6218,-1.7284,-1.8572,-1.8572,-1.9025,-1.9909,-1.9328,-1.9657,-1.9919,-2.0239,-2.0914,-2.2751,-2.3106,-2.3638,-2.545,-2.7121,-2.8378,0.0,0.0,-2.7296,-2.5783,-2.3989,-2.2792,-2.2792,-2.306,-2.3153,0.0,0.0,0.0,0.0,0.0,0.0,-1.7458,0.0,-1.3986,-1.2049,-1.2183,-1.2277,-1.2291,-1.242,-1.2494,-1.2501,-1.2501,-1.2501,-1.2501,-1.2501,-1.2501,-1.2501,-1.2494,-1.2488,-1.2488,-1.2404,-1.007,-0.6594,-0.835,-0.5519,-0.0372,-0.2224,-0.1706,0.0,0.0,0.0,0.0,0.0,0.0,0.0,0.0,0.0,0.0,0.0,0.0,0.0,0.0,0.0,0.0,0.0,0.0,0.0,0.0,0.0,0.0,0.0,0.0,0.0,0.0,0.0,0.0,0.0,0.0,0.0,0.0,0.0,0.0,0.0,0.0,0.0,0.0,0.0,0.0,0.0,-0.1815,-0.3773,-0.5876,-0.7836,-0.9869,-1.1986,-1.2203,-1.2353,-1.2429,-1.4449,-1.5591,-1.5735,-1.7776,-1.8758,-1.8844,-1.8844,-1.9972,-2.4579,-2.448,-2.4632,-2.4982,-2.5085,-2.5336,-2.6137,-2.633,-2.6919,-2.9014,-3.0027,-3.0799,0.0,0.0,0.0,-2.6503,-2.386,0.0,-2.1949,-2.2138,0.0,-2.2512,0.0,-2.2928,-2.2928,-2.2928,0.0,0.0,-1.6815,-1.5774,-1.4059,-1.2706,-1.2054,-1.2284,-1.2325,-1.2393,-1.2501,-1.2501,-1.2501,-1.2501,-1.2501,-1.2501,-1.2501,-1.2393,-1.2345,-1.2262,-1.0539,-0.9333,-0.8239,-0.5625,-0.365,-0.2224,-0.1176,-0.0442,0.0,0.0,0.0,0.0,0.0,0.0,0.0,0.0,0.0,0.0,0.0,0.0,0.0,0.0,0.0,0.0,0.0,0.0,0.0,0.0,0.0,0.0,0.0,0.0,0.0,0.0,0.0,0.0,0.0,0.0,0.0,0.0,0.0,0.0,0.0,0.0,0.0,0.0,0.0,0.0,0.0,-0.1814,-0.3773,-0.5876,-0.7836,-0.9869,-1.1986,-1.2101,-1.2781,-1.4175,-1.4803,-1.6453,-1.9398,-1.9921,-2.0953,-2.2441,-2.2441,-2.3425,-2.7315,-2.7748,-2.8374,-2.8561,-2.8216,-2.794,-2.8145,-2.754,-2.7507,-2.9564,-3.0131,0.0,0.0,0.0,0.0,0.0,0.0,0.0,-2.1911,-2.2191,-2.2378,0.0,-2.2686,0.0,-2.2928,-2.2928,-2.1308,0.0,-1.7178,-1.6037,-1.345,-1.2372,-1.1911,-1.2081,-1.2216,-1.2359,-1.2501,-1.2501,-1.2501,-1.2501,-1.2501,-1.2467,-1.2406,-1.2325,-1.225,-1.2107,0.0,-0.8556,-0.7538,-0.4307,-0.2513,-0.1618,-0.0439,0.0,0.0,0.0,0.0,0.0,0.0,0.0,0.0,0.0,0.0,0.0,0.0,0.0,0.0,0.0,0.0,0.0,0.0,0.0,0.0,0.0,0.0,0.0,0.0,0.0,0.0,0.0,0.0,0.0,0.0,0.0,0.0,0.0,0.0,0.0,0.0,0.0,0.0,0.0,0.0,-0.0359,-0.1169,-0.3068,-0.5058,-0.7035,-0.9045,-1.0963,-1.3021,-1.3162,-1.4147,-1.6022,-1.6981,-1.8487,-2.0682,-2.1642,-2.3073,-2.4932,-2.4932,-2.5889,-2.9463,-3.0237,-3.1405,-3.1405,-3.0656,-2.991,-2.9739,-2.8342,-2.7555,-2.8943,0.0,-2.9131,-2.901,-2.7634,-2.6177,-2.5065,0.0,-2.1964,-2.2205,-2.2539,-2.2645,-2.2392,-2.2659,-2.2928,-2.2928,-2.2928,-2.1308,-1.7458,-1.7178,-1.5566,-1.1835,-1.1735,-1.1809,-1.183,-1.2108,-1.2332,-1.2474,-1.2474,-1.2474,-1.2474,-1.2474,-1.24,-1.2257,-1.2237,-1.2155,-1.1952,-0.9973,-0.7965,-0.5826,-0.3842,-0.1838,0.0,0.0,0.0,0.0,0.0,0.0,0.0,0.0,0.0,0.0,0.0,0.0,0.0,0.0,0.0,0.0,0.0,0.0,0.0,0.0,0.0,0.0,0.0,0.0,0.0,0.0,0.0,0.0,0.0,0.0,0.0,0.0,0.0,0.0,0.0,0.0,0.0,0.0,0.0,0.0,0.0,-0.0202,-0.1019,-0.271,-0.4869,-0.6815,-0.8479,-1.0478,-1.243,-1.4327,-1.4576,-1.5678,-1.7816,-1.9674,-2.072,-2.1019,-2.3053,-2.4806,-2.63,-2.6493,-2.7598,-3.3836,-3.427,-3.4503,-3.4503,-3.4401,-3.399,-3.307,-3.236,0.0,0.0,0.0,-3.0135,-2.8773,-2.7177,-2.5627,-2.4111,0.0,0.0,0.0,0.0,-2.2111,0.0,0.0,0.0,0.0,0.0,0.0,0.0,-1.7178,-1.5566,-1.1835,-1.164,-1.1708,-1.183,-1.2006,-1.2176,-1.2325,-1.2325,-1.2325,-1.2325,-1.2325,-1.225,-1.2094,-1.1965,-1.1898,-1.1717,-0.968,0.0,-0.5683,-0.3718,-0.1751,0.0,0.0,0.0,0.0,0.0,0.0,0.0,0.0,0.0,0.0,0.0,0.0,0.0,0.0,0.0,0.0,0.0,0.0,0.0,0.0,0.0,0.0,0.0,0.0,0.0,0.0,0.0,0.0,0.0,0.0,0.0,0.0,0.0,0.0,0.0,0.0,0.0,0.0,0.0,0.0,0.0,-0.1268,-0.222,-0.2569,-0.5658,-0.7766,-0.8079,-1.0226,-1.2262,-1.4126,-1.4381,-1.6098,-1.9552,-2.0029,-2.0971,-2.2523,-2.4351,-2.5358,-2.5682,-2.7213,-2.8808,-3.6271,-3.6996,-3.7607,-3.7607,-3.6996,-3.5962,-3.4252,0.0,0.0,0.0,0.0,-2.9064,-2.7409,-2.6327,0.0,-2.3187,0.0,0.0,0.0,0.0,0.0,0.0,0.0,0.0,0.0,0.0,0.0,0.0,-1.7705,-1.5527,-1.1828,-1.1619,-1.1687,-1.1823,-1.1904,-1.1979,-1.2047,-1.2128,-1.2128,-1.2054,-1.2135,-1.2094,-1.1938,-1.1864,-1.1789,-1.1497,-0.8512,0.0,-0.5591,-0.2619,-0.0874,0.0,0.0,0.0,0.0,0.0,0.0,0.0,0.0,0.0,0.0,0.0,0.0,0.0,0.0,0.0,0.0,0.0,0.0,0.0,0.0,0.0,0.0,0.0,0.0,0.0,0.0,0.0,0.0,0.0,0.0,0.0,0.0,0.0,0.0,0.0,0.0,0.0,0.0,-0.0687,-0.1199,-0.1271,-0.2749,-0.4131,-0.5171,-0.6964,-0.8411,-0.9426,-1.1475,-1.3575,-1.5593,-1.6599,-1.8517,-2.1527,-2.2464,-2.3338,-2.4249,-2.6054,-2.737,-2.8279,-2.9131,-3.0946,-3.7902,-3.8792,-3.9697,-3.9697,-3.8844,-3.7244,-3.4592,-3.2726,0.0,0.0,-2.8086,-2.7549,-2.601,0.0,-2.4317,0.0,-2.1567,0.0,0.0,0.0,0.0,0.0,0.0,0.0,0.0,0.0,0.0,0.0,-1.7702,-1.4918,-1.1653,-1.1518,-1.1572,-1.1687,-1.1687,-1.1701,-1.1735,-1.1891,-1.1904,-1.1789,-1.1938,-1.1932,-1.1782,-1.1782,-1.1728,-1.1404,-0.791,0.0,0.0,-0.2039,-0.0365,0.0,0.0,0.0,0.0,0.0,0.0,0.0,0.0,0.0,0.0,0.0,0.0,0.0,0.0,0.0,0.0,0.0,0.0,0.0,0.0,0.0,0.0,0.0,0.0,0.0,0.0,0.0,0.0,0.0,0.0,0.0,0.0,0.0,0.0,0.0,0.0,0.0,0.0,-0.1617,-0.2811,-0.2968,-0.4386,-0.5986,-0.7519,-0.8103,-0.924,-1.1129,-1.2748,-1.4851,-1.7308,-1.9174,-2.1213,-2.3393,-2.5181,-2.6105,-2.6105,-2.79,-2.9474,-3.0836,-3.1524,-3.3281,-3.9129,-3.9594,-3.9697,-3.9697,-3.9594,-3.8521,-3.4854,0.0,0.0,-2.8481,-2.7402,-2.6762,-2.5485,-2.4244,0.0,0.0,0.0,-2.0815,0.0,0.0,0.0,0.0,0.0,0.0,0.0,0.0,0.0,-1.9448,-1.6079,-1.3231,-1.1344,-1.1275,-1.1212,-1.1226,-1.1295,-1.1294,-1.143,-1.1586,-1.1653,-1.164,-1.1782,-1.1775,-1.164,-1.164,-1.1633,-1.1476,-0.9357,0.0,0.0,-0.3488,-0.1602,0.0,0.0,0.0,0.0,0.0,0.0,0.0,0.0,0.0,0.0,0.0,0.0,0.0,0.0,0.0,0.0,0.0,0.0,0.0,0.0,0.0,0.0,0.0,0.0,0.0,0.0,0.0,0.0,0.0,0.0,0.0,0.0,0.0,0.0,0.0,0.0,0.0,0.0,-0.2625,-0.4485,-0.4491,-0.5911,-0.6985,-0.7125,-0.8805,-1.053,-1.2171,-1.2959,-1.496,-1.8684,-2.0905,-2.3049,-2.5248,-2.7039,-2.7966,-2.7966,-2.9735,-3.0642,-3.09,-3.3908,-3.5499,-3.9442,-3.9697,-3.9697,-3.9697,-3.9697,-3.8555,-3.4198,0.0,-3.1788,-2.7752,-2.6758,-2.6478,-2.6002,-2.5091,-2.4094,0.0,0.0,0.0,-2.1168,0.0,0.0,0.0,0.0,0.0,0.0,0.0,-2.129,-1.9208,-1.6778,-1.4526,-1.2559,-1.1672,-1.1234,-1.1234,-1.1234,-1.1151,-1.1124,-1.1274,-1.1301,-1.115,-1.1457,-1.1538,-1.1484,-1.1579,-1.1619,-1.1476,-0.9574,0.0,0.0,-0.4213,-0.2461,-0.1654,-0.043,0.0,0.0,0.0,0.0,0.0,0.0,0.0,0.0,0.0,0.0,0.0,0.0,0.0,0.0,0.0,0.0,0.0,0.0,0.0,0.0,0.0,0.0,0.0,0.0,0.0,0.0,0.0,0.0,0.0,0.0,0.0,0.0,0.0,0.0,0.0,0.0,-0.2565,-0.4387,-0.4387,-0.6867,-0.8496,-0.8575,-1.0258,-1.1646,-1.2373,-1.461,-1.7185,-2.0068,-2.2286,-2.4455,-2.664,-2.8702,-2.9735,-2.98,-3.246,-3.3783,-3.3845,-3.6131,-3.8193,-3.9346,-3.9572,-3.9594,-3.9129,-3.8953,-3.7645,0.0,0.0,-3.0758,-2.6993,-2.6191,-2.6191,-2.6191,-2.5405,-2.4598,0.0,0.0,-2.2004,-2.1693,0.0,0.0,0.0,0.0,0.0,0.0,0.0,-2.1176,-1.9714,-1.7533,-1.5626,-1.4175,-1.2179,-1.1029,-1.1029,-1.1029,-1.0982,-1.0813,-1.1023,-1.105,-1.0887,-1.1206,-1.1348,-1.1396,-1.1504,-1.1579,-1.1548,-1.0155,0.0,0.0,-0.5123,-0.3371,-0.2623,-0.0779,0.0,0.0,0.0,0.0,0.0,0.0,0.0,0.0,0.0,0.0,0.0,0.0,0.0,0.0,0.0,0.0,0.0,0.0,0.0,0.0,0.0,0.0,0.0,0.0,0.0,0.0,0.0,0.0,0.0,0.0,0.0,0.0,0.0,0.0,0.0,0.0,-0.248,-0.4183,-0.4183,-0.7172,-0.9198,-0.9395,-1.1087,-1.2363,-1.2984,-1.626,-1.9231,-2.1527,-2.4052,-2.6321,-2.8246,-3.081,-3.2156,-3.2289,-3.5149,-3.6539,-3.6578,-3.8571,-4.1168,-3.8919,-3.927,-3.9362,-3.7902,-3.7178,-3.5746,0.0,0.0,-2.9128,-2.629,-2.5693,-2.5693,-2.5693,-2.4627,-2.4047,-2.504,0.0,0.0,-2.2748,0.0,0.0,0.0,0.0,0.0,0.0,0.0,-2.1109,-2.1046,-1.7859,0.0,-1.5848,-1.261,-1.0724,-1.0724,-1.0724,-1.0724,-1.0724,-1.0806,-1.088,-1.088,-1.1097,-1.1246,-1.1389,-1.1396,-1.1477,0.0,0.0,0.0,0.0,-0.6547,-0.4526,-0.2517,-0.0691,0.0,0.0,0.0,0.0,0.0,0.0,0.0,0.0,0.0,0.0,0.0,0.0,0.0,0.0,0.0,0.0,0.0,0.0,0.0,0.0,0.0,0.0,0.0,0.0,0.0,0.0,0.0,0.0,0.0,0.0,0.0,0.0,0.0,0.0,0.0,0.0,-0.2455,-0.4185,-0.4185,-0.6766,-0.8615,-0.8865,-1.0823,-1.2691,-1.4275,-1.7655,-2.0662,-2.299,-2.6465,-2.8925,-3.0176,-3.3475,-3.5365,-3.5745,-3.7363,-3.8164,-3.8283,-4.1282,-4.4219,-3.7613,-3.8115,-3.8116,-3.6362,-3.6105,-3.5156,-3.1033,0.0,-2.9128,-2.629,-2.5693,-2.5693,-2.5693,-2.5333,-2.5308,-2.5991,-2.4501,0.0,0.0,0.0,0.0,0.0,0.0,0.0,0.0,0.0,-2.1109,-2.1109,-1.7859,-1.5913,-1.5913,-1.261,-1.0717,-1.0717,-1.0717,-1.0717,-1.0717,-1.0765,-1.0792,-1.0792,-1.0941,-1.109,-1.124,-1.1341,-1.1416,0.0,0.0,0.0,0.0,-0.8283,-0.641,-0.4475,-0.2609,-0.1092,0.0,0.0,0.0,0.0,0.0,0.0,0.0,0.0,0.0,0.0,0.0,0.0,0.0,0.0,0.0,0.0,0.0,0.0,0.0,0.0,0.0,0.0,0.0,-0.0737,-0.1121,-0.0165,-0.0757,-0.1066,-0.0157,0.0,-0.0307,-0.1212,-0.136,-0.1712,-0.2615,-0.4293,-0.5422,-0.5422,-0.796,-0.9883,-1.0358,-1.2163,-1.4488,-1.7244,-1.9631,-2.236,-2.5445,-2.8155,-3.0606,-3.2674,-3.5371,-3.6963,-3.7445,-4.0046,-4.2326,-4.4327,-4.6234,-4.8019,-3.6656,-3.7287,-3.7196,-3.5179,-3.468,0.0,0.0,0.0,-2.8034,-2.6133,-2.5693,-2.5693,-2.5693,-2.583,-2.5944,-2.5865,-2.4794,0.0,0.0,0.0,0.0,0.0,0.0,0.0,0.0,-2.1109,-2.1109,-2.1109,-1.7859,0.0,-1.5913,-1.261,-1.0717,-1.0717,-1.0717,-1.0717,-1.0717,-1.0717,-1.0717,-1.0724,-1.0752,-1.0941,-1.1084,-1.1179,-1.1253,0.0,0.0,0.0,0.0,-0.9068,-0.7625,-0.6238,-0.3668,-0.2031,-0.0941,-0.0269,0.0,0.0,0.0,0.0,0.0,0.0,0.0,0.0,0.0,0.0,0.0,0.0,0.0,0.0,0.0,0.0,0.0,0.0,0.0,-0.0114,-0.0669,-0.143,-0.1897,-0.1587,-0.219,-0.2476,-0.1641,-0.1464,-0.1695,-0.2539,-0.262,-0.2912,-0.3824,-0.512,-0.5931,-0.5972,-0.8492,-1.0729,-1.214,-1.4266,-1.6332,-1.8424,-2.2,-2.509,-2.7345,-3.0133,-3.2448,-3.431,-3.6757,-3.8516,-3.9556,-4.278,-4.558,-4.7909,-4.9222,-5.0413,0.0,-3.6631,-3.6455,-3.4125,-3.2971,-3.1532,-2.8313,0.0,0.0,-2.5771,-2.5693,-2.5693,-2.5732,-2.6113,-2.6071,-2.5084,-2.4514,0.0,0.0,-2.174,0.0,0.0,0.0,0.0,0.0,-2.1122,-2.1109,-2.1109,0.0,0.0,-1.5913,-1.261,-1.0717,-1.0717,-1.0717,-1.0717,-1.0717,-1.0717,-1.0717,-1.0717,-1.0717,-1.0792,-1.0867,-1.0867,-1.1009,0.0,0.0,0.0,0.0,-0.9149,-0.8262,-0.7631,-0.4225,-0.2819,-0.2484,-0.0672,0.0,0.0,0.0,0.0,0.0,0.0,0.0,0.0,0.0,0.0,0.0,0.0,0.0,0.0,0.0,0.0,0.0,0.0,-0.0057,-0.0511,-0.1756,-0.2176,-0.2636,-0.3788,-0.4068,-0.4099,-0.4028,-0.3907,-0.3814,-0.3908,-0.3844,-0.382,-0.4037,-0.5174,-0.6046,-0.6255,-0.8598,-1.1266,-1.407,-1.6601,-1.8237,-1.8677,-2.4597,-2.8349,-2.8903,-3.2189,-3.4418,-3.5408,-3.8249,-4.0556,-4.2316,-4.5652,-4.801,-4.9475,-5.0478,-5.1729,-3.4248,0.0,-3.4579,-3.1632,-3.1099,-3.0466,0.0,-2.6543,0.0,0.0,0.0,0.0,0.0,-2.6328,-2.6378,-2.6245,0.0,-2.4188,-2.3566,0.0,0.0,0.0,0.0,0.0,0.0,-2.1243,-2.1109,0.0,0.0,-1.5913,-1.5913,-1.261,-1.0717,-1.0717,-1.0717,-1.0717,-1.0717,-1.0717,-1.0717,-1.0717,-1.0717,-1.0738,-1.0772,-1.0772,-1.0792,0.0,0.0,0.0,-1.0705,-1.0298,-0.9267,-0.7764,-0.5629,-0.389,-0.2484,-0.0672,0.0,0.0,0.0,0.0,0.0,0.0,0.0,0.0,0.0,0.0,0.0,0.0,0.0,0.0,0.0,0.0,0.0,0.0,-0.0781,-0.1593,-0.1935,-0.3593,-0.4834,-0.4163,-0.4851,-0.5199,-0.4171,-0.3907,-0.4152,-0.5174,-0.5231,-0.5506,-0.659,-0.7068,-0.7717,-0.881,-1.0436,-1.2522,-1.514,-1.6938,-1.9806,-2.418,-2.6773,-2.9128,-3.1373,-3.4039,-3.6466,-3.8573,-4.2971,-4.5962,-4.7477,-4.8276,-4.9833,-5.2017,-5.2303,-5.3507,-3.2582,-3.3199,-3.3256,-3.119,-3.037,-2.9422,-2.7202,0.0,0.0,0.0,0.0,0.0,0.0,0.0,0.0,0.0,-2.4424,0.0,0.0,0.0,0.0,0.0,0.0,0.0,0.0,0.0,0.0,0.0,0.0,-1.7076,-1.7076,-1.3774,-1.1894,-1.1894,-1.1115,-1.0717,-1.0717,-1.0717,-1.0717,-1.0717,-1.0649,-1.0616,-1.0616,-1.0548,-1.0521,0.0,0.0,0.0,-1.0616,-1.0616,-1.0056,-0.9039,-0.7298,-0.5496,-0.3689,-0.1881,-0.074,0.0,0.0,0.0,-0.0133,-0.0982,-0.0646,0.0,0.0,0.0,0.0,0.0,0.0,0.0,0.0,0.0,-0.0166,-0.0706,-0.1403,-0.2302,-0.3488,-0.4914,-0.596,-0.5847,-0.6426,-0.6681,-0.5972,-0.5694,-0.5787,-0.6505,-0.6438,-0.6575,-0.7389,-0.8128,-0.891,-0.9706,-1.1616,-1.3837,-1.6294,-1.9109,-2.2281,-2.5937,-2.8594,-3.1258,-3.3926,-3.6186,-3.8759,-4.1726,-4.5409,-4.8109,-4.9967,-5.0597,-5.185,-5.3699,-5.4179,-5.5052,-3.1273,-3.1736,-3.1991,-3.1113,-2.991,-2.8491,-2.712,0.0,0.0,0.0,0.0,0.0,0.0,-2.5543,0.0,0.0,0.0,0.0,-2.1609,0.0,0.0,0.0,0.0,0.0,0.0,0.0,0.0,0.0,0.0,-1.8372,-1.8116,-1.507,-1.3193,-1.2931,-1.1505,-1.0711,-1.0683,-1.0683,-1.0683,-1.0683,-1.0534,-1.0446,-1.0419,-1.0297,-1.0243,-1.0243,0.0,0.0,-1.046,-1.046,-1.0534,-1.0452,-0.8668,-0.7075,-0.5549,-0.3754,-0.2148,-0.0807,-0.0805,-0.0797,-0.0981,-0.2505,-0.196,-0.0683,-0.0664,-0.071,-0.07,-0.0641,-0.0342,0.0,0.0,0.0,-0.0318,-0.1502,-0.2037,-0.2936,-0.5313,-0.6053,-0.6658,-0.7766,-0.7988,-0.7982,-0.7961,-0.778,-0.759,-0.757,-0.7339,-0.7269,-0.7626,-0.8798,-0.9763,-1.0317,-1.2661,-1.5253,-1.7842,-2.1847,-2.5035,-2.6898,-3.0705,-3.4071,-3.6675,-3.8701,-4.1373,-4.4785,-4.7001,-4.9166,-5.1394,-5.2586,-5.3796,-5.5061,-5.5982,-5.663,-3.1679,-3.0931,-2.9707,-2.8503,-2.8269,-2.7883,-2.6241,0.0,0.0,0.0,0.0,0.0,0.0,-2.455,-2.3675,0.0,0.0,0.0,0.0,0.0,0.0,0.0,0.0,0.0,0.0,0.0,0.0,0.0,0.0,-1.7859,-1.6366,-1.4362,-1.261,-1.1174,-1.085,-1.0656,-1.0527,-1.0527,-1.0527,-1.0527,-1.0378,-1.0243,-1.0051,-1.0031,-1.0024,-1.0024,0.0,-1.0175,-1.031,-1.031,-1.0324,-1.0166,-0.8513,-0.7697,-0.7252,-0.5604,-0.4827,-0.4554,-0.4364,-0.424,-0.417,-0.4371,-0.4128,-0.3782,-0.3827,-0.3822,-0.3762,-0.3598,-0.1816,0.0,0.0,0.0,-0.0317,-0.1529,-0.2764,-0.4071,-0.55,-0.6798,-0.7766,-0.7945,-0.7988,-0.7948,-0.7868,-0.7706,-0.7556,-0.7428,-0.7366,-0.7748,-0.8849,-0.9461,-1.0631,-1.2841,-1.4499,-1.6807,-2.0276,-2.3241,-2.6974,-3.1772,-3.4213,-3.6871,-3.9879,-4.2385,-4.4889,-4.7407,-4.9938,-5.2151,-5.402,-5.4221,-5.5239,-5.707,-5.7217,-5.8562,-3.0514,-2.9245,-2.7743,-2.738,-2.7915,-2.8405,0.0,0.0,0.0,0.0,0.0,0.0,0.0,0.0,0.0,0.0,0.0,0.0,0.0,0.0,0.0,0.0,0.0,0.0,0.0,0.0,0.0,0.0,0.0,0.0,-1.8768,-1.6172,-1.4362,-1.3521,-1.1614,-1.0561,-1.0493,-1.0331,-1.0297,-1.0378,-1.0229,-1.012,-0.9984,-0.9903,-0.9862,-0.9862,0.0,-1.0012,-1.0154,-1.0154,-1.0209,-1.022,-0.9447,-0.8559,-0.7468,-0.5865,-0.5208,-0.5236,-0.617,-0.5657,-0.4813,-0.573,-0.5307,-0.4498,-0.4485,-0.4411,-0.4337,-0.4209,-0.3278,-0.2245,-0.2188,-0.2104,-0.2374,-0.358,-0.4445,-0.5282,-0.6506,-0.7368,-0.7916,-0.7916,-0.7855,-0.778,-0.7706,-0.7577,-0.7455,-0.7426,-0.7299,-0.7721,-0.9103,-1.0131,-1.1745,-1.4377,-1.6451,-1.9072,-2.2558,-2.6317,-3.0141,-3.4092,-3.729,-3.9711,-4.1141,-4.3814,-4.6109,-4.7851,-4.9936,-5.2285,-5.4924,-5.5363,-5.6575,-5.8448,-5.9144,-6.0366,-2.9183,-2.7841,-2.6641,-2.7051,0.0,0.0,0.0,0.0,0.0,0.0,0.0,0.0,0.0,0.0,0.0,0.0,0.0,0.0,0.0,0.0,0.0,0.0,0.0,0.0,0.0,0.0,0.0,0.0,0.0,0.0,-2.0526,-1.7988,-1.6152,-1.5261,-1.254,-1.0905,-1.0392,-1.0098,-1.0107,-1.0222,-1.0066,-0.9936,-0.993,-0.9876,-0.9822,-0.9822,-0.9822,-0.989,-0.9936,-0.9936,-1.0066,-1.0175,-1.0215,-0.9412,-0.8092,-0.6735,-0.6186,-0.6311,-0.7602,-0.7025,-0.589,-0.7148,-0.6685,-0.5499,-0.5468,-0.5389,-0.5256,-0.5197,-0.5164,-0.4986,-0.4226,-0.3907,-0.4085,-0.5332,-0.5656,-0.608,-0.7295,-0.7658,-0.776,-0.776,-0.7909,-0.8005,-0.7962,-0.8085,-0.8163,-0.817,-0.8042,-0.8472,-0.9947,-1.1444,-1.3409,-1.6004,-1.8816,-2.2187,-2.6322,-3.0848,-3.4533,-3.7064,-4.0386,-4.2401,-4.2672,-4.5041,-4.7038,-4.8498,-5.0241,-5.2646,-5.575,-5.6537,-5.7964,-5.9873,-6.1018,-6.2225,-2.8466,-2.765,-2.707,-2.7519,-2.709,0.0,-2.8066,-2.7695,0.0,-2.8125,0.0,0.0,0.0,0.0,0.0,0.0,0.0,0.0,0.0,0.0,0.0,0.0,0.0,0.0,0.0,0.0,0.0,0.0,0.0,0.0,-1.8768,-1.8436,-1.6786,-1.3384,-1.3046,-1.1996,-1.0017,-0.9997,-0.999,-1.0004,-0.991,-0.9836,-0.9836,-0.9829,-0.9822,-0.9822,-0.9822,-0.9829,-0.9836,-0.9836,-0.9842,-0.9869,-0.995,-1.0092,-1.0072,-0.9751,-0.963,-0.9585,-0.9506,-0.9301,-0.902,-0.9047,-0.8845,-0.8533,-0.8445,-0.8393,-0.8327,-0.8053,-0.8026,-0.7367,-0.47,-0.3917,-0.4085,-0.5332,-0.5596,-0.5951,-0.7139,-0.7509,-0.7617,-0.7617,-0.8481,-0.9154,-0.9026,-0.9885,-1.0524,-1.0405,-1.0446,-1.1018,-1.2357,-1.398,-1.5959,-1.8406,-2.1859,-2.659,-3.2847,-3.7308,-4.064,-4.2794,-4.3723,-4.4688,-4.5822,-4.7286,-4.886,-5.0655,-5.275,-5.4964,-5.7334,-5.8123,-5.9615,-6.1715,-6.2584,-6.4214,-2.8121,-2.7438,-2.7051,-2.7226,-2.7012,0.0,0.0,-2.74,-2.6361,-2.8284,0.0,0.0,0.0,0.0,0.0,0.0,0.0,0.0,0.0,0.0,0.0,0.0,0.0,0.0,0.0,0.0,0.0,0.0,0.0,0.0,-2.0132,-1.9088,-1.781,-1.6287,-1.5071,-1.3983,-1.2979,-1.189,-1.1355,-1.1355,-1.0329,-0.9822,-0.9822,-0.9822,-0.9822,-0.9822,-0.9822,-0.9822,-0.9822,-0.9822,-0.9822,-0.9829,-0.9883,-0.9944,-0.9985,-0.993,-0.9788,-0.9618,-0.9503,-0.9306,-0.9096,-0.9035,-0.892,-0.8784,-0.873,-0.8581,-0.8411,-0.8354,-0.8133,-0.7717,-0.6672,-0.6279,-0.6253,-0.6641,-0.6703,-0.706,-0.8231,-0.8496,-0.8718,-0.9449,-0.9885,-1.0086,-1.0045,-1.0387,-1.0663,-1.0626,-1.1219,-1.2172,-1.3623,-1.4939,-1.7116,-2.0655,-2.6255,-3.2014,-3.7552,-4.1139,-4.4197,-4.6809,-4.6393,-4.6487,-4.747,-4.8779,-5.0017,-5.1198,-5.3362,-5.5354,-5.7214,-5.8561,-6.0151,-6.1919,-6.3577,-6.5419,-2.7731,-2.7192,-2.709,0.0,0.0,0.0,-2.8311,-2.7037,-2.5823,-2.7634,0.0,0.0,0.0,0.0,0.0,0.0,0.0,0.0,0.0,0.0,0.0,0.0,0.0,0.0,0.0,0.0,0.0,0.0,0.0,0.0,0.0,-1.9916,-1.8845,-1.8069,-1.6691,-1.5584,-1.4761,-1.3532,-1.2928,-1.2928,-1.1856,-1.0778,-0.9822,-0.9822,-0.9822,-0.9822,-0.9822,-0.9822,-0.9822,-0.9822,-0.9822,-0.9822,-0.9822,-0.9795,-0.9747,-0.97,-0.9523,-0.9415,-0.9817,-0.9771,-0.9636,-1.0015,-0.9815,-0.9433,-0.9746,-0.9398,-0.8947,-0.9245,-0.9135,-0.8925,-0.8776,-0.8153,-0.7595,-0.7889,-0.7914,-0.8192,-0.9331,-0.9553,-0.982,-1.0573,-1.0935,-1.1123,-1.1123,-1.1712,-1.2225,-1.2225,-1.3109,-1.4281,-1.5597,-1.6834,-1.9529,-2.4574,-3.045,-3.583,-4.0332,-4.3369,-4.6154,-4.8793,-4.8805,-4.8952,-4.9575,-5.0695,-5.1501,-5.2018,-5.4259,-5.6014,-5.7301,-5.9204,-6.0955,-6.2513,-6.4781,-6.6595,-2.7329,-2.7012,-2.7226,0.0,0.0,0.0,-2.6367,-2.6455,-2.5884,0.0,0.0,0.0,0.0,0.0,0.0,0.0,0.0,0.0,0.0,0.0,0.0,0.0,0.0,0.0,0.0,0.0,0.0,0.0,0.0,0.0,0.0,-2.0842,-1.9843,-1.7994,-1.7599,-1.6504,-1.4669,-1.4599,-1.4599,-1.4599,-1.4599,-1.2928,-0.9822,-0.9822,-0.9822,-0.9822,-0.9822,-0.9822,-0.9822,-0.9822,-0.9822,-0.9822,-0.9822,-0.9734,-0.9591,-0.9435,-0.9337,-0.9405,-1.0682,-1.1101,-1.1293,-1.2418,-1.1928,-1.1063,-1.195,-1.1262,-1.038,-1.124,-1.1502,-1.1402,-1.0925,-0.912,-0.7731,-0.8841,-0.9013,-0.9235,-1.0356,-1.0605,-1.0605,-1.0605,-1.1552,-1.2322,-1.2322,-1.4225,-1.5737,-1.5737,-1.6642,-1.7705,-1.8734,-2.021,-2.3755,-3.0576,-3.4242,-3.765,-4.1112,-4.4041,-4.6561,-4.8572,-5.0924,-5.2243,-5.239,-5.3067,-5.3422,-5.3422,-5.5717,-5.7224,-5.7901,-6.0404,-6.2271,-6.366,-6.6225,-6.7862,-2.5963,-2.6543,-2.7182,-2.599,0.0,0.0,0.0,-2.2761,0.0,0.0,0.0,0.0,0.0,0.0,0.0,0.0,0.0,0.0,0.0,0.0,0.0,0.0,0.0,0.0,0.0,0.0,0.0,0.0,0.0,0.0,0.0,-2.0842,-2.035,-1.9559,-1.9215,-1.8741,-1.7994,-1.6856,-1.6315,-1.6256,-1.5133,-1.4123,-1.3108,-1.1976,-1.1495,-1.1434,-1.0301,-0.9822,-0.9822,-0.9822,-0.9822,-0.9808,-0.9713,-0.9585,-0.9429,-0.9337,-0.9792,-1.0579,-1.0962,-1.1612,-1.2331,-1.2687,-1.2356,-1.1878,-1.2104,-1.1815,-1.1394,-1.1487,-1.1438,-1.1267,-1.0885,-1.021,-0.9754,-1.0051,-0.9986,-1.0169,-1.1519,-1.1632,-1.1817,-1.2875,-1.3944,-1.4685,-1.4685,-1.5887,-1.6846,-1.6846,-1.8329,-2.0352,-2.2732,-2.5311,-2.8398,-3.2151,-3.5532,-3.899,-4.259,-4.466,-4.6914,-4.9641,-5.127,-5.248,-5.3234,-5.4291,-5.4897,-5.4897,-5.7062,-5.8256,-5.8464,-6.0437,-6.2213,-6.3772,-6.5761,-6.7121,-2.6971,-2.7669,0.0,-2.7339,-2.6599,-2.5386,-2.2478,0.0,0.0,0.0,0.0,0.0,0.0,0.0,0.0,0.0,0.0,0.0,0.0,0.0,0.0,0.0,0.0,0.0,0.0,0.0,0.0,0.0,0.0,0.0,0.0,-2.0655,-2.0361,-2.0067,-1.9773,-1.9546,-1.943,-1.846,-1.7923,-1.7923,-1.6973,-1.6503,-1.6444,-1.4183,-1.3168,-1.3048,-1.1434,-1.0778,-1.0717,-1.0058,-0.9788,-0.9787,-1.0287,-1.0339,-1.0239,-1.0698,-1.1372,-1.2064,-1.2465,-1.3095,-1.3739,-1.4071,-1.3768,-1.3268,-1.3527,-1.3176,-1.2699,-1.2832,-1.2746,-1.2652,-1.2909,-1.2916,-1.2576,-1.1411,-1.1005,-1.1358,-1.3096,-1.3378,-1.3667,-1.5114,-1.5876,-1.6355,-1.6355,-1.7543,-1.8528,-1.8528,-2.0946,-2.3627,-2.6004,-2.8538,-3.1247,-3.4123,-3.6859,-3.9884,-4.3269,-4.5071,-4.7002,-4.9444,-5.123,-5.2693,-5.3709,-5.5048,-5.5772,-5.5772,-5.7702,-5.8714,-5.8767,-6.0867,-6.2426,-6.3434,-6.5143,-6.6395,-2.8961,-2.9411,-2.9707,-3.0373,-2.7539,0.0,-2.1652,-2.1109,0.0,0.0,0.0,0.0,0.0,0.0,0.0,0.0,0.0,0.0,0.0,0.0,0.0,0.0,0.0,0.0,0.0,0.0,0.0,0.0,0.0,0.0,0.0,-2.0401,-2.0094,-1.9813,-1.9519,-1.943,-1.943,-1.943,-1.943,-1.943,-1.943,-1.943,-1.9301,-1.6208,-1.4718,-1.454,-1.3048,-1.2397,-1.2337,-1.0838,-1.0155,-1.0132,-1.1459,-1.1808,-1.1651,-1.2969,-1.3481,-1.358,-1.4646,-1.5064,-1.5255,-1.6064,-1.5705,-1.5032,-1.5634,-1.5035,-1.4291,-1.5014,-1.498,-1.5012,-1.6191,-1.6502,-1.5757,-1.3045,-1.2424,-1.2959,-1.5047,-1.5473,-1.583,-1.7066,-1.7374,-1.7496,-1.7577,-1.924,-2.0622,-2.0909,-2.4188,-2.717,-2.865,-3.0514,-3.2924,-3.6183,-3.8194,-4.0456,-4.346,-4.5218,-4.6866,-4.8404,-5.0888,-5.2809,-5.3945,-5.5435,-5.6232,-5.6232,-5.7907,-5.8819,-5.8941,-6.1476,-6.2722,-6.2875,-6.4473,-6.5647,-2.6734,-2.7793,0.0,0.0,-2.5872,-2.3333,-2.151,-2.1109,0.0,0.0,0.0,0.0,0.0,0.0,0.0,0.0,0.0,0.0,0.0,0.0,0.0,0.0,0.0,0.0,0.0,0.0,0.0,0.0,0.0,0.0,-2.0695,-2.0401,-2.0094,-1.9813,-1.9519,-1.943,-1.943,-1.943,-1.943,0.0,-1.943,-1.943,-1.9314,-1.7384,-1.5784,-1.4599,-1.4242,-1.4063,-1.4063,-1.3706,-1.3405,-1.3131,-1.3385,-1.3276,-1.3024,-1.3242,-1.3891,-1.4687,-1.4902,-1.5452,-1.6077,-1.6481,-1.6351,-1.5983,-1.6171,-1.5972,-1.5936,-1.6567,-1.6652,-1.6847,-1.7841,-1.7865,-1.743,-1.6528,-1.6296,-1.6393,-1.6774,-1.6709,-1.669,-1.7187,-1.802,-1.8859,-1.9633,-2.0796,-2.2403,-2.4685,-2.7334,-2.9444,-3.0573,-3.2944,-3.5257,-3.7229,-3.9297,-4.1397,-4.3505,-4.4714,-4.6251,-4.837,-5.0309,-5.2188,-5.3945,-5.5621,-5.6514,-5.6514,-5.8193,-5.9095,-5.9138,-6.1013,-6.2302,-6.2966,-6.402,-6.4606,-2.7915,0.0,0.0,-2.7958,0.0,-2.4286,-2.2654,-2.1664,0.0,0.0,0.0,0.0,0.0,0.0,0.0,0.0,0.0,0.0,0.0,0.0,0.0,0.0,0.0,0.0,0.0,0.0,0.0,0.0,0.0,-2.0922,-2.0481,-2.0321,-2.004,-1.9599,-1.9452,-1.943,-1.943,-1.943,-1.943,-1.943,-1.943,-1.943,-1.9372,-1.8519,-1.7689,-1.6868,-1.6079,-1.5725,-1.5666,-1.4896,-1.4348,-1.4083,-1.471,-1.4733,-1.4516,-1.5148,-1.5628,-1.602,-1.5883,-1.6111,-1.6486,-1.6486,-1.6486,-1.646,-1.6313,-1.6601,-1.6999,-1.7174,-1.7534,-1.8145,-1.9367,-1.9391,-1.9252,-2.0086,-1.8709,-1.7349,-1.7785,-1.816,-1.8608,-1.9401,-2.043,-2.1314,-2.1786,-2.3106,-2.5118,-2.8243,-2.974,-3.1093,-3.2681,-3.4667,-3.6626,-3.8413,-4.0473,-4.2359,-4.3999,-4.4925,-4.6321,-4.8374,-5.0197,-5.2028,-5.3906,-5.5664,-5.6601,-5.6601,-5.832,-5.9219,-5.9219,-6.0898,-6.1914,-6.2383,-6.2851,-6.3281,-3.0151,-3.0261,-2.969,-2.8641,-2.7194,0.0,-2.3993,0.0,0.0,0.0,0.0,0.0,0.0,0.0,0.0,0.0,0.0,0.0,0.0,0.0,0.0,0.0,0.0,0.0,0.0,0.0,0.0,0.0,0.0,-2.0802,-2.0207,-2.0187,-1.992,-1.9444,-1.943,-1.943,-1.943,-1.943,-1.943,-1.943,-1.943,-1.943,-1.943,-1.943,-1.943,-1.9314,-1.7981,-1.7384,-1.7325,-1.5917,-1.5119,-1.4837,-1.5983,-1.6174,-1.5902,-1.7147,-1.7368,-1.7085,-1.6794,-1.6823,-1.6941,-1.6785,-1.6993,-1.7343,-1.7093,-1.7552,-1.8056,-1.7932,-1.8467,-1.941,-2.0916,-2.1028,-2.118,-2.2879,-2.0604,-1.8282,-1.9164,-2.0017,-2.0941,-2.2045,-2.3209,-2.4026,-2.4184,-2.5748,-2.7975,-3.0895,-3.1558,-3.2474,-3.4667,-3.6118,-3.7711,-3.9802,-4.1646,-4.323,-4.4562,-4.5367,-4.6562,-4.8383,-5.0277,-5.209,-5.3945,-5.5664,-5.6601,-5.6601,-5.832,-5.9219,-5.9219,-6.0898,-6.1719,-6.1719,-6.1719,-6.2109,-3.0646,0.0,-3.0747,0.0,-2.7194,-2.5558,0.0,0.0,0.0,0.0,0.0,0.0,0.0,0.0,0.0,0.0,0.0,0.0,0.0,0.0,0.0,0.0,0.0,0.0,0.0,0.0,0.0,0.0,-2.0869,-2.0588,-2.0193,-2.0,-1.9706,-1.943,-1.943,-1.943,-1.943,-1.943,-1.943,-1.943,-1.943,-1.943,-1.943,-1.943,-1.943,-1.9372,-1.9185,-1.9068,-1.9042,-1.8563,-1.8151,-1.7896,-1.776,-1.7554,-1.7305,-1.7529,-1.7235,-1.6754,-1.6727,-1.7316,-1.8123,-1.8311,-1.9133,-2.0087,-2.0039,-1.9812,-1.9783,-2.0557,-2.0864,-2.1246,-2.2484,-2.2866,-2.2959,-2.3241,-2.2934,-2.2657,-2.2805,-2.2915,-2.3106,-2.3246,-2.472,-2.6161,-2.6837,-2.8516,-3.0092,-3.1157,-3.2447,-3.4032,-3.6057,-3.7394,-3.9109,-4.1497,-4.264,-4.3718,-4.4924,-4.5492,-4.6562,-4.8383,-5.0277,-5.209,-5.3945,-5.5664,-5.6601,-5.6601,-5.832,-5.9219,-5.9219,-6.0898,-6.1719,-6.1719,-6.1719,-6.1758,-3.1458,-3.1614,-3.1559,0.0,-2.8917,-2.6893,-2.5314,0.0,0.0,0.0,0.0,0.0,0.0,0.0,0.0,0.0,0.0,0.0,0.0,0.0,0.0,0.0,0.0,0.0,0.0,0.0,0.0,0.0,-2.0842,-2.0548,-2.0254,-1.996,-1.9666,-1.943,-1.943,-1.943,-1.943,-1.943,-1.943,-1.943,-1.943,-1.943,-1.943,-1.943,-1.943,-1.943,-1.943,-1.943,-1.9345,-1.9052,-1.8758,-1.8464,-1.8102,-1.7862,-1.7582,-1.7582,-1.7657,-1.7733,-1.7733,-1.8551,-1.9606,-1.9701,-2.0136,-2.0618,-2.0618,-2.0644,-2.0765,-2.1159,-2.1791,-2.2448,-2.295,-2.3444,-2.3923,-2.4468,-2.4793,-2.5216,-2.6131,-2.5366,-2.4816,-2.5812,-2.67,-2.7648,-2.8868,-3.0063,-3.1274,-3.242,-3.4122,-3.5746,-3.7009,-3.8894,-4.0618,-4.1956,-4.3263,-4.4332,-4.516,-4.5606,-4.6834,-4.9208,-5.06,-5.2379,-5.4648,-5.5937,-5.6601,-5.6601,-5.7812,-5.8711,-5.9219,-6.039,-6.1211,-6.1719,-6.1719,-6.1719,0.0,0.0,-3.2504,-3.249,-3.0525,-2.8183,0.0,0.0,0.0,0.0,0.0,0.0,0.0,0.0,0.0,0.0,0.0,0.0,0.0,0.0,0.0,0.0,0.0,0.0,0.0,0.0,0.0,0.0,-2.0775,-2.0652,-2.0772,-2.0059,-1.9938,-2.05,-2.0141,-2.0155,-2.0486,-2.0544,-2.0544,-2.0486,-2.0155,-1.9982,-1.9982,-1.9982,-1.9982,-1.9924,-1.9533,-1.943,-1.939,-1.8971,-1.8901,-1.8988,-1.8549,-1.8512,-1.8655,-1.8655,-1.8818,-1.9048,-1.9124,-2.0022,-2.1114,-2.1264,-2.1422,-2.1622,-2.189,-2.2098,-2.2233,-2.2547,-2.3284,-2.3973,-2.3973,-2.4451,-2.5194,-2.5955,-2.642,-2.6969,-2.7901,-2.6994,-2.6504,-2.8249,-2.8581,-2.9137,-3.0837,-3.1709,-3.2636,-3.4147,-3.5785,-3.7273,-3.8447,-4.0374,-4.1918,-4.2665,-4.3952,-4.4963,-4.5406,-4.6169,-4.7596,-4.9879,-5.1284,-5.3047,-5.5195,-5.6133,-5.6601,-5.6601,-5.7226,-5.8125,-5.9219,-6.0,-6.0859,-6.1719,-6.1719,-6.1719,0.0,-3.333,0.0,-3.3399,-3.1211,0.0,0.0,0.0,0.0,0.0,0.0,0.0,0.0,0.0,0.0,0.0,0.0,0.0,0.0,0.0,0.0,0.0,0.0,0.0,0.0,0.0,0.0,0.0,-2.0575,-2.0846,-2.2304,-2.0503,-2.073,-2.3487,-2.2209,-2.2153,-2.3543,-2.3543,-2.3543,-2.3543,-2.2138,-2.1472,-2.1472,-2.1472,-2.1472,-2.1415,-2.004,-1.943,-1.9319,-1.8744,-1.925,-2.0338,-1.9754,-2.0297,-2.1491,-2.1491,-2.1048,-2.0571,-2.09,-2.1693,-2.2564,-2.2991,-2.3644,-2.4394,-2.5472,-2.5259,-2.483,-2.5922,-2.6254,-2.6318,-2.6318,-2.6749,-2.7234,-2.7521,-2.7991,-2.8153,-2.7254,-2.7492,-2.8309,-2.9863,-3.0171,-3.0882,-3.305,-3.4037,-3.4943,-3.6249,-3.7146,-3.8513,-4.0989,-4.1773,-4.268,-4.4304,-4.493,-4.5415,-4.575,-4.7478,-4.8979,-4.992,-5.2416,-5.4297,-5.5273,-5.6133,-5.6601,-5.6601,-5.664,-5.75,-5.9219,-6.0,-6.0859,-6.1719,-6.1719,-6.1719,0.0,0.0,0.0,-3.5426,-3.3948,0.0,0.0,0.0,0.0,0.0,0.0,0.0,0.0,0.0,0.0,0.0,0.0,0.0,0.0,0.0,0.0,0.0,0.0,0.0,0.0,0.0,0.0,0.0,0.0,-2.1202,-2.3541,-2.184,-2.1699,-2.371,-2.3263,-2.3263,-2.3766,-2.3822,-2.3822,-2.3766,-2.3263,-2.2983,-2.2983,-2.2983,-2.2983,-2.2983,-2.2435,-2.2086,-2.18,-2.134,-2.1339,-2.146,-2.1087,-2.1237,-2.1693,-2.1693,-2.1741,-2.18,-2.1939,-2.276,-2.3905,-2.4901,-2.5366,-2.5698,-2.6885,-2.6605,-2.5964,-2.64,-2.6524,-2.6625,-2.7227,-2.8044,-2.8888,-2.9699,-3.0363,-3.0529,-2.9527,-2.907,-2.9418,-3.1384,-3.2134,-3.316,-3.5237,-3.6166,-3.6894,-3.7703,-3.9154,-4.0542,-4.1719,-4.2705,-4.3755,-4.493,-4.5208,-4.5479,-4.5944,-4.7666,-4.9348,-5.0814,-5.2851,-5.4648,-5.6094,-5.6445,-5.6601,-5.6601,-5.6601,-5.7461,-5.9219,-5.9492,-6.0351,-6.1719,-6.1719,-6.1719,-3.6476,0.0,0.0,0.0,0.0,0.0,0.0,0.0,0.0,0.0,0.0,0.0,0.0,0.0,0.0,0.0,0.0,0.0,0.0,0.0,0.0,0.0,0.0,0.0,0.0,0.0,0.0,0.0,0.0,0.0,-2.4895,-2.3344,-2.3039,-2.4544,-2.5041,-2.5333,-2.5333,-2.5211,-2.5086,-2.5086,-2.4456,-2.4115,-2.4115,-2.4306,-2.4357,-2.4357,-2.5044,-2.4504,-2.3152,-2.2844,-2.2745,-2.274,-2.2469,-2.2667,-2.3018,-2.3018,-2.3032,-2.3158,-2.389,-2.4516,-2.5305,-2.6846,-2.7054,-2.693,-2.8091,-2.7794,-2.7197,-2.79,-2.8076,-2.8227,-2.8971,-2.9585,-3.0228,-3.091,-3.1544,-3.181,-3.1321,-3.0799,-3.1026,-3.321,-3.3997,-3.5066,-3.7303,-3.8243,-3.8929,-3.96,-4.1048,-4.2281,-4.2854,-4.3801,-4.4613,-4.5216,-4.541,-4.5658,-4.6077,-4.8255,-5.0108,-5.1328,-5.3594,-5.539,-5.6562,-5.6601,-5.6601,-5.6601,-5.6601,-5.7305,-5.875,-5.9062,-5.9922,-6.1289,-6.1562,-6.1719,0.0,0.0,0.0,0.0,0.0,0.0,0.0,0.0,0.0,0.0,0.0,0.0,0.0,0.0,0.0,0.0,0.0,0.0,0.0,0.0,0.0,0.0,0.0,0.0,0.0,0.0,0.0,0.0,-2.4705,-2.4935,-2.6473,-2.4859,-2.4599,-2.6082,-2.7546,-2.8262,-2.8262,-2.7851,-2.7708,-2.7637,-2.5752,-2.4873,-2.4891,-2.527,-2.5432,-2.5593,-2.7481,-2.6422,-2.3353,-2.3004,-2.3357,-2.4104,-2.3877,-2.4609,-2.5791,-2.5771,-2.5271,-2.4829,-2.6936,-2.7108,-2.67,-2.8764,-2.8768,-2.82,-2.9357,-2.9022,-2.8639,-3.0681,-3.1241,-3.1293,-3.1568,-3.1396,-3.1159,-3.1159,-3.1448,-3.1842,-3.2431,-3.2681,-3.3323,-3.5272,-3.5684,-3.6565,-3.9221,-4.0284,-4.1069,-4.2016,-4.2777,-4.3553,-4.4495,-4.4896,-4.5156,-4.5308,-4.5679,-4.5963,-4.6087,-4.9369,-5.1406,-5.1406,-5.4687,-5.6601,-5.6601,-5.6601,-5.6601,-5.6601,-5.6601,-5.7031,-5.7851,-5.875,-5.9609,-6.043,-6.1289,-6.1719,-3.7045,0.0,0.0,0.0,0.0,0.0,0.0,0.0,0.0,0.0,0.0,0.0,0.0,0.0,0.0,0.0,0.0,0.0,0.0,0.0,0.0,0.0,0.0,0.0,0.0,0.0,0.0,0.0,-2.5148,-2.5341,-2.7701,-2.7352,-2.7144,-2.7232,-2.7674,-2.7695,-2.7363,-2.7246,-2.7187,-2.7187,-2.6641,-2.6582,-2.6869,-2.6678,-2.6926,-2.7481,-2.7752,-2.7643,-2.7204,-2.6224,-2.5584,-2.532,-2.6187,-2.6771,-2.7173,-2.8028,-2.8058,-2.7672,-2.825,-2.8297,-2.8344,-2.9813,-3.0027,-3.0,-3.1493,-3.1419,-3.1124,-3.1973,-3.22,-3.2305,-3.2625,-3.2746,-3.2846,-3.2846,-3.3307,-3.3803,-3.3974,-3.5178,-3.6385,-3.6939,-3.7805,-3.9156,-4.1431,-4.1995,-4.2448,-4.3347,-4.3642,-4.408,-4.4872,-4.5022,-4.5256,-4.5691,-4.5838,-4.5992,-4.6244,-4.9413,-5.1406,-5.1406,-5.4687,-5.6601,-5.6601,-5.6601,-5.6601,-5.6601,-5.6601,-5.6719,-5.6953,-5.8476,-5.9609,-6.043,-6.1289,-6.1719,0.0,0.0,0.0,0.0,0.0,0.0,0.0,0.0,0.0,0.0,0.0,0.0,0.0,0.0,0.0,0.0,0.0,0.0,0.0,0.0,0.0,0.0,0.0,0.0,0.0,-2.6033,-2.7283,-2.7827,-2.6678,-2.6646,-2.8194,-2.8301,-2.8105,-2.7728,-2.7728,-2.7461,-2.7012,-2.6836,-2.6758,-2.6758,-2.6562,-2.6621,-2.6855,-2.6797,-2.7416,-2.86,-2.8287,-2.8764,-2.959,-2.8634,-2.7841,-2.7295,-2.8049,-2.8355,-2.847,-2.9411,-2.9329,-2.8925,-2.9849,-2.989,-2.9875,-3.1712,-3.2105,-3.203,-3.3119,-3.3073,-3.2715,-3.2765,-3.2665,-3.2581,-3.2783,-3.2976,-3.3132,-3.3132,-3.388,-3.4616,-3.4616,-3.6081,-3.7641,-3.8313,-3.9478,-4.0896,-4.2722,-4.305,-4.33,-4.4132,-4.4247,-4.4508,-4.5222,-4.5293,-4.5462,-4.5803,-4.5891,-4.6144,-4.6708,-4.9608,-5.1562,-5.1914,-5.4883,-5.6601,-5.6601,-5.6601,-5.6601,-5.6601,-5.6601,-5.6797,-5.7148,-5.8164,-5.9258,-6.039,-6.0937,-6.1367,0.0,0.0,0.0,0.0,0.0,0.0,0.0,0.0,0.0,0.0,0.0,0.0,0.0,0.0,0.0,0.0,0.0,0.0,0.0,0.0,0.0,0.0,0.0,0.0,-2.5288,-2.7856,-2.9336,-2.8945,-2.8535,-2.8301,-2.8301,-2.8301,-2.8105,-2.7728,-2.7728,-2.7461,-2.7012,-2.6602,-2.6486,-2.6566,-2.6133,-2.5985,-2.619,-2.6576,-2.7618,-2.919,-2.9028,-2.9721,-3.0954,-3.0456,-2.989,-2.9396,-2.9533,-2.9579,-2.9692,-3.0374,-3.0057,-2.9574,-3.1537,-3.156,-3.118,-3.369,-3.4137,-3.3781,-3.431,-3.4103,-3.3688,-3.3331,-3.2922,-3.2617,-3.2616,-3.268,-3.2707,-3.2788,-3.3802,-3.4736,-3.4807,-3.613,-3.7761,-3.9242,-4.0594,-4.1887,-4.3262,-4.3515,-4.3742,-4.4506,-4.4612,-4.4849,-4.5494,-4.5594,-4.564,-4.5802,-4.5869,-4.6302,-4.7296,-4.9757,-5.1679,-5.2656,-5.5078,-5.6484,-5.6601,-5.6601,-5.6601,-5.6601,-5.6601,-5.6992,-5.7773,-5.7851,-5.875,-6.039,-6.039,-6.0859,0.0,0.0,0.0,0.0,0.0,0.0,0.0,0.0,0.0,0.0,0.0,0.0,0.0,0.0,0.0,0.0,0.0,0.0,0.0,0.0,0.0,0.0,0.0,0.0,0.0,-2.7453,-2.9004,-2.8926,-2.8535,-2.8301,-2.8301,-2.8301,-2.8105,-2.7728,-2.7728,-2.7461,-2.7012,-2.6602,-2.6913,-2.7834,-2.7427,-2.791,-2.9132,-2.8896,-2.9387,-3.037,-2.9925,-3.0505,-3.1691,-3.1574,-3.0675,-2.9487,-3.044,-3.0866,-3.1048,-3.2605,-3.2788,-3.2315,-3.2754,-3.2468,-3.2056,-3.2878,-3.3093,-3.3235,-3.4441,-3.4725,-3.4593,-3.4286,-3.3779,-3.3307,-3.329,-3.3337,-3.3547,-3.4071,-3.4807,-3.5521,-3.5972,-3.7175,-3.8353,-3.9049,-4.0252,-4.1672,-4.324,-4.3515,-4.3742,-4.4506,-4.4612,-4.4849,-4.5494,-4.5594,-4.564,-4.5802,-4.5809,-4.6255,-4.7292,-4.9187,-5.0963,-5.2617,-5.4492,-5.5859,-5.6562,-5.6601,-5.6601,-5.6601,-5.6601,-5.668,-5.6875,-5.7578,-5.875,-6.039,-6.039,-6.0859,0.0,0.0,0.0,-3.7872,0.0,0.0,0.0,0.0,0.0,0.0,0.0,0.0,0.0,0.0,0.0,0.0,0.0,0.0,0.0,0.0,0.0,0.0,0.0,0.0,0.0,-2.7623,-2.8828,-2.8633,-2.8418,-2.8301,-2.8301,-2.8953,-2.91,-2.8726,-2.9351,-2.9476,-2.8992,-2.8761,-2.8998,-2.9606,-2.9367,-2.9569,-3.0088,-3.0182,-3.0646,-3.139,-3.1136,-3.1734,-3.2889,-3.2621,-3.1974,-3.1335,-3.1909,-3.2152,-3.2332,-3.4056,-3.404,-3.324,-3.422,-3.3897,-3.312,-3.4066,-3.4341,-3.452,-3.5433,-3.5234,-3.4659,-3.4524,-3.4302,-3.4025,-3.3607,-3.4075,-3.4626,-3.461,-3.5098,-3.5756,-3.627,-3.7121,-3.8071,-3.8923,-4.0154,-4.1462,-4.269,-4.3204,-4.3742,-4.4506,-4.4612,-4.4849,-4.5494,-4.5594,-4.5637,-4.5704,-4.6109,-4.6777,-4.7777,-4.9526,-5.118,-5.2526,-5.4295,-5.5508,-5.5937,-5.6367,-5.6601,-5.6601,-5.6601,-5.6601,-5.6601,-5.7461,-5.8555,-5.9805,-5.9805,-6.0469,0.0,0.0,0.0,0.0,0.0,-3.9126,0.0,0.0,0.0,0.0,0.0,0.0,0.0,0.0,0.0,0.0,0.0,0.0,0.0,0.0,0.0,0.0,0.0,0.0,0.0,-2.7929,-2.8662,-2.8674,-2.8628,-2.8714,-2.9039,-3.012,-3.0551,-3.024,-3.1274,-3.1618,-3.1263,-3.115,-3.125,-3.149,-3.1399,-3.1244,-3.1089,-3.1503,-3.1996,-3.2464,-3.2464,-3.2955,-3.374,-3.3503,-3.3386,-3.3386,-3.3386,-3.3386,-3.359,-3.5184,-3.4926,-3.3953,-3.5561,-3.51,-3.4031,-3.5325,-3.5754,-3.5863,-3.6212,-3.5549,-3.4683,-3.4533,-3.4668,-3.4705,-3.4104,-3.492,-3.5762,-3.5181,-3.5425,-3.597,-3.6451,-3.6884,-3.7556,-3.8776,-4.0148,-4.1352,-4.2176,-4.3015,-4.3839,-4.4519,-4.4663,-4.4919,-4.5541,-4.5594,-4.5671,-4.5825,-4.6515,-4.7393,-4.8449,-4.9993,-5.1386,-5.2413,-5.3939,-5.4883,-5.5039,-5.5898,-5.6367,-5.6367,-5.6523,-5.6601,-5.6601,-5.7305,-5.8164,-5.9219,-5.9375,-6.0234,0.0,0.0,0.0,0.0,-3.8847,0.0,0.0,0.0,0.0,0.0,0.0,0.0,0.0,0.0,0.0,0.0,0.0,0.0,0.0,0.0,0.0,0.0,0.0,0.0,0.0,0.0,-2.8436,-2.9943,-2.9745,-3.0194,-3.1752,-3.1977,-3.2056,-3.2012,-3.2141,-3.2219,-3.2174,-3.1798,-3.2159,-3.322,-3.2842,-3.321,-3.4193,-3.4268,-3.4085,-3.372,-3.372,-3.3489,-3.3255,-3.4147,-3.4511,-3.4511,-3.4511,-3.4511,-3.4688,-3.632,-3.6455,-3.5894,-3.6132,-3.5388,-3.4416,-3.4925,-3.5312,-3.5535,-3.5606,-3.5519,-3.525,-3.4683,-3.4973,-3.5506,-3.5471,-3.6058,-3.6638,-3.6562,-3.6614,-3.6751,-3.7025,-3.7154,-3.7505,-3.8542,-3.9999,-4.1352,-4.2176,-4.3204,-4.4087,-4.4508,-4.4861,-4.5191,-4.5559,-4.5594,-4.5893,-4.6663,-4.6835,-4.7593,-4.9294,-4.9754,-5.07,-5.2372,-5.2806,-5.3359,-5.4101,-5.4961,-5.5469,-5.5469,-5.6211,-5.6601,-5.6601,-5.6719,-5.7578,-5.9219,-5.9922,-6.0781,0.0,0.0,0.0,0.0,0.0,0.0,-3.8435,0.0,-3.8212,0.0,0.0,0.0,0.0,0.0,0.0,0.0,0.0,0.0,0.0,0.0,0.0,0.0,0.0,0.0,0.0,0.0,0.0,0.0,0.0,-3.1168,-3.2258,-3.3055,-3.3502,-3.3502,-3.424,-3.4703,-3.4703,-3.4535,-3.4678,-3.5155,-3.4981,-3.5015,-3.5157,-3.5529,-3.5203,-3.4374,-3.4374,-3.44,-3.4503,-3.4643,-3.5061,-3.5614,-3.6239,-3.612,-3.5776,-3.745,-3.7545,-3.6908,-3.7777,-3.706,-3.5727,-3.539,-3.5403,-3.5519,-3.5519,-3.5519,-3.5527,-3.5673,-3.6287,-3.6867,-3.6891,-3.747,-3.7977,-3.7537,-3.732,-3.734,-3.7776,-3.7717,-3.7807,-3.8564,-3.9994,-4.1266,-4.1776,-4.3073,-4.4204,-4.4812,-4.5,-4.5222,-4.5559,-4.5594,-4.5932,-4.6817,-4.7317,-4.8123,-4.9384,-5.0051,-5.0803,-5.1632,-5.2327,-5.3086,-5.3945,-5.4336,-5.4765,-5.5273,-5.5664,-5.6094,-5.6601,-5.7109,-5.7734,-5.8476,-5.9297,-6.043,-4.1377,0.0,0.0,0.0,0.0,0.0,0.0,0.0,0.0,0.0,0.0,0.0,0.0,0.0,0.0,0.0,0.0,0.0,0.0,0.0,0.0,0.0,0.0,0.0,0.0,0.0,0.0,0.0,0.0,0.0,-3.3357,-3.441,-3.4921,-3.4921,-3.5906,-3.6405,-3.6405,-3.6405,-3.6405,-3.6405,-3.6405,-3.6157,-3.578,-3.6182,-3.6063,-3.5398,-3.52,-3.5452,-3.593,-3.5872,-3.6138,-3.6777,-3.8217,-3.8093,-3.7232,-3.8485,-3.8467,-3.7926,-3.8811,-3.8079,-3.6581,-3.5766,-3.5519,-3.5519,-3.5519,-3.5651,-3.5911,-3.6446,-3.7322,-3.8121,-3.8095,-3.8679,-3.9106,-3.8396,-3.8048,-3.8049,-3.8516,-3.8467,-3.8526,-3.9239,-4.0288,-4.1351,-4.2128,-4.3318,-4.4387,-4.5,-4.518,-4.5303,-4.5568,-4.5825,-4.6278,-4.7163,-4.7971,-4.8817,-4.9663,-5.0463,-5.0992,-5.1135,-5.1843,-5.2576,-5.3242,-5.3516,-5.3945,-5.457,-5.4805,-5.5351,-5.625,-5.6875,-5.7578,-5.8281,-5.914,-6.0078,0.0,0.0,0.0,-4.0239,0.0,0.0,0.0,0.0,-3.8362,0.0,0.0,0.0,0.0,0.0,0.0,0.0,0.0,0.0,0.0,0.0,0.0,0.0,0.0,0.0,0.0,0.0,0.0,0.0,0.0,0.0,-3.6141,-3.631,-3.6358,-3.6358,-3.6358,-3.6405,-3.6405,-3.6405,-3.6405,-3.6405,-3.6405,-3.6405,-3.638,-3.6405,-3.6703,-3.7184,-3.6542,-3.6603,-3.7232,-3.8268,-3.8313,-3.7996,-4.0372,-4.0472,-3.9301,-3.9367,-3.9367,-3.9241,-3.8626,-3.7584,-3.6384,-3.5729,-3.5519,-3.5519,-3.5519,-3.6006,-3.6569,-3.6569,-3.77,-3.8881,-3.8848,-3.9473,-3.9876,-3.914,-3.8962,-3.905,-3.9391,-3.9458,-3.9773,-4.0819,-4.1058,-4.1682,-4.3587,-4.428,-4.4714,-4.5033,-4.539,-4.5586,-4.5594,-4.6355,-4.7163,-4.7971,-4.8856,-4.9702,-5.0596,-5.0811,-5.0963,-5.1191,-5.1243,-5.1306,-5.1484,-5.2305,-5.2734,-5.2773,-5.3594,-5.4453,-5.5351,-5.5351,-5.668,-5.918,-6.0,-5.9961,0.0,0.0,-4.6519,-4.2946,0.0,0.0,0.0,0.0,0.0,0.0,0.0,0.0,0.0,0.0,0.0,0.0,0.0,0.0,0.0,0.0,0.0,0.0,0.0,0.0,0.0,0.0,0.0,0.0,0.0,0.0,0.0,-3.872,-3.872,-3.872,-3.872,-3.872,-3.872,-3.872,-3.872,-3.872,-3.872,-3.872,-3.872,-3.872,-3.8809,-3.8962,-3.7954,-3.7965,-3.8785,-3.8781,-3.9101,-3.9646,-4.0912,-4.1115,-4.0726,-4.0726,-4.0427,-3.9918,-3.8781,-3.7554,-3.6457,-3.6315,-3.6228,-3.6352,-3.6844,-3.7205,-3.7499,-3.7987,-3.8492,-3.9016,-3.9558,-3.9901,-4.0045,-3.9808,-3.9903,-4.0097,-4.02,-4.0393,-4.0668,-4.1046,-4.1552,-4.2421,-4.413,-4.496,-4.571,-4.6572,-4.7029,-4.724,-4.724,-4.7509,-4.8009,-4.8856,-4.9202,-4.974,-5.0635,-5.0811,-5.0945,-5.0981,-5.1144,-5.1213,-5.1268,-5.1638,-5.2109,-5.2695,-5.3008,-5.3867,-5.5312,-5.5312,-5.6055,-5.75,-5.8359,-5.918,-4.8117,-4.8626,0.0,-4.5214,-4.4485,0.0,-4.0846,0.0,0.0,0.0,0.0,0.0,0.0,0.0,0.0,0.0,0.0,0.0,0.0,0.0,0.0,0.0,0.0,0.0,0.0,0.0,0.0,0.0,0.0,0.0,0.0,0.0,-3.9913,-3.9913,-3.9913,-3.9913,-3.9913,-3.9913,-3.9913,-3.9913,-3.9913,-3.9913,-3.9913,-3.9913,-4.0102,-4.0434,-3.9438,-3.9589,-4.0548,-4.0217,-4.0338,-4.0846,-4.1713,-4.1803,-4.1354,-4.1115,-4.0678,-4.0036,-3.9225,-3.8256,-3.7307,-3.7093,-3.7024,-3.7114,-3.7648,-3.7962,-3.8274,-3.8772,-3.9129,-3.9454,-3.9952,-4.0254,-4.0427,-4.0392,-4.0699,-4.1088,-4.1309,-4.1538,-4.1752,-4.1922,-4.2139,-4.2938,-4.4941,-4.5577,-4.6266,-4.7521,-4.7933,-4.8086,-4.8086,-4.8355,-4.8779,-4.9356,-4.9663,-5.0087,-5.0635,-5.0773,-5.0851,-5.0882,-5.1019,-5.1144,-5.1201,-5.1273,-5.1911,-5.3125,-5.2539,-5.3242,-5.5312,-5.4687,-5.5156,-5.6601,-5.6875,-5.789]},{"header":{"parameterUnit":"m.s-1","parameterCategory":1,"la1":30.6,"la2":29.2853,"lo1":-89.7004,"lo2":-87.6739,"dx":0.0162,"dy":0.0183,"nx":112,"ny":82,"refTime":"2022-12-28T18:00:00:Z","depth":0,"parameterNumber":3,"parameterNumberName":"V-component_of_WINDS"},"data":[0.0,0.0,0.0,0.0,0.0,0.0,0.0,0.0,0.0,0.0,0.0,0.0,0.0,0.0,0.0,0.0,0.0,0.0,0.0,0.0,0.0,0.0,0.0,0.0,0.0,0.0,0.0,0.0,0.0,0.0,0.0,0.0,0.0,0.0,0.0,0.0,0.0,0.0,0.0,0.0,0.0,0.0,0.0,0.0,0.0,0.0,0.0,0.0,0.0,0.0,0.0,0.0,0.0,0.0,0.0,0.0,0.0,0.0,0.0,0.0,0.0,0.0,0.0,0.0,0.0,0.0,0.0,0.0,0.0,0.0,0.0,0.0,0.0,0.0,0.0,0.0,0.0,0.0,0.0,0.0,0.0,0.0,0.0,0.0,0.0,0.0,0.0,0.0,0.0,0.0,5.086,5.2482,5.5834,5.8373,5.9288,5.9528,5.8761,5.6816,0.0,0.0,0.0,0.0,0.0,0.0,0.0,0.0,0.0,0.0,0.0,0.0,0.0,0.0,0.0,0.0,0.0,0.0,0.0,0.0,0.0,0.0,0.0,0.0,0.0,0.0,0.0,0.0,0.0,0.0,0.0,0.0,0.0,0.0,0.0,0.0,0.0,0.0,0.0,0.0,0.0,0.0,0.0,0.0,0.0,0.0,0.0,0.0,0.0,0.0,0.0,0.0,0.0,0.0,0.0,0.0,0.0,0.0,0.0,0.0,0.0,0.0,0.0,0.0,0.0,0.0,0.0,0.0,0.0,0.0,0.0,0.0,0.0,0.0,0.0,0.0,0.0,0.0,0.0,0.0,0.0,0.0,0.0,0.0,0.0,0.0,0.0,0.0,0.0,0.0,0.0,0.0,0.0,0.0,0.0,0.0,0.0,0.0,0.0,0.0,0.0,0.0,0.0,0.0,5.0752,5.7559,5.9152,6.0332,6.191,6.1077,5.9907,5.8515,0.0,0.0,0.0,0.0,0.0,0.0,0.0,0.0,0.0,0.0,0.0,0.0,0.0,0.0,0.0,0.0,0.0,0.0,0.0,0.0,0.0,0.0,0.0,0.0,0.0,0.0,0.0,0.0,0.0,0.0,0.0,0.0,0.0,0.0,0.0,0.0,0.0,0.0,0.0,0.0,0.0,0.0,0.0,0.0,0.0,0.0,0.0,0.0,0.0,0.0,0.0,0.0,0.0,0.0,0.0,0.0,0.0,0.0,0.0,0.0,0.0,0.0,0.0,0.0,0.0,0.0,0.0,0.0,0.0,0.0,0.0,0.0,0.0,0.0,0.0,0.0,0.0,0.0,0.0,0.0,0.0,0.0,0.0,0.0,0.0,0.0,0.0,0.0,0.0,0.0,0.0,0.0,0.0,0.0,0.0,0.0,0.0,0.0,0.0,0.0,0.0,0.0,0.0,5.0279,5.3184,5.9511,6.0802,6.167,6.2897,6.2017,6.0798,5.9289,5.7618,0.0,0.0,0.0,0.0,0.0,0.0,0.0,0.0,0.0,0.0,0.0,0.0,0.0,0.0,0.0,0.0,0.0,0.0,0.0,0.0,0.0,0.0,0.0,0.0,0.0,0.0,0.0,0.0,0.0,0.0,0.0,0.0,0.0,0.0,0.0,0.0,0.0,0.0,0.0,0.0,0.0,0.0,0.0,0.0,0.0,0.0,0.0,0.0,0.0,0.0,0.0,0.0,0.0,0.0,0.0,0.0,0.0,0.0,0.0,0.0,0.0,0.0,0.0,0.0,0.0,0.0,0.0,0.0,0.0,0.0,0.0,0.0,0.0,0.0,0.0,0.0,0.0,0.0,0.0,0.0,0.0,0.0,0.0,0.0,0.0,0.0,0.0,0.0,0.0,0.0,0.0,0.0,0.0,0.0,0.0,0.0,0.0,0.0,0.0,0.0,0.0,0.0,5.3825,5.6497,6.0662,6.205,6.3012,6.3858,6.3166,6.186,5.9925,5.8212,0.0,0.0,0.0,0.0,0.0,0.0,0.0,0.0,0.0,0.0,0.0,0.0,0.0,0.0,0.0,0.0,0.0,0.0,0.0,0.0,0.0,0.0,0.0,0.0,0.0,0.0,0.0,0.0,0.0,0.0,0.0,0.0,0.0,0.0,0.0,0.0,0.0,0.0,0.0,0.0,0.0,0.0,0.0,0.0,0.0,0.0,0.0,0.0,0.0,0.0,0.0,0.0,0.0,0.0,0.0,0.0,0.0,0.0,0.0,0.0,0.0,0.0,0.0,0.0,0.0,0.0,0.0,0.0,0.0,0.0,0.0,0.0,0.0,0.0,0.0,0.0,0.0,0.0,0.0,0.0,0.0,0.0,0.0,0.0,0.0,0.0,0.0,0.0,0.0,0.0,0.0,0.0,0.0,0.0,0.0,0.0,0.0,0.0,0.0,0.0,0.0,0.0,5.542,6.0174,6.1851,6.3474,6.4782,6.5628,6.4936,6.3316,6.0774,5.9097,0.0,0.0,0.0,0.0,0.0,0.0,0.0,0.0,0.0,0.0,0.0,0.0,0.0,0.0,0.0,0.0,0.0,0.0,0.0,0.0,0.0,0.0,0.0,0.0,0.0,0.0,0.0,0.0,0.0,0.0,0.0,0.0,0.0,0.0,0.0,0.0,0.0,0.0,0.0,0.0,0.0,0.0,0.0,0.0,0.0,0.0,0.0,0.0,0.0,0.0,0.0,0.0,0.0,0.0,0.0,0.0,0.0,0.0,0.0,0.0,0.0,0.0,0.0,0.0,0.0,0.0,0.0,0.0,0.0,0.0,0.0,0.0,0.0,0.0,0.0,0.0,0.0,0.0,0.0,0.0,0.0,0.0,0.0,0.0,0.0,0.0,0.0,0.0,0.0,0.0,0.0,0.0,0.0,0.0,0.0,0.0,0.0,0.0,0.0,0.0,0.0,0.0,5.4986,5.9537,0.0,6.4397,6.5551,6.5859,6.5089,6.3589,6.1286,0.0,0.0,0.0,0.0,0.0,0.0,0.0,0.0,0.0,0.0,0.0,0.0,0.0,0.0,0.0,0.0,0.0,0.0,0.0,0.0,0.0,0.0,0.0,0.0,0.0,0.0,0.0,0.0,0.0,0.0,0.0,0.0,0.0,0.0,0.0,0.0,0.0,0.0,0.0,0.0,0.0,0.0,0.0,0.0,0.0,0.0,0.0,0.0,0.0,0.0,0.0,0.0,0.0,0.0,0.0,0.0,0.0,0.0,0.0,0.0,0.0,0.0,0.0,0.0,0.0,0.0,0.0,0.0,0.0,0.0,0.0,0.0,0.0,0.0,0.0,0.0,0.0,0.0,0.0,0.0,0.0,0.0,0.0,0.0,0.0,0.0,0.0,0.0,0.0,0.0,0.0,0.0,0.0,0.0,0.0,0.0,0.0,0.0,0.0,0.0,0.0,0.0,5.0358,5.5598,6.0119,0.0,6.4859,6.5897,6.5897,6.5359,6.3872,6.1177,0.0,0.0,0.0,0.0,0.0,0.0,0.0,0.0,0.0,0.0,0.0,0.0,0.0,0.0,0.0,0.0,0.0,0.0,0.0,0.0,0.0,0.0,0.0,0.0,0.0,0.0,0.0,0.0,0.0,0.0,0.0,0.0,0.0,0.0,0.0,0.0,0.0,0.0,0.0,0.0,0.0,0.0,0.0,0.0,0.0,0.0,0.0,0.0,0.0,0.0,0.0,0.0,0.0,0.0,0.0,0.0,0.0,0.0,0.0,0.0,0.0,0.0,0.0,0.0,0.0,0.0,0.0,0.0,0.0,0.0,0.0,0.0,0.0,0.0,0.0,0.0,0.0,0.0,0.0,0.0,0.0,0.0,0.0,0.0,0.0,0.0,0.0,0.0,0.0,0.0,0.0,0.0,0.0,0.0,0.0,0.0,0.0,0.0,0.0,0.0,0.0,0.0,5.0719,5.7663,6.2711,6.3264,6.4859,6.5897,6.5897,6.5897,6.4231,0.0,0.0,0.0,0.0,0.0,0.0,0.0,0.0,0.0,0.0,0.0,0.0,0.0,0.0,0.0,0.0,0.0,0.0,0.0,0.0,0.0,0.0,0.0,0.0,0.0,0.0,0.0,0.0,0.0,0.0,0.0,0.0,0.0,0.0,0.0,0.0,0.0,0.0,0.0,0.0,0.0,0.0,0.0,0.0,0.0,0.0,0.0,0.0,0.0,0.0,0.0,0.0,0.0,0.0,0.0,0.0,0.0,0.0,0.0,0.0,0.0,0.0,0.0,0.0,0.0,0.0,0.0,0.0,0.0,0.0,0.0,0.0,0.0,0.0,0.0,0.0,0.0,0.0,0.0,0.0,0.0,0.0,0.0,0.0,0.0,0.0,0.0,0.0,0.0,0.0,0.0,0.0,0.0,0.0,0.0,0.0,0.0,0.0,0.0,0.0,0.0,0.0,0.0,5.1556,5.8044,6.2944,6.4073,6.5243,6.5897,6.5897,6.5897,6.4129,5.9957,0.0,0.0,0.0,0.0,0.0,0.0,0.0,0.0,0.0,0.0,0.0,0.0,0.0,0.0,0.0,0.0,0.0,0.0,0.0,0.0,0.0,0.0,0.0,0.0,0.0,0.0,0.0,0.0,0.0,0.0,0.0,0.0,0.0,0.0,0.0,0.0,0.0,0.0,0.0,0.0,0.0,0.0,0.0,0.0,0.0,0.0,0.0,0.0,0.0,0.0,0.0,0.0,0.0,0.0,0.0,0.0,0.0,0.0,0.0,0.0,0.0,0.0,0.0,0.0,0.0,0.0,0.0,0.0,0.0,0.0,0.0,0.0,0.0,0.0,0.0,0.0,0.0,0.0,0.0,0.0,0.0,0.0,0.0,0.0,0.0,0.0,0.0,0.0,0.0,0.0,0.0,0.0,0.0,0.0,0.0,0.0,0.0,0.0,0.0,0.0,0.0,0.0,5.2508,5.894,6.3705,6.4523,6.5397,6.5897,6.5897,6.5897,6.4359,6.0742,0.0,0.0,0.0,0.0,0.0,0.0,0.0,0.0,0.0,0.0,0.0,0.0,0.0,0.0,0.0,0.0,0.0,0.0,0.0,0.0,0.0,0.0,0.0,0.0,0.0,0.0,0.0,0.0,0.0,0.0,0.0,0.0,0.0,0.0,0.0,0.0,0.0,0.0,0.0,0.0,0.0,0.0,0.0,0.0,0.0,0.0,0.0,0.0,0.0,0.0,0.0,0.0,0.0,0.0,0.0,0.0,0.0,0.0,0.0,0.0,0.0,0.0,0.0,0.0,0.0,0.0,0.0,0.0,0.0,0.0,0.0,0.0,0.0,0.0,0.0,0.0,0.0,0.0,0.0,0.0,0.0,0.0,0.0,0.0,0.0,0.0,0.0,0.0,0.0,0.0,0.0,0.0,0.0,0.0,0.0,0.0,0.0,0.0,0.0,0.0,0.0,0.0,5.3614,6.0178,6.4791,6.4742,6.5474,6.6013,6.6013,6.609,6.5051,6.2486,0.0,0.0,0.0,0.0,0.0,0.0,0.0,0.0,0.0,0.0,0.0,0.0,0.0,0.0,0.0,0.0,0.0,0.0,0.0,0.0,0.0,0.0,0.0,0.0,0.0,0.0,0.0,0.0,0.0,0.0,0.0,0.0,0.0,0.0,0.0,0.0,0.0,0.0,0.0,0.0,0.0,0.0,0.0,0.0,0.0,0.0,0.0,0.0,0.0,0.0,0.0,0.0,0.0,0.0,0.0,0.0,0.0,0.0,0.0,0.0,4.9411,0.0,0.0,0.0,0.0,0.0,0.0,0.0,0.0,0.0,0.0,0.0,0.0,0.0,0.0,0.0,0.0,0.0,0.0,0.0,0.0,0.0,0.0,0.0,0.0,0.0,0.0,0.0,0.0,0.0,0.0,0.0,0.0,0.0,0.0,0.0,0.0,0.0,0.0,0.0,0.0,0.0,5.5191,6.0875,6.5023,6.555,6.6359,6.6821,6.6821,6.7475,6.6782,6.4243,6.3897,0.0,0.0,0.0,0.0,0.0,0.0,0.0,0.0,0.0,0.0,0.0,0.0,0.0,0.0,0.0,0.0,0.0,0.0,0.0,0.0,0.0,0.0,0.0,0.0,0.0,0.0,0.0,0.0,0.0,0.0,0.0,0.0,0.0,0.0,0.0,0.0,0.0,0.0,0.0,0.0,0.0,0.0,0.0,0.0,0.0,0.0,0.0,0.0,0.0,0.0,0.0,0.0,0.0,0.0,0.0,0.0,0.0,0.0,0.0,0.0,5.0701,0.0,0.0,0.0,0.0,0.0,0.0,0.0,0.0,0.0,0.0,0.0,0.0,0.0,0.0,0.0,0.0,0.0,0.0,0.0,0.0,0.0,0.0,0.0,0.0,0.0,0.0,0.0,0.0,0.0,0.0,0.0,0.0,0.0,0.0,0.0,0.0,0.0,0.0,0.0,0.0,5.6329,6.1636,6.5604,6.6384,6.6859,6.7282,6.7705,6.8129,6.7859,6.6513,6.5667,0.0,0.0,0.0,0.0,0.0,0.0,0.0,0.0,0.0,0.0,0.0,0.0,0.0,0.0,0.0,0.0,0.0,0.0,0.0,0.0,0.0,0.0,0.0,0.0,0.0,0.0,0.0,0.0,0.0,0.0,0.0,0.0,0.0,0.0,0.0,0.0,0.0,0.0,0.0,0.0,0.0,0.0,0.0,0.0,0.0,0.0,0.0,0.0,0.0,0.0,0.0,0.0,0.0,5.759,5.7874,5.8437,5.9214,5.9187,5.834,5.4393,5.3221,5.3935,5.2649,0.0,0.0,0.0,0.0,0.0,0.0,0.0,0.0,0.0,0.0,0.0,0.0,0.0,0.0,0.0,0.0,0.0,0.0,0.0,0.0,0.0,0.0,0.0,0.0,5.6472,5.6753,5.251,0.0,0.0,0.0,0.0,0.0,0.0,0.0,0.0,0.0,0.0,0.0,5.7829,6.2714,6.6359,6.7013,6.7359,6.7821,6.859,6.8783,6.8859,6.8859,6.7552,6.6244,0.0,0.0,0.0,0.0,0.0,0.0,0.0,0.0,0.0,0.0,0.0,0.0,0.0,0.0,0.0,0.0,0.0,0.0,0.0,0.0,0.0,0.0,0.0,0.0,0.0,0.0,0.0,0.0,0.0,0.0,0.0,0.0,4.5824,4.8083,0.0,0.0,0.0,0.0,0.0,0.0,0.0,0.0,0.0,0.0,0.0,0.0,0.0,5.7105,5.8604,5.8713,5.9164,5.9932,5.9932,6.0017,6.0113,6.07,6.0864,6.0736,5.9834,0.0,5.6911,5.6746,0.0,0.0,0.0,0.0,0.0,0.0,0.0,0.0,0.0,0.0,0.0,0.0,0.0,0.0,0.0,0.0,0.0,0.0,0.0,0.0,0.0,0.0,6.1243,6.182,6.1704,6.1254,0.0,5.6357,5.3049,5.428,5.4049,0.0,0.0,0.0,0.0,0.0,0.0,0.0,6.1184,6.4729,6.6974,6.709,6.8436,6.9398,6.9513,7.0167,7.0552,7.0552,7.036,6.9206,6.6859,6.5897,0.0,0.0,0.0,0.0,0.0,0.0,0.0,0.0,0.0,0.0,0.0,0.0,0.0,0.0,0.0,0.0,0.0,0.0,0.0,0.0,0.0,0.0,0.0,0.0,0.0,0.0,0.0,0.0,0.0,4.638,4.8138,4.9947,5.0597,5.0906,0.0,0.0,0.0,0.0,0.0,0.0,0.0,0.0,0.0,5.7158,5.8312,5.9445,6.0529,6.0982,6.1386,6.1741,6.2063,6.2188,6.2211,6.2745,6.3008,6.299,6.2843,6.2102,6.0949,5.9775,5.8945,5.8417,0.0,0.0,0.0,0.0,5.649,5.649,5.6587,5.6398,0.0,5.526,0.0,0.0,0.0,0.0,0.0,0.0,0.0,0.0,0.0,0.0,6.2563,6.432,6.454,6.4353,6.4353,6.2393,6.0067,0.0,5.755,5.6477,5.3917,0.0,0.0,0.0,0.0,6.0558,6.209,6.5098,6.7282,6.7782,6.8936,6.9898,7.036,7.0706,7.0898,7.0898,7.0898,7.0398,6.9283,6.7513,6.5243,0.0,0.0,0.0,0.0,0.0,0.0,0.0,0.0,0.0,0.0,0.0,0.0,0.0,0.0,0.0,0.0,0.0,0.0,0.0,0.0,0.0,0.0,0.0,0.0,0.0,0.0,0.0,0.0,4.9171,5.0013,5.157,5.2067,5.2199,0.0,0.0,0.0,0.0,0.0,0.0,5.6726,5.7409,5.8364,5.9795,6.0823,6.1741,6.2548,6.3135,6.3504,6.3665,6.4062,6.4181,6.4129,6.469,6.4799,6.4572,6.4734,6.4628,6.4191,6.2292,6.111,6.0463,6.0469,6.0127,5.9497,5.8623,5.8319,5.8342,5.8744,5.8881,5.8699,5.7742,5.7174,5.6537,5.4973,0.0,0.0,0.0,0.0,5.8523,6.0819,6.2089,6.3267,6.543,6.6046,6.6128,6.6153,6.6135,6.5107,0.0,6.1252,6.0307,5.7257,0.0,0.0,0.0,0.0,6.3037,6.3945,6.6293,6.8127,6.8772,6.966,7.0397,7.0928,7.0992,7.0953,7.0898,7.0898,7.0898,7.0898,6.909,6.7282,6.5628,0.0,0.0,0.0,0.0,0.0,0.0,0.0,0.0,0.0,0.0,0.0,0.0,0.0,0.0,0.0,0.0,0.0,0.0,0.0,0.0,0.0,0.0,0.0,0.0,0.0,0.0,0.0,0.0,0.0,5.3014,5.2671,0.0,0.0,0.0,0.0,5.5434,5.619,5.6667,5.6785,5.8988,6.0603,6.1447,6.3062,6.431,6.5118,6.5154,6.541,6.594,6.5963,6.5822,6.5539,6.6049,6.583,6.5099,6.5583,6.5821,6.5692,6.4244,6.3423,6.3117,6.3117,6.3078,6.2963,6.213,6.1822,6.1745,6.0938,6.0657,6.0669,6.0604,5.9488,5.8181,5.8077,5.7511,0.0,0.0,5.9358,6.1012,6.2743,6.382,6.474,6.5837,6.61,6.6135,6.6341,6.5725,6.5336,0.0,6.605,6.5246,6.2663,0.0,6.2684,6.35,6.3744,6.5021,6.8433,6.9546,7.007,7.0109,7.0873,7.1334,7.1182,7.1201,7.112,7.0925,7.0898,7.0898,7.0898,7.0783,6.9937,6.8244,6.659,0.0,0.0,0.0,0.0,0.0,0.0,0.0,0.0,0.0,0.0,0.0,0.0,0.0,0.0,0.0,0.0,0.0,0.0,0.0,0.0,0.0,0.0,0.0,0.0,0.0,0.0,0.0,0.0,5.394,5.4738,0.0,5.5185,5.5688,5.6337,5.7116,5.7886,5.9001,6.0579,6.1998,6.3135,6.398,6.4905,6.5528,6.5824,6.6142,6.6411,6.662,6.6919,6.7009,6.692,6.7454,6.7515,6.7208,6.6845,6.6667,6.659,6.5575,6.5089,6.4936,6.4359,6.4128,6.4051,6.3166,6.2551,6.2062,6.1755,6.1281,6.0781,6.0781,6.0396,5.9896,5.9896,5.977,5.964,5.994,6.1337,6.2881,6.3455,6.4657,6.5812,6.605,6.6187,6.6305,6.6374,6.6234,6.6194,6.6639,6.6087,6.4944,6.3042,6.4544,6.5595,6.4405,6.597,6.7762,6.9039,6.9801,7.0214,7.0214,7.0979,7.1404,7.1203,7.1221,7.1092,7.0925,7.0898,7.0898,7.0898,7.0898,7.0398,6.9244,6.9167,6.7205,0.0,0.0,0.0,0.0,0.0,0.0,0.0,0.0,0.0,0.0,0.0,0.0,0.0,0.0,0.0,0.0,0.0,0.0,0.0,0.0,0.0,0.0,0.0,0.0,0.0,0.0,5.407,5.5172,5.6204,5.6602,5.6051,5.6748,5.7666,5.8731,5.9575,6.097,6.3135,6.4053,6.4861,6.5705,6.6232,6.6634,6.6895,6.7447,6.7827,6.7996,6.8299,6.84,6.8311,6.8674,6.8667,6.8359,6.7782,6.7552,6.7513,6.6974,6.6551,6.6205,6.5359,6.5051,6.4936,6.4051,6.3397,6.2858,6.2293,6.1524,6.0781,6.0781,6.0781,6.0781,6.0781,6.0874,6.0997,6.0997,6.2361,6.3819,6.3819,6.5103,6.6361,6.6228,6.6298,6.6406,6.6457,6.6498,6.6606,6.6834,6.6258,6.5461,6.4731,6.6497,6.7562,6.621,6.8116,6.97,6.97,7.0359,7.0828,7.0828,7.1326,7.156,7.1335,7.1037,7.0852,7.0887,7.0667,7.0629,7.0898,7.036,6.9937,6.9706,6.9937,6.8129,6.4166,0.0,0.0,0.0,0.0,0.0,0.0,0.0,0.0,0.0,0.0,0.0,0.0,0.0,0.0,0.0,0.0,0.0,0.0,0.0,0.0,0.0,0.0,0.0,5.4387,5.452,5.506,5.6602,5.6859,5.6895,5.6895,5.7616,5.8754,6.037,6.1238,6.2475,6.4129,6.4985,6.5757,6.6555,6.7134,6.7761,6.8521,6.9085,6.9607,7.0129,7.0129,6.9995,6.9744,6.9744,6.9283,6.8475,6.8462,6.8423,6.8423,6.8398,6.7898,6.7051,6.6244,6.5897,6.5782,6.4936,6.4628,6.432,6.2678,6.1524,6.0781,6.0781,6.0781,6.0781,6.0793,6.0884,6.1014,6.1023,6.2376,6.3831,6.3831,6.5115,6.6393,6.6387,6.6381,6.6423,6.6549,6.6488,6.6517,6.6831,6.6914,6.7187,6.8008,6.8164,6.8476,6.9297,7.0156,0.0,7.0742,7.1484,7.1992,7.1953,7.1953,7.1813,7.1472,7.0667,7.0374,7.0862,7.0206,7.0129,7.0898,6.9398,6.8975,6.9821,6.8936,6.7667,6.6051,0.0,0.0,0.0,0.0,0.0,0.0,0.0,0.0,0.0,0.0,0.0,0.0,0.0,0.0,0.0,0.0,0.0,0.0,0.0,0.0,0.0,0.0,5.4619,5.445,5.5426,5.6308,5.6748,5.7827,5.8524,5.8524,5.962,6.1017,6.2673,6.3862,6.5253,6.6903,6.7782,6.8285,6.851,6.9053,6.9455,6.9664,7.0179,7.0524,7.0666,7.0666,7.0647,7.0552,7.0552,7.0437,7.0167,6.959,6.936,6.9283,6.8667,6.8282,6.7975,6.709,6.6397,6.5859,6.5628,6.4743,6.3512,6.2435,6.1524,6.0781,6.0781,6.0781,6.0827,6.0915,6.1065,6.1246,6.1354,6.2707,6.4161,6.4161,6.5337,6.6516,6.6418,6.6283,6.6187,6.6244,6.6334,6.6446,6.6667,6.679,6.6992,6.7226,6.7773,6.8476,6.9336,7.0156,0.0,7.1562,7.1836,7.1758,7.1133,7.0966,7.0824,7.0557,7.0183,7.0261,7.0848,7.1283,7.1591,7.1822,7.2014,7.2206,7.2437,7.0975,6.9975,0.0,0.0,0.0,0.0,0.0,0.0,0.0,0.0,0.0,0.0,0.0,0.0,0.0,0.0,0.0,0.0,0.0,0.0,0.0,0.0,0.0,0.0,5.5277,5.5941,5.5464,5.6235,5.6932,5.7262,5.8437,5.9184,5.9184,6.0722,6.2407,6.4069,6.5397,6.6842,6.8502,6.9048,6.9313,6.9313,6.9811,7.0112,7.0112,7.0637,7.0898,7.0898,7.0898,7.0898,7.0898,7.0898,7.0898,7.086,7.0398,7.0206,7.0167,6.9667,6.9244,0.0,0.0,0.0,0.0,0.0,6.5013,6.3743,6.2897,6.205,6.1293,6.0935,6.0781,6.0839,6.0963,6.136,6.1771,6.1974,6.3328,6.4757,6.4804,6.5775,6.6675,6.6441,6.6368,6.6281,6.6236,6.6312,6.6452,6.668,6.6742,0.0,6.6875,6.7617,6.8515,6.9375,7.0195,7.0898,7.1406,7.1758,7.1797,7.1289,7.111,7.0949,7.0752,7.055,0.0,0.0,0.0,7.2052,7.1668,7.286,0.0,0.0,0.0,0.0,0.0,0.0,0.0,0.0,7.0167,7.1475,0.0,0.0,0.0,0.0,0.0,0.0,0.0,0.0,0.0,0.0,0.0,0.0,0.0,0.0,0.0,0.0,5.6418,5.6932,5.6932,5.7005,5.7336,5.8033,5.8877,5.9368,5.9441,6.1456,6.343,6.5014,6.6422,6.7865,6.9416,0.0,0.0,0.0,0.0,7.0179,7.0179,7.0652,7.0898,7.0898,7.0898,7.0898,7.0898,7.0898,7.0898,7.0898,7.0898,7.0898,7.0898,7.0898,7.0425,6.9528,6.7808,6.7115,6.7038,6.6229,6.5382,6.4523,6.3717,0.0,0.0,6.1366,6.107,6.101,6.1152,6.1732,6.2432,6.2723,6.4055,6.5353,6.5545,6.6211,6.6787,6.6478,6.6498,6.6537,6.6418,6.6399,6.6493,6.6828,6.674,6.6687,6.6874,6.7617,6.8515,6.9375,7.0195,7.0742,7.082,7.1523,7.1953,7.1875,0.0,0.0,7.1524,7.1253,7.1468,7.2354,7.2571,7.2377,7.1783,7.3245,7.3707,7.2937,7.4548,7.5734,7.6438,7.6506,7.6468,7.6207,7.3091,7.3245,0.0,0.0,0.0,0.0,0.0,0.0,0.0,0.0,0.0,0.0,0.0,0.0,0.0,0.0,0.0,5.6542,5.7226,5.7776,5.7776,5.8327,5.8781,5.8927,5.9685,6.0419,6.108,6.3462,6.5385,6.6422,6.8171,6.9572,7.0531,7.0608,7.0608,7.0608,7.0681,7.0748,7.0748,7.0871,7.0898,7.0898,0.0,0.0,7.0898,7.0898,7.0898,7.0898,7.0898,7.0898,7.0898,7.0898,7.049,6.9705,6.8003,6.7346,6.723,6.6379,6.5489,6.4724,6.4443,6.3782,6.3048,6.307,6.2588,6.209,6.2357,6.2582,0.0,6.2919,6.4216,6.5545,6.5586,6.6123,6.6631,6.6599,6.6498,6.6423,6.6393,6.6483,6.656,6.6634,6.6743,6.6834,6.6875,6.7617,6.8515,6.9375,7.0195,7.0937,7.164,7.1914,7.1719,7.1015,7.0837,7.0983,7.1624,7.088,7.1342,7.3526,7.4837,7.5979,7.6991,7.7361,7.7438,7.7284,7.7641,7.8219,7.9054,7.8412,7.8065,7.7977,7.6669,7.6399,0.0,0.0,0.0,0.0,0.0,0.0,0.0,0.0,0.0,0.0,0.0,5.5819,0.0,0.0,5.7409,5.7409,5.807,5.8621,5.8621,5.9281,5.9625,5.9258,6.0272,6.1153,6.1557,6.4033,6.5785,6.6219,6.8403,6.9898,7.0283,7.0667,7.0898,7.0898,7.0898,7.0898,7.0898,7.0898,7.0898,7.0898,7.0898,7.0898,7.0898,7.0898,7.0898,7.0898,7.0898,7.0898,7.0898,7.0898,7.0758,7.0379,6.8786,6.7906,6.7479,6.694,6.6269,6.5522,6.4927,6.4492,6.4161,6.3814,6.3417,6.3002,6.2867,6.3035,6.3335,6.3589,6.4527,6.5575,6.6093,6.6519,6.6737,6.6625,6.6616,6.6603,6.6512,6.6619,6.6742,6.6742,6.6833,6.6914,6.6914,6.7617,6.8515,6.9375,6.9844,7.0547,7.1836,7.1992,7.1836,7.1406,7.1579,7.1732,7.1689,7.1544,7.2185,7.3897,7.4615,7.5326,7.6057,7.6423,7.6592,7.6592,7.7136,7.7792,7.8554,7.7329,7.7136,7.7861,7.6592,7.6476,0.0,0.0,0.0,0.0,0.0,0.0,0.0,0.0,5.6075,5.5377,5.6207,5.7042,5.7042,5.7556,5.8033,5.8217,5.8804,5.9258,5.9404,6.0126,6.0382,5.9758,6.0823,6.1667,6.1814,6.4107,6.5596,6.5596,6.8135,6.9706,6.9706,7.0475,7.0898,7.0898,7.0898,7.0898,7.0898,7.0898,7.0898,7.0898,7.0898,7.0898,7.0898,7.0898,7.0898,7.0898,7.0898,7.0898,7.0898,7.094,7.1074,7.1125,6.9738,6.8822,6.8182,6.7503,6.6903,6.6295,6.5413,6.5219,6.5193,6.4371,6.4109,6.3979,6.3299,6.3471,6.3982,6.4447,6.4834,6.5321,6.6366,6.6523,6.6405,6.6416,6.6513,6.6639,6.6651,6.6788,6.6914,6.6914,6.6914,6.6914,6.6914,6.7461,6.8281,6.9336,6.9609,7.0273,7.1797,7.1992,7.1992,7.1992,7.2484,7.2534,7.1831,7.2574,7.3352,7.4009,7.4019,7.4051,7.4193,7.4693,7.4938,7.4938,7.5786,7.652,7.7053,7.5786,7.5748,7.6746,7.5361,7.5553,5.7458,5.7098,0.0,5.6524,5.7191,5.7754,0.0,0.0,5.7804,5.764,5.773,5.7886,5.7886,5.7923,5.8217,5.8927,5.9148,5.9441,6.0162,6.097,6.141,6.1337,6.1484,6.1887,6.2622,6.446,6.5596,6.5596,6.8135,6.9706,6.9706,7.0475,7.0898,7.0898,7.0898,7.0898,7.0898,7.0898,7.0898,7.0898,7.0898,7.0898,7.0898,7.0898,7.0898,7.0898,7.0898,7.0898,7.0925,7.1097,7.129,7.1393,7.061,7.0353,7.0072,6.7598,6.6631,6.6549,6.6301,6.6257,6.6139,6.5363,6.5117,6.5016,6.4329,6.4178,6.4411,6.5234,6.4961,6.4609,6.5508,6.5156,6.4765,6.5546,6.5742,6.5937,6.6718,6.6875,6.6914,6.6914,6.6914,6.6914,6.6914,6.6992,6.7578,6.918,7.0078,7.0898,7.1875,7.1992,7.1992,7.1992,7.207,7.2069,7.1952,7.3435,7.4357,7.4277,7.4808,7.5396,7.5963,7.5889,7.5861,7.5861,7.5981,7.6058,7.613,7.5981,7.5596,7.4976,7.4784,7.5207,5.8478,0.0,0.0,0.0,5.9542,6.0056,5.955,5.9807,5.9846,5.888,5.8694,5.8547,5.8107,5.7997,5.8107,0.0,5.9281,6.0015,6.0346,6.152,6.2291,6.2291,6.2291,6.2438,6.2743,6.4086,6.4917,6.4917,6.7409,6.8936,6.8936,7.0206,7.0898,7.0898,7.0898,7.0898,7.0898,7.0898,7.0898,7.0898,7.0898,7.0898,7.0898,7.0898,7.0898,7.0898,7.0898,7.0979,7.1085,7.1169,7.1093,7.0844,7.0033,6.982,6.9726,6.8013,6.7737,6.8148,6.7489,6.7337,6.7305,6.6507,6.6238,6.6007,6.4687,6.4297,6.4375,6.4726,6.4219,6.375,6.4609,6.457,6.4375,6.4765,6.5234,6.5703,6.6055,6.6523,6.6914,6.6914,6.6914,6.6914,6.6914,6.6914,6.7305,6.8515,6.9453,7.0508,7.1836,7.1992,7.2187,7.2695,7.2305,7.2226,7.2695,7.2969,7.3001,7.2782,7.2974,7.3176,7.3351,7.3125,7.3014,7.3014,7.3014,7.3283,7.3783,7.3283,7.336,7.4014,7.3476,7.3707,5.9532,0.0,0.0,6.0937,6.1563,6.1885,6.0945,6.119,6.119,5.9808,5.9334,5.9079,5.8744,5.848,5.8408,5.8634,5.9832,6.075,6.075,6.1924,6.278,6.278,6.278,6.278,6.278,6.3787,6.4389,6.4389,6.6858,6.8385,6.8385,6.9975,7.0898,7.0898,7.0898,7.0898,7.0898,7.0898,7.0898,7.0898,7.0898,7.0898,7.0898,7.0898,7.0898,7.0898,7.0898,7.1016,7.1221,7.1221,7.0914,7.0402,6.954,6.9429,6.9609,6.8419,6.8583,6.9335,6.8574,6.8427,6.8359,6.7265,6.707,6.6914,6.5195,6.4648,6.4648,6.4648,6.3867,6.3164,6.3789,6.375,6.3633,6.3867,6.4609,6.5312,6.5547,6.6289,6.6914,6.6914,6.6914,6.6914,6.6914,6.6719,6.6836,6.7695,6.8398,6.9492,7.1406,7.1836,7.2226,7.2851,7.2383,7.2265,7.289,7.2344,7.1909,7.1696,7.1577,7.1389,7.1231,7.1004,7.0898,7.0898,7.0898,7.1206,7.1822,7.1206,7.1552,7.2783,7.2129,7.2227,0.0,0.0,6.2327,6.2327,6.2938,6.3193,6.185,6.1557,6.1374,6.0529,5.9754,5.9434,6.0188,5.9692,5.9424,6.0188,6.1006,6.1557,6.1557,6.2291,6.278,6.278,6.278,6.278,0.0,6.3787,6.4389,6.4389,6.6858,6.8385,6.8385,6.9975,7.0898,7.0898,7.0898,7.0898,7.0898,7.0898,7.0898,7.0898,7.0898,7.0898,7.0898,7.0898,7.0898,7.0898,7.0898,7.1016,7.1221,7.1221,7.0914,7.0402,6.954,6.9781,7.0469,6.8789,6.875,6.9492,6.9375,6.9375,6.9101,6.7422,6.7461,6.7851,6.6094,6.5547,6.5547,6.5547,6.4336,6.3008,6.3047,6.2422,6.1992,6.2851,6.3711,6.457,6.543,6.6289,6.6914,6.6914,6.6914,6.6914,6.6914,6.6211,6.5937,6.6797,6.6953,6.789,7.043,7.1484,7.1992,7.2031,7.2031,7.1992,7.2031,7.2031,7.1909,7.1696,7.1577,7.1389,7.1231,7.1004,7.0898,7.0898,7.0898,7.0898,7.0937,7.0898,7.0937,7.0975,7.0937,7.1121,0.0,0.0,6.1338,6.2385,6.2865,6.2964,6.2487,6.2401,6.202,6.0659,6.0585,6.0312,5.902,5.941,5.9691,5.8906,5.9943,6.0786,6.0786,6.1484,6.2218,6.2768,6.278,0.0,0.0,0.0,0.0,6.3871,6.5863,6.7301,6.7837,6.9313,7.036,7.0898,7.0898,7.0898,7.0898,7.0898,7.0898,7.0898,7.0898,7.0898,7.0898,7.0898,7.0898,7.0912,7.1026,7.1126,7.1164,7.0848,7.0293,6.9546,6.881,6.8747,6.9023,6.9023,6.9531,7.0273,7.0273,6.9922,6.9297,6.8125,6.7578,6.7109,6.5937,6.5586,6.5469,6.4883,6.3906,6.2851,6.2305,6.1914,6.1758,6.207,6.3242,6.4375,6.4687,6.5898,6.6914,6.6914,6.6914,6.6719,6.6133,6.5781,6.5703,6.5976,6.7031,6.8476,7.0469,7.0469,7.0703,7.1875,7.1484,7.1367,7.1953,7.1992,7.1898,7.1583,7.1518,7.137,7.1016,7.0927,7.0898,7.0898,7.0898,7.0734,7.0362,7.0362,7.02,6.9829,6.9829,6.989,0.0,6.0845,6.1006,6.2335,6.2889,6.3038,6.2855,6.278,6.242,6.1091,6.0991,6.0646,5.9152,5.9413,5.9773,5.9358,6.0413,6.1263,6.1263,6.1961,6.2585,6.278,6.278,6.278,0.0,0.0,0.0,6.3871,6.5457,6.6704,6.7393,6.8852,6.9937,7.0437,7.0744,7.0898,7.0898,7.0898,7.0898,7.0898,7.0898,7.0898,7.0898,7.0898,7.0898,7.0912,7.1053,7.0986,7.0822,7.0434,6.9727,6.88,6.8307,6.8122,6.8281,6.9101,6.9961,7.0742,7.1055,7.0625,6.9805,6.8906,6.8047,6.7187,6.6328,6.6055,6.5898,6.5,6.414,6.3242,6.2383,6.2148,6.2148,6.2148,6.3515,6.4765,6.4765,6.5898,6.6797,6.6484,6.6445,6.6172,6.5273,6.4883,6.4687,6.4687,6.5625,6.7187,6.9492,6.957,6.9844,7.0937,7.0586,7.0508,7.1055,7.1052,7.0894,7.0609,7.0526,7.0351,7.004,7.0321,7.0475,7.0475,7.058,7.0463,7.0112,6.9901,6.9645,6.9313,6.9313,6.919,5.9285,6.038,6.1177,6.1996,6.2754,6.3191,6.272,6.2631,6.2391,6.1632,6.0915,6.034,0.0,0.0,5.9722,6.1112,6.2089,6.2622,6.2622,6.3356,6.3613,0.0,0.0,0.0,0.0,0.0,0.0,6.4313,0.0,6.6514,6.7051,6.8654,6.9629,6.9706,7.0437,7.086,7.0898,7.0898,7.0898,7.0898,7.0898,7.0898,7.0898,7.086,7.0821,7.0821,7.0796,7.0535,7.0081,6.9893,6.9155,6.8163,6.7932,6.7986,6.8281,6.9101,6.9922,7.0742,7.164,7.1367,7.0508,6.9609,6.8789,6.7969,6.7148,6.6914,6.6719,6.5859,6.5,6.418,6.3281,6.3086,6.3086,6.3086,6.4375,6.5586,6.5547,6.6211,6.6562,6.5703,6.5508,6.5195,6.4336,6.3437,6.2851,6.2812,6.2851,6.414,6.7617,6.8711,6.9258,6.9336,6.9414,6.9453,6.9492,6.9312,6.9116,6.889,6.8774,6.859,6.8411,6.9206,6.9615,6.9602,6.9849,6.9963,6.9891,6.936,6.9101,6.9118,6.9118,6.88,5.7209,5.7846,5.8206,5.9033,5.9456,5.9689,6.011,6.0196,6.0107,5.9819,6.0061,5.98,0.0,0.0,0.0,5.8323,5.9243,0.0,6.0102,6.0823,0.0,6.1851,0.0,6.278,6.278,6.278,0.0,0.0,6.4726,6.539,6.6499,6.7327,6.8359,6.9667,6.9898,7.0283,7.0898,7.0898,7.0898,7.0898,7.0898,7.0898,7.0898,7.0283,7.0014,6.9988,6.9479,6.9138,6.8963,6.8598,6.8223,6.7932,6.7372,6.7577,6.8281,6.9101,6.9531,6.9844,7.0742,7.0508,6.9648,6.8789,6.793,6.7187,6.6953,6.6914,6.6719,6.5859,6.543,6.5078,6.418,6.3984,6.3984,6.3984,6.4805,6.543,6.4765,6.5312,6.5664,6.4805,6.4101,6.3398,6.25,6.164,6.0859,6.0273,6.0664,6.2305,6.582,6.6445,6.707,6.8359,6.8515,6.8789,6.9375,6.9273,6.9116,6.889,6.8774,6.859,6.8411,6.8629,6.8545,6.8151,6.8177,6.7878,6.7096,6.6983,6.6708,6.6346,6.6346,6.5922,5.5389,5.5654,5.5688,5.6206,5.6904,5.7605,5.8027,5.8229,5.8159,5.7712,5.8035,0.0,0.0,0.0,0.0,0.0,0.0,0.0,6.0199,6.097,6.1484,0.0,6.2328,0.0,6.278,6.278,6.3224,0.0,6.4389,6.4924,6.6106,6.6754,6.7552,6.8513,6.9283,7.009,7.0898,7.0898,7.0898,7.0898,7.0898,7.0706,7.036,6.9898,6.9475,6.9104,0.0,6.8452,6.8139,6.7989,6.7727,6.7402,6.7069,6.7422,6.8281,6.914,6.9414,6.9453,6.9961,6.9609,6.8867,6.8359,6.7617,6.6914,6.6914,6.6914,6.6797,6.6328,6.5898,6.5508,6.5,6.4883,6.4883,6.4883,6.5234,6.5469,6.4961,6.4961,6.4648,6.3398,6.2461,6.1601,6.0742,6.0195,5.9726,5.9258,5.957,6.0586,6.2539,6.3437,6.4258,6.5234,6.5351,6.5819,6.6982,6.6922,6.7075,6.7643,6.7561,6.7316,6.6988,6.7319,6.7279,6.6736,6.6862,6.6663,6.6097,6.5872,6.5384,6.474,6.474,6.4279,5.3565,5.358,5.3448,5.3448,5.46,5.5811,5.6079,5.623,5.6185,5.5747,0.0,5.5516,5.558,5.619,5.7441,5.9591,0.0,6.0346,6.1006,6.1924,6.2218,6.152,6.2254,6.278,6.278,6.278,6.3224,6.4313,6.4389,6.4837,6.5859,6.6551,6.6974,6.709,6.8667,6.9937,7.0744,7.0744,7.0744,7.0744,7.0744,7.0321,6.9513,6.9398,6.8936,6.8219,6.8259,6.7933,6.7444,6.7664,6.7397,6.6914,6.6914,6.7422,6.8281,6.9062,6.9297,6.9258,6.9258,6.8711,6.8047,6.8047,6.7539,6.6914,6.6914,6.6914,6.6914,6.6914,6.6367,6.5781,6.5781,6.5781,6.5742,6.5625,6.5586,6.5547,6.5312,6.4492,6.3359,6.1836,6.082,5.9961,5.918,5.9023,5.8984,5.8867,5.8867,5.8867,5.8867,6.043,6.1523,6.1523,6.1601,6.2257,6.3653,6.3642,6.417,6.5508,6.5693,6.5471,6.4962,6.5747,6.5935,6.5349,6.563,6.5717,6.5663,6.5101,6.4412,6.369,6.3567,6.3095,5.1243,5.1048,5.1032,5.1032,5.1242,5.1843,5.331,5.3196,0.0,0.0,0.0,5.4086,5.4689,5.5413,5.6233,5.7323,0.0,0.0,0.0,0.0,6.075,0.0,0.0,0.0,0.0,0.0,0.0,0.0,6.4389,6.4837,6.5859,6.6013,6.6397,6.709,6.809,6.9052,6.9898,6.9898,6.9898,6.9898,6.9898,6.9475,6.859,6.7859,6.7475,6.7308,6.6763,0.0,6.6633,6.6771,6.6852,6.6914,6.6914,6.7422,6.8203,6.8359,6.8437,6.8398,6.8398,6.7851,6.7148,6.7148,6.7031,6.6914,6.6914,6.6914,6.6914,6.6914,6.6797,6.668,6.668,6.668,6.6484,6.5781,6.5586,6.5195,6.375,6.2187,6.0976,6.0664,5.9961,5.914,5.8281,5.8125,5.789,5.7148,5.7031,5.7031,5.7031,5.914,6.0625,6.0625,6.1159,6.164,6.1939,6.2322,6.2685,6.296,6.4111,6.4588,6.4047,6.487,6.4868,6.3953,6.401,6.3831,6.3383,6.2619,6.2176,6.2001,6.1301,6.0568,4.9694,4.9206,4.879,4.879,4.9206,4.9726,5.0306,0.0,0.0,0.0,0.0,5.1371,5.2097,5.3829,0.0,5.5635,0.0,0.0,0.0,0.0,0.0,0.0,0.0,0.0,0.0,0.0,0.0,0.0,6.384,6.4364,6.5821,6.5897,6.6282,6.7051,6.7513,6.7936,6.8321,6.8783,6.8783,6.8359,6.8821,6.859,6.7705,6.7282,6.6859,6.6474,6.6331,0.0,6.6406,6.6667,6.6791,6.6914,6.6914,6.7148,6.7539,6.7539,6.7226,6.6836,6.6836,6.6289,6.5547,6.5547,6.6172,6.6914,6.6914,6.6914,6.6914,6.6914,6.6914,6.6914,6.6914,6.6914,6.668,6.582,6.4922,6.3789,6.2031,6.0976,6.0156,5.9258,5.8789,5.8242,5.7383,5.7226,5.707,5.664,5.6601,5.6601,5.6601,5.7222,5.7839,5.8267,5.8568,5.9074,5.9855,6.0538,6.1301,6.2141,6.3066,6.3526,6.3424,6.3612,6.3528,6.3191,6.2782,6.242,6.2156,6.1379,6.076,6.03,5.9893,5.8975,4.8512,4.7904,4.7309,4.7309,4.7861,4.8428,4.8161,4.8178,0.0,0.0,4.8646,4.8817,4.9699,0.0,5.3824,0.0,5.6366,0.0,0.0,0.0,0.0,0.0,0.0,0.0,0.0,0.0,0.0,0.0,6.303,6.3666,6.5257,6.532,6.5628,6.6282,6.6282,6.6359,6.6551,6.7436,6.7513,6.6859,6.7705,6.7667,6.6821,6.6821,6.6513,6.5935,6.6209,0.0,0.0,6.6727,6.6874,6.6875,6.668,6.6601,6.6601,6.6406,6.5898,6.5312,6.5312,6.4883,6.4297,6.4297,6.5234,6.6328,6.6328,6.6328,6.6367,6.6562,6.6484,6.6328,6.6328,6.6211,6.5781,6.4726,6.3437,6.2031,6.0469,6.0156,5.9687,5.8203,5.7734,5.7305,5.6211,5.6055,5.5937,5.5547,5.5508,5.5508,5.5508,5.4898,5.4772,5.5467,5.5726,5.6363,5.7597,5.8583,5.96,6.0786,6.1625,6.2157,6.241,6.223,6.2267,6.2567,6.1742,6.1314,6.1314,6.0519,5.9768,5.9077,5.8669,5.7645,4.7679,4.7396,4.7309,4.7309,4.7396,4.757,4.7972,0.0,0.0,4.7872,4.7462,4.7423,4.8827,4.9846,0.0,0.0,0.0,5.7189,0.0,0.0,0.0,0.0,0.0,0.0,0.0,0.0,0.0,6.1449,6.2173,6.2921,6.3526,6.3538,6.3589,6.3666,6.3654,6.4051,6.482,6.5705,6.609,6.6013,6.6821,6.6782,6.6013,6.6013,6.5974,6.5923,6.6059,0.0,0.0,6.6549,6.6738,6.6836,6.6015,6.5703,6.5625,6.4844,6.4492,6.4414,6.4414,6.4375,6.4297,6.4297,6.4414,6.4531,6.4531,6.4531,6.4687,6.5508,6.5156,6.4531,6.4531,6.3945,6.293,6.1289,6.0742,6.039,5.9492,5.9297,5.9023,5.8086,5.7265,5.6172,5.4531,5.4258,5.3711,5.2109,5.1875,5.1875,5.1875,5.2278,5.2582,5.266,5.3974,5.4909,5.5048,5.6387,5.7163,5.6956,5.9064,6.0281,6.0174,6.0927,6.1444,6.1715,6.0909,6.0489,6.0489,5.9639,5.9178,5.9044,5.7278,5.6398,4.7319,4.7309,4.7309,4.7309,4.7309,4.7189,4.6855,0.0,4.636,4.6532,4.6346,4.6326,4.6908,4.8328,5.0092,0.0,0.0,0.0,5.7767,0.0,0.0,0.0,0.0,0.0,0.0,0.0,6.0752,6.046,6.1016,6.1391,6.1385,6.2593,6.3308,6.3308,6.3308,6.3243,6.3089,6.3935,6.4089,6.364,6.4974,6.5436,6.5128,6.5667,6.5897,6.5923,6.6028,0.0,0.0,6.6507,6.6321,6.5917,6.5702,6.4961,6.3984,6.3633,6.3203,6.2734,6.2734,6.2734,6.2734,6.2734,6.2734,6.293,6.3984,6.4297,6.4375,6.4726,6.418,6.3515,6.3515,6.2461,6.125,6.0586,5.9648,5.8672,5.7812,5.7226,5.6601,5.5703,5.4844,5.4023,5.3359,5.2773,5.2187,5.1484,5.1406,5.1406,5.1406,5.1068,5.0787,5.0787,5.26,5.4023,5.4525,5.5346,5.5989,5.6393,5.7267,5.8016,5.8489,5.9018,5.9591,6.0188,5.9839,5.9639,5.9606,5.8111,5.7352,5.7315,5.5903,5.4419,4.689,4.716,4.7396,4.7679,4.757,4.7221,0.0,0.0,4.5925,4.5484,4.5365,4.5365,4.5365,4.679,4.8537,0.0,0.0,5.4979,5.7071,0.0,0.0,0.0,0.0,0.0,0.0,0.0,5.9592,5.935,5.9909,6.0152,5.9908,6.158,6.2551,6.2551,6.2551,6.2281,6.1716,6.2512,6.2666,6.2139,6.3551,6.4359,6.4628,6.5243,6.5667,6.591,6.5981,0.0,0.0,6.6012,6.5695,6.4947,6.4878,6.4062,6.2969,6.2695,6.2226,6.1719,6.1719,6.1719,6.1719,6.1719,6.1719,6.1914,6.3164,6.3515,6.3594,6.3828,6.3086,6.2109,6.1601,6.039,5.9219,5.8945,5.8203,5.7226,5.6055,5.5547,5.4961,5.3828,5.3125,5.2461,5.1719,5.1055,5.0508,4.9961,4.9883,4.9883,4.9883,4.9391,4.9041,4.9041,5.0627,5.2164,5.328,5.419,5.4914,5.5413,5.556,5.605,5.7008,5.7009,5.759,5.8888,5.8252,5.8012,5.8251,5.6525,5.573,5.5658,5.42,5.2105,4.6279,4.68,4.7538,4.8512,4.8233,4.7653,0.0,0.0,4.6054,4.4855,4.4615,4.4615,4.4615,4.5123,4.6317,4.8618,0.0,0.0,5.5605,0.0,0.0,0.0,0.0,0.0,0.0,0.0,5.7997,5.802,5.8874,0.0,5.9407,6.0297,6.0819,6.0819,6.0819,6.0819,6.0819,6.1678,6.2101,6.2101,6.2935,6.3782,6.4589,6.4628,6.5089,0.0,0.0,0.0,0.0,6.5023,6.4725,6.4052,6.3316,6.3008,6.289,6.2031,6.1719,6.1719,6.1719,6.1719,6.1719,6.1719,6.1719,6.1719,6.1719,6.1719,6.1914,6.2773,6.1758,6.0039,5.8398,5.7305,5.6406,5.5547,5.6015,5.6133,5.4414,5.4687,5.4805,5.3047,5.2695,5.1914,4.9375,4.8945,4.8359,4.6601,4.6367,4.6367,4.6367,4.685,4.7237,4.7237,4.7765,4.8856,5.0596,5.2609,5.3636,5.3277,5.3737,5.4537,5.5674,5.5021,5.5712,5.7967,5.6127,5.5512,5.6243,5.5134,5.463,5.4547,5.2015,4.9543,4.4825,4.5424,4.6033,4.6542,4.6841,4.6973,4.6774,0.0,4.6054,4.4855,4.4615,4.4615,4.4615,4.4776,4.6131,4.9929,5.1803,0.0,0.0,0.0,0.0,0.0,0.0,0.0,0.0,0.0,5.7997,5.7997,5.8874,5.9389,5.9389,6.0297,6.0781,6.0781,6.0781,6.0781,6.0781,6.105,6.1204,6.1204,6.205,6.2897,6.3743,6.432,6.4743,0.0,0.0,0.0,0.0,6.3997,6.3662,6.3005,6.2915,6.2568,6.207,6.1797,6.1719,6.1719,6.1719,6.1719,6.1719,6.1719,6.1719,6.1719,6.1719,6.1719,6.1523,6.0664,5.957,5.8437,5.7305,5.6367,5.5625,5.5351,5.4609,5.3633,5.2461,5.1948,5.1355,5.0312,4.9564,4.8855,4.8125,4.7539,4.6913,4.6273,4.6152,4.614,4.6059,4.6168,4.6246,4.6246,4.663,4.7777,5.0073,5.1152,5.1801,5.2103,5.2505,5.2677,5.2607,5.2674,5.328,5.4513,5.4207,5.4414,5.5125,5.3022,5.1118,4.9446,4.7668,4.5868,4.3589,4.4436,4.5223,4.6368,4.6548,0.0,0.0,0.0,4.586,4.4811,4.4615,4.4615,4.4615,4.4852,4.609,4.9422,5.1403,0.0,0.0,0.0,0.0,0.0,0.0,0.0,0.0,5.7997,5.7997,5.7997,5.8874,0.0,5.9389,6.0297,6.0781,6.0781,6.0781,6.0781,6.0781,6.0781,6.0781,6.0819,6.137,6.205,6.2858,6.3397,6.382,0.0,0.0,0.0,0.0,6.3023,6.2663,6.1952,6.2196,6.2037,6.1633,6.1679,6.1719,6.1719,6.1719,6.1719,6.1719,6.1719,6.1719,6.164,6.1328,6.1211,6.0859,5.918,5.8086,5.7148,5.5937,5.5234,5.4726,5.4414,5.3476,5.2344,5.1128,5.0409,4.9651,4.849,4.7762,4.724,4.7002,4.6266,4.5672,4.5593,4.5276,4.518,4.5425,4.5376,4.5435,4.5745,4.5821,4.6473,4.802,4.9346,5.0265,5.0618,5.0749,5.0737,5.0626,5.0524,5.0933,5.196,5.2373,5.265,5.2852,5.0534,4.8347,4.6265,4.4808,4.3343,0.0,4.3559,4.4719,4.7294,4.6869,4.6203,4.7471,0.0,0.0,4.475,4.4615,4.4615,4.4682,4.5229,4.6198,4.7803,5.054,0.0,0.0,5.6635,0.0,0.0,0.0,0.0,0.0,5.8033,5.7997,5.7997,0.0,0.0,5.9389,6.0297,6.0781,6.0781,6.0781,6.0781,6.0781,6.0781,6.0781,6.0781,6.0781,6.1204,6.2024,6.2024,6.2435,0.0,0.0,0.0,0.0,6.2143,6.1715,6.1048,6.1378,6.1498,6.1512,6.1637,6.1719,6.1719,6.1719,6.1719,6.168,6.164,6.1562,6.1367,6.0508,6.0234,5.9883,5.8242,5.7148,5.6015,5.4336,5.3906,5.3672,5.2812,5.2578,5.2029,5.0282,4.9835,4.9265,4.7466,4.709,4.6852,4.6035,4.5222,4.472,4.4673,4.3934,4.3661,4.4465,4.4544,4.4789,4.5588,4.5285,4.4978,4.4795,4.7371,4.8939,4.8814,4.8668,4.8855,4.9436,4.8632,4.8813,5.0217,5.0414,5.0194,4.9545,4.7793,4.6161,4.4645,4.3208,4.1703,4.0816,0.0,4.2417,4.3939,4.4413,4.485,0.0,4.5974,0.0,0.0,0.0,0.0,0.0,4.5602,4.6742,4.9884,0.0,5.4011,5.6027,0.0,0.0,0.0,0.0,0.0,0.0,5.8364,5.7997,0.0,0.0,5.9389,5.9389,6.0297,6.0781,6.0781,6.0781,6.0781,6.0781,6.0781,6.0781,6.0781,6.0781,6.0896,6.1089,6.1089,6.1204,0.0,0.0,0.0,6.11,6.1131,6.1098,6.1031,6.1265,6.14,6.1512,6.1637,6.1719,6.1719,6.1719,6.1719,6.1601,6.0937,6.0273,5.9609,5.875,5.8476,5.8281,5.7187,5.5781,5.4375,5.3281,5.3008,5.2773,5.1914,5.1166,5.0326,4.9259,4.8343,4.7489,4.6415,4.6152,4.6075,4.5944,4.5222,4.4651,4.4544,4.379,4.3284,4.3448,4.4006,4.4333,4.4288,4.4536,4.4401,4.366,4.6379,4.7522,4.6203,4.7685,4.812,4.7064,4.7067,4.7203,4.7528,4.7829,4.7387,4.6149,4.5712,4.4186,4.1655,4.1233,3.9593,4.0416,4.1273,4.2375,4.3727,4.4395,4.4982,4.595,0.0,0.0,0.0,0.0,0.0,0.0,0.0,0.0,0.0,5.3132,0.0,0.0,0.0,0.0,0.0,0.0,0.0,0.0,0.0,0.0,0.0,0.0,5.9065,5.9065,5.9962,6.0482,6.0482,6.071,6.0781,6.0781,6.0781,6.0781,6.0781,6.0396,6.0204,6.0204,5.9819,5.9665,0.0,0.0,0.0,6.0204,6.0204,6.0498,6.0935,6.1089,6.1277,6.1413,6.1573,6.1636,6.1719,6.1719,6.1445,6.0937,6.0031,5.9215,5.8359,5.7109,5.6445,5.6015,5.5547,5.4141,5.2617,5.1758,5.125,5.0703,4.98,4.9472,4.9047,4.7646,4.7245,4.6849,4.5958,4.5722,4.5725,4.5745,4.4756,4.3957,4.3856,4.276,4.2107,4.2447,4.3068,4.3551,4.3781,4.4121,4.3886,4.2867,4.5018,4.5936,4.4699,4.6433,4.6671,4.4818,4.4786,4.5082,4.5636,4.5409,4.4863,4.3916,4.3309,4.1801,3.9464,3.8735,3.7484,4.0848,4.2115,4.363,4.4641,4.5082,4.5485,4.6271,0.0,0.0,0.0,0.0,0.0,0.0,4.7913,0.0,0.0,0.0,0.0,5.877,0.0,0.0,0.0,0.0,0.0,0.0,0.0,0.0,0.0,0.0,5.8716,5.8796,5.9609,6.0132,6.0189,6.0597,6.0742,6.0589,6.0589,6.0589,6.0589,5.9742,5.9242,5.9088,5.8396,5.8088,5.8088,0.0,0.0,5.9319,5.9319,5.9742,6.0431,6.0712,6.0918,6.1116,6.137,6.1525,6.1635,6.1479,6.0854,5.9953,5.8853,5.7935,5.6949,5.5347,5.4253,5.3511,5.3394,5.2303,5.1016,5.0039,4.9336,4.8593,4.7476,4.7847,4.7996,4.618,4.6364,4.6636,4.5791,4.5594,4.5556,4.5441,4.4124,4.3047,4.2931,4.1623,4.0962,4.1651,4.2298,4.2927,4.3601,4.3792,4.3373,4.2161,4.358,4.4136,4.3256,4.4781,4.4806,4.2752,4.242,4.275,4.3819,4.3069,4.2457,4.1991,4.0808,3.9265,3.7402,3.6009,3.5129,4.1472,4.3767,4.5636,4.3996,4.4054,4.4622,4.4884,0.0,0.0,0.0,0.0,0.0,0.0,4.9783,5.1799,0.0,0.0,0.0,0.0,0.0,0.0,0.0,0.0,0.0,0.0,0.0,0.0,0.0,0.0,5.8874,5.9266,5.9823,6.0297,6.0659,6.0757,6.0435,5.9704,5.9704,5.9704,5.9704,5.8858,5.8088,5.7368,5.7253,5.7214,5.7214,0.0,5.7703,5.8473,5.8473,5.855,5.8776,5.963,5.9977,6.015,6.0993,6.1334,6.1276,6.0507,5.9693,5.8719,5.7138,5.555,5.4087,5.3065,5.2204,5.1386,5.0654,5.0436,5.0039,4.8398,4.8437,4.8475,4.6694,4.6872,4.7129,4.604,4.5827,4.5791,4.5642,4.5594,4.5364,4.4624,4.3701,4.2854,4.2124,4.1777,4.1549,4.1409,4.2675,4.3445,4.3007,4.3177,4.2668,4.1003,4.2364,4.2239,3.9764,4.2061,4.279,4.1206,4.102,4.0864,4.0669,4.0439,3.9836,3.8889,3.8676,3.6997,3.3953,3.3704,3.2211,4.1806,4.3976,4.5945,4.5343,4.6344,4.7508,0.0,0.0,0.0,0.0,0.0,0.0,0.0,0.0,0.0,0.0,0.0,0.0,0.0,0.0,0.0,0.0,0.0,0.0,0.0,0.0,0.0,0.0,0.0,0.0,5.8632,5.9319,5.9823,6.0059,6.0099,5.9896,5.9511,5.8588,5.8396,5.8858,5.8011,5.7396,5.6983,5.6522,5.6291,5.6291,0.0,5.678,5.7588,5.7588,5.7896,5.833,5.8816,5.9031,5.9218,6.0223,6.0283,5.9849,5.9328,5.8084,5.6436,5.5093,5.388,5.2738,5.1916,5.106,5.0204,4.9352,4.9188,4.8972,4.7723,4.7023,4.6267,4.4857,4.5133,4.5475,4.4527,4.463,4.4893,4.4893,4.4547,4.4124,4.3701,4.297,4.2277,4.1846,4.1393,4.1157,4.1274,4.2199,4.2711,4.2353,4.2304,4.149,3.9568,4.0525,4.1014,4.0539,4.0428,4.0059,3.9384,3.8255,3.784,3.8233,3.7715,3.661,3.4906,3.5016,3.3409,3.0183,2.9327,2.8229,4.2462,4.4233,4.6143,4.6853,0.0,0.0,0.0,0.0,0.0,0.0,0.0,0.0,0.0,0.0,0.0,0.0,0.0,0.0,0.0,0.0,0.0,0.0,0.0,0.0,0.0,0.0,0.0,0.0,0.0,0.0,5.8164,5.8835,5.9244,5.9278,5.9314,5.9199,5.8934,5.7638,5.7319,5.7973,5.7088,5.6714,5.6676,5.6011,5.5703,5.5703,5.5703,5.6088,5.6714,5.6714,5.7088,5.7703,5.7934,5.8189,5.8505,5.911,5.8855,5.8213,5.7744,5.6203,5.433,5.3391,5.2545,5.1779,5.0957,5.0219,4.9487,4.8433,4.8122,4.7944,4.7115,4.581,4.4461,4.3424,4.3698,4.3956,4.3018,4.3431,4.4008,4.4008,4.3466,4.2932,4.2701,4.2082,4.151,4.1309,4.0896,4.073,4.1038,4.1619,4.189,4.1556,4.1049,3.9822,3.7505,3.7091,3.7604,3.9143,3.7909,3.7021,3.6769,3.5111,3.4411,3.4994,3.4208,3.2658,3.027,3.0538,2.8979,2.5801,2.4575,2.3964,4.3834,4.5454,4.6887,4.7665,4.6921,0.0,4.8612,4.797,0.0,4.8714,0.0,0.0,0.0,0.0,0.0,0.0,0.0,0.0,0.0,0.0,0.0,0.0,0.0,0.0,0.0,0.0,0.0,0.0,0.0,0.0,5.8632,5.8696,5.8783,5.8849,5.8845,5.831,5.7176,5.706,5.7022,5.7099,5.6203,5.578,5.578,5.5742,5.5703,5.5703,5.5703,5.5742,5.578,5.578,5.5818,5.5972,5.6791,5.7599,5.8237,5.7499,5.7163,5.6894,5.5322,5.4128,5.3186,5.2309,5.1472,5.0653,4.9797,4.9489,4.9103,4.7486,4.7015,4.6846,4.6168,4.5339,4.4461,4.3424,4.3233,4.3028,4.2094,4.2585,4.3201,4.3201,4.288,4.2382,4.157,4.1174,4.0692,3.9876,4.039,4.0764,4.0419,4.1332,4.1573,4.0506,3.9334,3.7364,3.4312,3.0891,2.9527,3.0949,3.3172,3.3904,3.276,3.1745,3.0829,2.9913,2.924,2.7554,2.4781,2.5122,2.3558,2.0276,2.0259,1.9632,4.3406,4.5217,4.6853,4.7158,4.6786,0.0,0.0,5.0596,5.1321,5.2915,0.0,0.0,0.0,0.0,0.0,0.0,0.0,0.0,0.0,0.0,0.0,0.0,0.0,0.0,0.0,0.0,0.0,0.0,0.0,0.0,5.826,5.8528,5.8481,5.7991,5.7753,5.7142,5.6216,5.5938,5.581,5.581,5.573,5.5703,5.5703,5.5703,5.5703,5.5703,5.5703,5.5703,5.5703,5.5703,5.5703,5.5742,5.6049,5.6395,5.6626,5.6319,5.5511,5.4549,5.3895,5.2779,5.1587,5.1241,5.0587,4.9817,4.951,4.8663,4.7702,4.7077,4.6124,4.5205,4.4977,4.4323,4.3459,4.2531,4.2324,4.2187,4.1616,4.1762,4.1915,4.1757,4.1174,4.0642,4.029,4.0163,3.9969,3.9656,3.9614,3.9658,3.9845,3.9955,3.9838,3.9363,3.5726,3.2507,3.0409,2.6083,2.4122,2.5614,2.836,2.983,2.9591,2.7458,2.6245,2.6087,2.4108,2.2224,2.0401,2.0809,1.9907,1.7755,1.6887,1.6311,4.4164,4.5593,4.6921,0.0,0.0,0.0,5.0943,5.1939,5.2944,5.5274,0.0,0.0,0.0,0.0,0.0,0.0,0.0,0.0,0.0,0.0,0.0,0.0,0.0,0.0,0.0,0.0,0.0,0.0,0.0,0.0,0.0,5.8045,5.7786,5.7091,5.6573,5.5956,5.533,5.5041,5.4905,5.4905,5.5186,5.5446,5.5703,5.5703,5.5703,5.5703,5.5703,5.5703,5.5703,5.5703,5.5703,5.5703,5.5703,5.5549,5.528,5.5011,5.401,5.2721,5.2329,5.1463,5.0455,5.0063,4.9625,4.9102,4.8443,4.7517,4.657,4.5954,4.49,4.3867,4.3379,4.2944,4.253,4.1801,4.1438,4.1185,4.0822,4.0771,4.0707,4.0518,3.9936,3.9438,3.9438,3.9226,3.9069,3.9069,3.8617,3.8324,3.8483,3.8257,3.7615,3.6432,3.1739,2.7993,2.6255,2.1919,1.9532,1.99,2.1475,2.3218,2.5056,2.2704,2.153,2.1813,1.9615,1.746,1.5555,1.6002,1.5481,1.4002,1.3106,1.2794,4.6511,4.6786,4.7158,0.0,0.0,0.0,5.1888,5.1228,5.1213,0.0,0.0,0.0,0.0,0.0,0.0,0.0,0.0,0.0,0.0,0.0,0.0,0.0,0.0,0.0,0.0,0.0,0.0,0.0,0.0,0.0,0.0,5.7262,5.6624,5.6214,5.5396,5.4836,5.4506,5.4484,5.4484,5.4484,5.4484,5.4905,5.5703,5.5703,5.5703,5.5703,5.5703,5.5703,5.5703,5.5703,5.5703,5.5703,5.5703,5.5203,5.4395,5.351,5.2615,5.169,5.0524,5.0073,4.991,4.8675,4.8516,4.84,4.6416,4.6025,4.5871,4.3856,4.3303,4.2926,4.1314,4.135,4.1711,4.1371,4.0653,4.0002,3.9687,3.958,3.958,3.958,3.9314,3.908,3.908,3.8428,3.7876,3.7876,3.7488,3.6911,3.618,3.6273,3.5053,3.1455,2.7544,2.4217,2.186,1.8411,1.5466,1.3413,1.2108,1.3754,1.881,1.7563,1.6716,1.6716,1.5714,1.3474,0.9949,1.0379,0.9863,0.8452,0.8719,0.8859,4.4187,4.5974,4.7679,4.8117,0.0,0.0,0.0,5.395,0.0,0.0,0.0,0.0,0.0,0.0,0.0,0.0,0.0,0.0,0.0,0.0,0.0,0.0,0.0,0.0,0.0,0.0,0.0,0.0,0.0,0.0,0.0,5.7262,5.6485,5.5813,5.5023,5.4236,5.3583,5.387,5.3995,5.4013,5.4338,5.4609,5.4862,5.516,5.5262,5.5275,5.5577,5.5703,5.5703,5.5703,5.5703,5.5626,5.5088,5.4357,5.3472,5.2615,5.1579,5.0585,5.0224,4.9556,4.8778,4.8404,4.7562,4.6555,4.5972,4.5482,4.4865,4.363,4.2875,4.2234,4.1163,4.0571,4.0241,4.0127,3.9499,3.8968,3.9202,3.8802,3.8501,3.8901,3.8573,3.8255,3.8255,3.7771,3.7396,3.7396,3.6561,3.534,3.3622,3.2324,3.0721,2.8507,2.5053,2.1835,1.9297,1.5596,1.2516,1.0325,0.8867,0.9431,1.2351,1.0984,1.0113,1.0113,0.8783,0.7605,0.6532,0.6819,0.6745,0.6492,0.6622,0.6759,4.6132,4.7804,0.0,4.9962,5.1506,5.3372,5.5462,0.0,0.0,0.0,0.0,0.0,0.0,0.0,0.0,0.0,0.0,0.0,0.0,0.0,0.0,0.0,0.0,0.0,0.0,0.0,0.0,0.0,0.0,0.0,0.0,5.6748,5.5941,5.5133,5.4326,5.3702,5.3203,5.3424,5.3565,5.3565,5.3833,5.3979,5.3997,5.4594,5.4848,5.4876,5.5275,5.5446,5.5458,5.5621,5.5511,5.5154,5.4506,5.3502,5.2368,5.1717,5.0773,4.977,4.9308,4.8659,4.7913,4.7124,4.648,4.5894,4.5125,4.4659,4.4106,4.2805,4.1852,4.1064,4.0328,3.9751,3.9286,3.899,3.8538,3.8191,3.8167,3.7779,3.7551,3.8003,3.7861,3.7614,3.7614,3.6988,3.6461,3.6461,3.4946,3.3048,3.1059,2.9296,2.7524,2.5597,2.2312,1.9184,1.6555,1.3297,1.0151,0.7169,0.6177,0.5771,0.5823,0.615,0.6354,0.6354,0.5556,0.475,0.4045,0.4256,0.4365,0.4505,0.4698,0.4716,5.0035,5.0813,5.1454,5.3008,5.3614,0.0,5.7337,5.7997,0.0,0.0,0.0,0.0,0.0,0.0,0.0,0.0,0.0,0.0,0.0,0.0,0.0,0.0,0.0,0.0,0.0,0.0,0.0,0.0,0.0,0.0,0.0,5.6051,5.5207,5.4436,5.3628,5.3203,5.3203,5.3203,5.3203,5.3203,5.3203,5.3203,5.3209,5.4068,5.4452,5.45,5.4876,5.5067,5.508,5.5435,5.5127,5.4337,5.3913,5.2717,5.1231,5.0833,5.0093,4.9175,4.8093,4.7595,4.7124,4.5365,4.5449,4.5923,4.4149,4.382,4.3658,4.1675,4.0606,3.9886,3.921,3.8996,3.8755,3.802,3.7816,3.7636,3.6893,3.6674,3.6734,3.7125,3.7154,3.7097,3.7058,3.609,3.5273,3.5058,3.2688,3.0308,2.8526,2.6819,2.498,2.2885,1.9514,1.6448,1.4016,1.1589,0.8422,0.4288,0.4117,0.2941,0.0118,0.2845,0.4426,0.4426,0.4557,0.3855,0.2251,0.2415,0.2533,0.2608,0.2744,0.2723,4.5727,4.8139,0.0,0.0,5.4395,5.6505,5.7724,5.7997,0.0,0.0,0.0,0.0,0.0,0.0,0.0,0.0,0.0,0.0,0.0,0.0,0.0,0.0,0.0,0.0,0.0,0.0,0.0,0.0,0.0,0.0,5.6859,5.6051,5.5207,5.4436,5.3628,5.3203,5.3203,5.3203,5.3203,0.0,5.3203,5.3203,5.3246,5.3702,5.4153,5.4484,5.4579,5.4625,5.4625,5.4716,5.4267,5.3409,5.2702,5.1802,5.0818,5.0075,4.9047,4.8039,4.7809,4.6689,4.5401,4.5589,4.5386,4.4979,4.458,4.4485,4.4083,4.1923,4.1216,4.0799,3.9605,3.8864,3.8247,3.7452,3.7256,3.7256,3.7129,3.6558,3.6308,3.7069,3.6845,3.6422,3.5878,3.5217,3.417,3.2462,2.9895,2.782,2.6871,2.3771,2.1712,2.1766,1.7857,1.4863,1.3874,1.1512,0.8311,0.4232,0.4015,0.2849,0.0118,0.0667,0.1048,0.1048,0.1079,0.0903,0.0516,0.0599,0.0612,0.0618,0.0629,0.0634,4.6115,0.0,0.0,5.3,0.0,5.6527,5.7327,5.775,0.0,0.0,0.0,0.0,0.0,0.0,0.0,0.0,0.0,0.0,0.0,0.0,0.0,0.0,0.0,0.0,0.0,0.0,0.0,0.0,0.0,5.7483,5.6271,5.5831,5.506,5.3849,5.3445,5.3203,5.3203,5.3203,5.3203,5.3203,5.3203,5.3203,5.3225,5.3404,5.3643,5.3907,5.4066,5.417,5.4187,5.4404,5.3783,5.256,5.1941,5.096,4.9802,4.9164,4.8276,4.7364,4.6957,4.6135,4.5296,4.5296,4.5296,4.5223,4.4819,4.4254,4.3432,4.1847,4.0934,4.0281,3.9708,3.9,3.8196,3.7188,3.6719,3.6475,3.6264,3.564,3.5275,3.5826,3.5475,3.4951,3.4613,3.3698,3.2078,2.931,2.7733,2.6206,2.4459,2.2138,2.0459,1.9943,1.6301,1.361,1.2929,0.996,0.6923,0.4179,0.34,0.2101,0.0059,0.0,0.0,0.0,0.0,0.0,0.0,0.0,0.0,0.0,0.0,0.0,4.6651,4.926,5.1554,5.4008,5.5144,0.0,5.6695,0.0,0.0,0.0,0.0,0.0,0.0,0.0,0.0,0.0,0.0,0.0,0.0,0.0,0.0,0.0,0.0,0.0,0.0,0.0,0.0,0.0,0.0,5.7152,5.5706,5.5464,5.473,5.324,5.3203,5.3203,5.3203,5.3203,5.3203,5.3203,5.3203,5.3203,5.3203,5.3203,5.3203,5.3246,5.3546,5.3702,5.372,5.3951,5.3165,5.1743,5.1277,5.0152,4.8761,4.8421,4.7719,4.6782,4.614,4.5755,4.5462,4.4894,4.515,4.5477,4.482,4.3717,4.2537,4.1613,4.0522,3.9687,3.9755,3.9032,3.8013,3.7062,3.6141,3.5402,3.5021,3.4496,3.4172,3.4355,3.377,3.3145,3.2982,3.1726,2.9673,2.6739,2.6015,2.4862,2.2138,2.0958,1.9683,1.7877,1.4747,1.2498,1.1628,0.8153,0.5408,0.4073,0.2745,0.1421,0.0059,0.0,0.0,0.0,0.0,0.0,0.0,0.0,0.0,0.0,0.0,0.0,4.1321,0.0,5.0794,0.0,5.5144,5.592,0.0,0.0,0.0,0.0,0.0,0.0,0.0,0.0,0.0,0.0,0.0,0.0,0.0,0.0,0.0,0.0,0.0,0.0,0.0,0.0,0.0,0.0,5.7336,5.6565,5.5669,5.495,5.4142,5.3203,5.3203,5.3203,5.3203,5.3203,5.3203,5.3203,5.3203,5.3203,5.3203,5.3203,5.3203,5.3225,5.3251,5.3293,5.3219,5.2602,5.1794,5.089,5.0151,4.9229,4.8364,4.8325,4.7352,4.603,4.5957,4.5111,4.416,4.4758,4.4668,4.4333,4.4227,4.36,4.2668,4.1343,4.0838,4.0597,4.0148,3.853,3.7012,3.6835,3.5316,3.3908,3.3809,3.3734,3.3698,3.3744,3.2582,3.1386,3.0602,2.9209,2.7756,2.6493,2.4897,2.3172,2.1292,1.9362,1.7515,1.5722,1.324,1.1306,1.032,0.7664,0.5408,0.4073,0.2745,0.1421,0.0059,0.0,0.0,0.0,0.0,0.0,0.0,0.0,0.0,0.0,0.0,0.0,4.0904,4.5149,4.9183,0.0,5.3817,5.5291,5.6031,0.0,0.0,0.0,0.0,0.0,0.0,0.0,0.0,0.0,0.0,0.0,0.0,0.0,0.0,0.0,0.0,0.0,0.0,0.0,0.0,0.0,5.7262,5.6455,5.5647,5.484,5.4032,5.3203,5.3203,5.3203,5.3203,5.3203,5.3203,5.3203,5.3203,5.3203,5.3203,5.3203,5.3203,5.3203,5.3203,5.3203,5.3151,5.2344,5.1536,5.0729,4.9904,4.9077,4.8306,4.8306,4.707,4.5452,4.5452,4.4786,4.4036,4.4378,4.4311,4.4089,4.4089,4.3039,4.1763,4.1082,4.0662,4.0392,4.0154,3.873,3.7281,3.6879,3.4519,3.2348,3.227,3.2032,3.162,3.0761,3.0046,2.9391,2.8805,2.7729,2.6417,2.4933,2.3178,2.1585,2.0251,1.8447,1.6773,1.5271,1.3072,1.095,0.9034,0.641,0.4303,0.2956,0.1601,0.0629,0.0,0.0,0.0,0.0,0.0,0.0,0.0,0.0,0.0,0.0,0.0,0.0,0.0,0.0,4.6529,4.8855,5.1564,5.3852,0.0,0.0,0.0,0.0,0.0,0.0,0.0,0.0,0.0,0.0,0.0,0.0,0.0,0.0,0.0,0.0,0.0,0.0,0.0,0.0,0.0,0.0,5.7079,5.6167,5.5373,5.4554,5.3683,5.2717,5.2813,5.285,5.268,5.2658,5.2658,5.268,5.285,5.2915,5.2915,5.2915,5.2915,5.2937,5.3124,5.3203,5.3093,5.2123,5.1234,5.0451,4.9448,4.8543,4.7818,4.7818,4.6576,4.4875,4.5054,4.4577,4.3897,4.4085,4.3921,4.3605,4.3428,4.2002,4.0422,4.0158,3.9826,3.9506,3.9506,3.8381,3.7003,3.6137,3.3589,3.1161,3.0382,3.0045,2.9435,2.7821,2.748,2.729,2.6747,2.6139,2.5099,2.3141,2.1822,2.0501,1.9012,1.7451,1.5933,1.4431,1.2241,0.9968,0.77,0.5056,0.3067,0.2069,0.0727,0.0,0.0,0.0,0.0,0.0,0.0,0.0,0.0,0.0,0.0,0.0,0.0,0.0,0.0,3.9546,0.0,4.4726,4.8292,0.0,0.0,0.0,0.0,0.0,0.0,0.0,0.0,0.0,0.0,0.0,0.0,0.0,0.0,0.0,0.0,0.0,0.0,0.0,0.0,0.0,0.0,0.0,5.6528,5.5386,5.4689,5.3762,5.2627,5.1241,5.185,5.1874,5.1215,5.1215,5.1215,5.1215,5.1838,5.2159,5.2159,5.2159,5.2159,5.2183,5.2893,5.3203,5.3078,5.1499,5.0477,4.9712,4.8135,4.7102,4.6483,4.6483,4.5526,4.424,4.4949,4.4354,4.3346,4.4048,4.3434,4.2252,4.1566,4.0227,3.8881,3.8161,3.7933,3.7937,3.7937,3.6817,3.5332,3.3909,3.2343,3.0522,2.8038,2.7915,2.7759,2.5902,2.5542,2.5176,2.3957,2.4055,2.3569,2.1352,2.1285,2.0424,1.7504,1.5983,1.4384,1.2287,0.9755,0.7651,0.6226,0.3632,0.2085,0.2016,0.0743,0.0,0.0,0.0,0.0,0.0,0.0,0.0,0.0,0.0,0.0,0.0,0.0,0.0,0.0,0.0,0.0,4.1662,4.4949,0.0,0.0,0.0,0.0,0.0,0.0,0.0,0.0,0.0,0.0,0.0,0.0,0.0,0.0,0.0,0.0,0.0,0.0,0.0,0.0,0.0,0.0,0.0,0.0,5.4875,5.3187,5.2726,5.2065,5.1138,5.1343,5.1343,5.1112,5.1086,5.1086,5.1112,5.1343,5.1469,5.1469,5.1469,5.1469,5.1469,5.1752,5.1562,5.1048,4.997,4.9077,4.8341,4.7224,4.66,4.6389,4.6389,4.5199,4.3604,4.3884,4.3375,4.2576,4.2274,4.1905,4.1427,4.0619,3.935,3.8133,3.7879,3.7793,3.7674,3.7048,3.6137,3.4503,3.116,2.9514,2.7914,2.5274,2.5326,2.5461,2.3973,2.3886,2.3872,2.3268,2.2764,2.195,2.0365,1.9256,1.7945,1.6015,1.4913,1.3065,0.9755,0.8583,0.6746,0.3717,0.255,0.1616,0.0776,0.0288,0.0,0.0,0.0,0.0,0.0,0.0,0.0,0.0,0.0,0.0,0.0,0.0,0.0,3.2342,0.0,0.0,0.0,0.0,0.0,0.0,0.0,0.0,0.0,0.0,0.0,0.0,0.0,0.0,0.0,0.0,0.0,0.0,0.0,0.0,0.0,0.0,0.0,0.0,0.0,0.0,0.0,0.0,0.0,5.2048,5.1821,5.1444,5.0743,5.05,5.0397,5.0397,5.0153,5.0041,5.0041,5.0004,4.9996,4.9996,5.0251,5.0356,5.0356,5.0367,5.0241,4.9933,4.9128,4.8226,4.7276,4.6453,4.5965,4.579,4.579,4.4599,4.2987,4.321,4.2678,4.1805,4.1439,4.1069,4.059,3.9747,3.8519,3.7263,3.6691,3.6507,3.6292,3.5145,3.3959,3.2274,2.9396,2.7421,2.5644,2.3602,2.358,2.3539,2.2085,2.2025,2.2018,2.1483,2.0926,2.005,1.8413,1.7265,1.5966,1.4235,1.3183,1.1434,0.8329,0.7192,0.5404,0.2264,0.158,0.0929,0.0056,0.0,0.0,0.0,0.0,0.0,0.0,0.0,0.0,0.0,0.0,0.0,0.0,0.0,0.0,0.0,0.0,0.0,0.0,0.0,0.0,0.0,0.0,0.0,0.0,0.0,0.0,0.0,0.0,0.0,0.0,0.0,0.0,0.0,0.0,0.0,0.0,0.0,0.0,0.0,0.0,0.0,0.0,5.3131,5.1985,5.1263,5.1111,5.0716,4.997,4.9312,4.8951,4.8951,4.824,4.7872,4.7868,4.7801,4.7781,4.7815,4.8543,4.8855,4.8903,4.8946,4.9304,4.9796,4.9053,4.7889,4.6551,4.5745,4.5089,4.4559,4.4525,4.3551,4.2362,4.3002,4.2246,4.1114,4.1754,4.099,3.9718,3.887,3.7652,3.6166,3.4451,3.3945,3.3631,3.2124,3.0187,2.8615,2.8615,2.633,2.3886,2.3079,2.2724,2.2056,2.0313,1.9984,1.9595,1.8394,1.8518,1.7911,1.5448,1.5411,1.4731,1.2183,1.0779,0.9444,0.804,0.5558,0.3466,0.2063,0.0754,0.0,0.0,0.0,0.0,0.0,0.0,0.0,0.0,0.0,0.0,0.0,0.0,0.0,0.0,0.0,0.0,3.1085,0.0,0.0,0.0,0.0,0.0,0.0,0.0,0.0,0.0,0.0,0.0,0.0,0.0,0.0,0.0,0.0,0.0,0.0,0.0,0.0,0.0,0.0,0.0,0.0,0.0,0.0,0.0,5.2576,5.1528,4.9718,4.9599,4.9222,4.8503,4.8297,4.797,4.7394,4.7192,4.709,4.709,4.7087,4.7345,4.7856,4.7515,4.7958,4.8946,4.8433,4.7639,4.6764,4.7187,4.6514,4.5097,4.4236,4.3794,4.3591,4.2953,4.2091,4.1316,4.1491,4.1269,4.0858,4.0382,4.0028,3.9363,3.7366,3.6143,3.5103,3.3472,3.2982,3.2659,3.1163,2.8718,2.6599,2.6599,2.4533,2.2533,2.2274,2.1242,2.0169,1.9641,1.9159,1.8624,1.7961,1.7934,1.715,1.4609,1.4338,1.3476,1.0877,1.0239,0.8746,0.5458,0.4464,0.3065,0.0757,0.0216,0.0,0.0,0.0,0.0,0.0,0.0,0.0,0.0,0.0,0.0,0.0,0.0,0.0,0.0,0.0,0.0,0.0,0.0,0.0,0.0,0.0,0.0,0.0,0.0,0.0,0.0,0.0,0.0,0.0,0.0,0.0,0.0,0.0,0.0,0.0,0.0,0.0,0.0,0.0,0.0,0.0,5.4275,5.2691,5.152,5.1113,5.0379,4.908,4.9018,4.868,4.7906,4.7906,4.7564,4.6786,4.6481,4.6346,4.6346,4.6007,4.6109,4.6515,4.6413,4.6776,4.7481,4.7077,4.6144,4.4918,4.5164,4.4556,4.3469,4.2986,4.2738,4.2709,4.2494,4.1789,4.0928,4.1179,4.0859,4.019,3.9161,3.8687,3.8088,3.5985,3.4852,3.3951,3.2198,3.1065,3.0184,2.9324,2.7304,2.548,2.548,2.3668,2.2,2.2,2.0154,1.8614,1.8842,1.8304,1.7623,1.699,1.6904,1.6028,1.344,1.3054,1.2134,0.9509,0.9164,0.8067,0.5168,0.4318,0.3126,0.1019,0.0325,0.0,0.0,0.0,0.0,0.0,0.0,0.0,0.0,0.0,0.0,0.0,0.0,0.0,0.0,0.0,0.0,0.0,0.0,0.0,0.0,0.0,0.0,0.0,0.0,0.0,0.0,0.0,0.0,0.0,0.0,0.0,0.0,0.0,0.0,0.0,0.0,0.0,0.0,0.0,0.0,5.454,5.239,5.0811,5.0135,4.9424,4.9018,4.9018,4.9018,4.868,4.7906,4.7906,4.7564,4.6786,4.6075,4.5645,4.5554,4.4811,4.4446,4.4461,4.5005,4.529,4.5272,4.5237,4.4691,4.3799,4.3194,4.2589,4.1981,4.1885,4.1853,4.1916,4.2485,4.1848,4.0799,4.1286,4.0578,3.9287,3.7996,3.7172,3.6384,3.4687,3.3733,3.2818,3.0811,2.8872,2.7369,2.7187,2.5995,2.4814,2.4707,2.3231,2.1811,2.1697,1.9413,1.7458,1.7884,1.7336,1.6553,1.5907,1.5784,1.4902,1.229,1.1901,1.0974,0.8329,0.7988,0.7484,0.6132,0.4922,0.3644,0.2117,0.0923,0.0169,0.0,0.0,0.0,0.0,0.0,0.0,0.0,0.0,0.0,0.0,0.0,0.0,0.0,0.0,0.0,0.0,0.0,0.0,0.0,0.0,0.0,0.0,0.0,0.0,0.0,0.0,0.0,0.0,0.0,0.0,0.0,0.0,0.0,0.0,0.0,0.0,0.0,0.0,0.0,0.0,5.1632,5.0236,5.0101,4.9424,4.9018,4.9018,4.9018,4.868,4.7906,4.7906,4.7564,4.6786,4.6075,4.535,4.4652,4.3893,4.3495,4.3394,4.2941,4.3363,4.4395,4.3848,4.3064,4.2247,4.2091,4.2027,4.1917,4.1231,4.0961,4.0922,4.0898,4.04,3.9728,3.9823,3.9299,3.8372,3.6836,3.6274,3.5718,3.3332,3.2524,3.1978,2.9804,2.8596,2.7639,2.6421,2.4951,2.3599,2.2765,2.1697,2.0663,1.9786,1.8586,1.7479,1.6676,1.5907,1.5477,1.5738,1.5784,1.4902,1.229,1.1901,1.0974,0.8329,0.7988,0.7484,0.6132,0.5777,0.4607,0.222,0.1771,0.1168,0.0057,0.0,0.0,0.0,0.0,0.0,0.0,0.0,0.0,0.0,0.0,0.0,0.0,0.0,0.0,0.0,0.0,0.0,3.4703,0.0,0.0,0.0,0.0,0.0,0.0,0.0,0.0,0.0,0.0,0.0,0.0,0.0,0.0,0.0,0.0,0.0,0.0,0.0,0.0,0.0,5.1008,4.9932,4.9593,4.9221,4.9018,4.9018,4.8545,4.7955,4.7223,4.6744,4.6157,4.5399,4.5037,4.4653,4.4204,4.3847,4.3428,4.307,4.3004,4.2964,4.2908,4.2561,4.1922,4.1071,4.0736,4.065,4.0653,4.0205,4.006,4.0016,3.9699,3.9506,3.9265,3.8256,3.7812,3.7353,3.5199,3.4491,3.4146,3.2044,3.1035,3.0328,2.9227,2.8151,2.7065,2.608,2.4474,2.2918,2.2155,2.1298,2.0333,1.9234,1.8256,1.725,1.6272,1.5514,1.5142,1.5538,1.5725,1.4902,1.229,1.1901,1.0974,0.8329,0.7988,0.7739,0.7086,0.648,0.5588,0.4285,0.2867,0.1787,0.1146,0.0415,0.0,0.0,0.0,0.0,0.0,0.0,0.0,0.0,0.0,0.0,0.0,0.0,0.0,0.0,0.0,0.0,0.0,0.0,3.3343,0.0,0.0,0.0,0.0,0.0,0.0,0.0,0.0,0.0,0.0,0.0,0.0,0.0,0.0,0.0,0.0,0.0,0.0,0.0,5.0127,4.9396,4.8801,4.8601,4.8505,4.8448,4.7737,4.7044,4.6454,4.5717,4.5051,4.4441,4.4281,4.4116,4.3944,4.3817,4.34,4.2692,4.3261,4.2751,4.1458,4.1458,4.0969,4.0121,3.94,3.909,3.909,3.909,3.909,3.9069,3.865,3.862,3.8546,3.6905,3.6427,3.6097,3.3596,3.262,3.215,3.086,2.9829,2.9038,2.8913,2.7824,2.651,2.5816,2.4225,2.2673,2.1983,2.1286,2.0351,1.8975,1.794,1.6967,1.5913,1.5311,1.5102,1.5351,1.5444,1.4615,1.2242,1.1707,1.0681,0.8287,0.7988,0.8002,0.8029,0.7211,0.6608,0.6378,0.4044,0.2468,0.2231,0.0824,0.0,0.0,0.0,0.0,0.0,0.0,0.0,0.0,0.0,0.0,0.0,0.0,0.0,0.0,0.0,0.0,0.0,3.6865,0.0,0.0,0.0,0.0,0.0,0.0,0.0,0.0,0.0,0.0,0.0,0.0,0.0,0.0,0.0,0.0,0.0,0.0,0.0,0.0,0.0,4.8034,4.7802,4.7143,4.6717,4.6526,4.6419,4.6317,4.6252,4.6115,4.6013,4.5949,4.5307,4.457,4.3785,4.3189,4.2412,4.1572,4.1663,4.1257,4.0544,4.0544,4.0177,3.9457,3.8427,3.7994,3.7994,3.7994,3.7994,3.7938,3.7529,3.7016,3.6526,3.629,3.5543,3.4416,3.2711,3.1241,3.0149,2.9943,2.9804,2.9578,2.9038,2.8069,2.6877,2.5477,2.415,2.2894,2.159,2.1192,2.0476,1.8008,1.7374,1.6698,1.4699,1.4707,1.5102,1.5351,1.4666,1.3584,1.2134,1.0925,0.9657,0.8187,0.7988,0.8092,0.8228,0.8153,0.7644,0.6544,0.4955,0.349,0.2287,0.0806,0.0,0.0,0.0,0.0,0.0,0.0,0.0,0.0,0.0,0.0,0.0,0.0,0.0,0.0,0.0,0.0,0.0,0.0,0.0,3.2466,0.0,3.2064,0.0,0.0,0.0,0.0,0.0,0.0,0.0,0.0,0.0,0.0,0.0,0.0,0.0,0.0,0.0,0.0,0.0,0.0,0.0,0.0,4.5884,4.6176,4.5706,4.5379,4.5379,4.4825,4.4517,4.4517,4.4202,4.3891,4.351,4.3198,4.2666,4.1991,4.2342,4.1953,4.0965,4.0965,4.0278,3.8998,3.8138,3.7434,3.6799,3.6239,3.6358,3.6805,3.6402,3.6416,3.6508,3.4921,3.4258,3.3682,3.1448,3.0304,2.9804,2.9804,2.9804,2.9613,2.8694,2.7656,2.6479,2.4942,2.3699,2.265,2.1781,2.09,1.9802,1.8069,1.699,1.5902,1.4419,1.4606,1.4765,1.413,1.3943,1.3199,1.1121,1.0337,0.9509,0.8187,0.7988,0.8099,0.8255,0.8343,0.8269,0.7822,0.6478,0.506,0.361,0.1313,0.0,0.0,0.0,0.0,0.0,0.0,0.0,0.0,0.0,0.0,0.0,0.0,0.0,3.7584,0.0,0.0,0.0,0.0,0.0,0.0,0.0,0.0,0.0,0.0,0.0,0.0,0.0,0.0,0.0,0.0,0.0,0.0,0.0,0.0,0.0,0.0,0.0,0.0,0.0,0.0,0.0,0.0,0.0,4.5389,4.4743,4.4396,4.4396,4.3654,4.329,4.329,4.329,4.329,4.329,4.329,4.309,4.2641,4.312,4.2505,4.1172,4.1033,3.9984,3.8279,3.7473,3.6615,3.5749,3.502,3.4982,3.5332,3.4958,3.5326,3.5678,3.359,3.2883,3.2578,3.048,2.9804,2.9804,2.9804,2.9585,2.9145,2.8347,2.7116,2.5773,2.468,2.3529,2.2578,2.2168,2.1199,1.9965,1.8423,1.7227,1.6007,1.4622,1.4713,1.4643,1.3435,1.3295,1.2571,1.0337,0.9706,0.9114,0.8137,0.8029,0.816,0.8316,0.8459,0.8608,0.8757,0.7486,0.5866,0.3968,0.181,0.0401,0.0,0.0,0.0,0.0,0.0,0.0,0.0,0.0,0.0,0.0,0.0,0.0,0.0,0.0,0.0,3.7034,0.0,0.0,0.0,0.0,3.219,0.0,0.0,0.0,0.0,0.0,0.0,0.0,0.0,0.0,0.0,0.0,0.0,0.0,0.0,0.0,0.0,0.0,0.0,0.0,0.0,0.0,4.3358,4.3369,4.3329,4.3329,4.3329,4.329,4.329,4.329,4.329,4.329,4.329,4.329,4.326,4.329,4.2315,4.0579,4.0054,3.8825,3.707,3.5999,3.5262,3.4741,3.471,3.4111,3.3197,3.3179,3.3179,3.3147,3.2483,3.1537,3.0597,2.998,2.9804,2.9804,2.9804,2.9028,2.8124,2.8124,2.6521,2.483,2.4808,2.3953,2.2964,2.2598,2.2438,2.1646,1.8947,1.8347,1.7656,1.5414,1.4995,1.476,1.4005,1.2802,1.1512,1.019,0.8874,0.8038,0.7988,0.8174,0.8316,0.8459,0.8615,0.8764,0.8865,0.7537,0.5413,0.2459,0.2181,0.1512,0.0056,0.0,0.0,0.0,0.0,0.0,0.0,0.0,0.0,0.0,0.0,0.0,0.0,0.0,4.0083,3.7168,0.0,0.0,0.0,0.0,0.0,0.0,0.0,0.0,0.0,0.0,0.0,0.0,0.0,0.0,0.0,0.0,0.0,0.0,0.0,0.0,0.0,0.0,0.0,0.0,0.0,0.0,0.0,4.1071,4.1071,4.1071,4.1071,4.1071,4.1071,4.1071,4.1071,4.1071,4.1071,4.1071,4.1071,4.1071,4.0718,4.0083,3.9046,3.7883,3.6646,3.5849,3.4975,3.4237,3.4558,3.45,3.4173,3.4173,3.3922,3.3495,3.2541,3.1512,3.0388,2.908,2.8688,2.853,2.7827,2.7342,2.6871,2.6108,2.5357,2.4617,2.3887,2.3387,2.3062,2.2925,2.1553,1.9992,1.9067,1.7407,1.5917,1.5143,1.5124,1.4659,1.2758,1.2258,1.1715,1.0645,0.9248,0.833,0.833,0.8377,0.8465,0.8615,0.8676,0.8771,0.8871,0.7537,0.6255,0.5246,0.3296,0.1956,0.1454,0.0507,0.0,0.0,0.0,0.0,0.0,0.0,0.0,0.0,0.0,0.0,4.0375,4.0802,0.0,3.7939,3.741,0.0,3.4274,0.0,0.0,0.0,0.0,0.0,0.0,0.0,0.0,0.0,0.0,0.0,0.0,0.0,0.0,0.0,0.0,0.0,0.0,0.0,0.0,0.0,0.0,0.0,0.0,0.0,3.9913,3.9913,3.9913,3.9913,3.9913,3.9913,3.9913,3.9913,3.9913,3.9913,3.9913,3.9913,3.9667,3.9217,3.8168,3.716,3.6111,3.566,3.4988,3.4274,3.5002,3.5077,3.47,3.45,3.3682,3.2493,3.1132,3.0091,2.9148,2.7951,2.7522,2.74,2.673,2.6213,2.5755,2.4999,2.451,2.4059,2.3299,2.2775,2.2467,2.2448,2.0793,1.9105,1.8717,1.7206,1.5819,1.5362,1.5337,1.4837,1.3046,1.2372,1.1589,1.0155,0.91,0.8479,0.8479,0.8526,0.8601,0.8703,0.8757,0.8832,0.8871,0.8042,0.726,0.6755,0.4856,0.3296,0.2235,0.1287,0.051,0.0,0.0,0.0,0.0,0.0,0.0,0.0,0.0,0.0]}]]